[[{"header":{"parameterUnit":"m.s-1","parameterCategory":1,"la1":30.6,"la2":28.766,"lo1":-90.7593,"lo2":-88.6598,"dy":0.0162,"dx":0.0183,"nx":116,"ny":114,"refTime":"2023-11-10T06:00:00:Z","depth":0,"parameterNumber":2,"parameterNumberName":"U-component_of_WINDS"},"data":[0.0,0.0,0.0,0.0,0.0,0.0,0.0,0.0,0.0,0.0,0.0,0.0,0.0,0.0,0.0,0.0,0.0,0.0,0.0,0.0,0.0,0.0,0.0,0.0,0.0,0.0,0.0,0.0,0.0,0.0,0.0,0.0,0.0,0.0,0.0,0.0,0.0,0.0,0.0,0.0,0.0,0.0,0.0,0.0,0.0,0.0,0.0,0.0,0.0,0.0,0.0,0.0,0.0,0.0,0.0,0.0,0.0,0.0,0.0,0.0,0.0,0.0,0.0,0.0,0.0,0.0,0.0,0.0,0.0,0.0,0.0,0.0,0.0,0.0,0.0,0.0,0.0,0.0,0.0,0.0,0.0,0.0,0.0,0.0,0.0,0.0,0.0,0.0,0.0,0.0,0.0,0.0,0.0,0.0,0.0,0.0,0.0,0.0,0.0,0.0,0.0,0.0,0.0,0.0,0.0,0.0,0.0,0.0,0.0,0.0,0.0,0.0,0.0,0.0,0.0,0.0,0.0,0.0,0.0,0.0,0.0,0.0,0.0,0.0,0.0,0.0,0.0,0.0,0.0,0.0,0.0,0.0,0.0,0.0,0.0,0.0,0.0,0.0,0.0,0.0,0.0,0.0,0.0,0.0,0.0,0.0,0.0,0.0,0.0,0.0,0.0,0.0,0.0,0.0,0.0,0.0,0.0,0.0,0.0,0.0,0.0,0.0,0.0,0.0,0.0,0.0,0.0,0.0,0.0,0.0,0.0,0.0,0.0,0.0,0.0,0.0,0.0,0.0,0.0,0.0,0.0,0.0,0.0,0.0,0.0,0.0,0.0,0.0,0.0,0.0,0.0,0.0,0.0,0.0,0.0,0.0,0.0,0.0,0.0,0.0,0.0,0.0,0.0,0.0,0.0,0.0,0.0,0.0,0.0,0.0,0.0,0.0,0.0,0.0,0.0,0.0,0.0,0.0,0.0,0.0,0.0,0.0,0.0,0.0,0.0,0.0,0.0,0.0,0.0,0.0,0.0,0.0,0.0,0.0,0.0,0.0,0.0,0.0,0.0,0.0,0.0,0.0,0.0,0.0,0.0,0.0,0.0,0.0,0.0,0.0,0.0,0.0,0.0,0.0,0.0,0.0,0.0,0.0,0.0,0.0,0.0,0.0,0.0,0.0,0.0,0.0,0.0,0.0,0.0,0.0,0.0,0.0,0.0,0.0,0.0,0.0,0.0,0.0,0.0,0.0,0.0,0.0,0.0,0.0,0.0,0.0,0.0,0.0,0.0,0.0,0.0,0.0,0.0,0.0,0.0,0.0,0.0,0.0,0.0,0.0,0.0,0.0,0.0,0.0,0.0,0.0,0.0,0.0,0.0,0.0,0.0,0.0,0.0,0.0,0.0,0.0,0.0,0.0,0.0,0.0,0.0,0.0,0.0,0.0,0.0,0.0,0.0,0.0,0.0,0.0,0.0,0.0,0.0,0.0,0.0,0.0,0.0,0.0,0.0,0.0,0.0,0.0,0.0,0.0,0.0,0.0,0.0,0.0,0.0,0.0,0.0,0.0,0.0,0.0,0.0,0.0,0.0,0.0,0.0,0.0,0.0,0.0,0.0,0.0,0.0,0.0,0.0,0.0,0.0,0.0,0.0,0.0,0.0,0.0,0.0,0.0,0.0,0.0,0.0,0.0,0.0,0.0,0.0,0.0,0.0,0.0,0.0,0.0,0.0,0.0,0.0,0.0,0.0,0.0,0.0,0.0,0.0,0.0,0.0,0.0,0.0,0.0,0.0,0.0,0.0,0.0,0.0,0.0,0.0,0.0,0.0,0.0,0.0,0.0,0.0,0.0,0.0,0.0,0.0,0.0,0.0,0.0,0.0,0.0,0.0,0.0,0.0,0.0,0.0,0.0,0.0,0.0,0.0,0.0,0.0,0.0,0.0,0.0,0.0,0.0,0.0,0.0,0.0,0.0,0.0,0.0,0.0,0.0,0.0,0.0,0.0,0.0,0.0,0.0,0.0,0.0,0.0,0.0,0.0,0.0,0.0,0.0,0.0,0.0,0.0,0.0,0.0,0.0,0.0,0.0,0.0,0.0,0.0,0.0,0.0,0.0,0.0,0.0,0.0,0.0,0.0,0.0,0.0,0.0,0.0,0.0,0.0,0.0,0.0,0.0,0.0,0.0,0.0,0.0,0.0,0.0,0.0,0.0,0.0,0.0,0.0,0.0,0.0,0.0,0.0,0.0,0.0,0.0,0.0,0.0,0.0,0.0,0.0,0.0,0.0,0.0,0.0,0.0,0.0,0.0,0.0,0.0,0.0,0.0,0.0,0.0,0.0,0.0,0.0,0.0,0.0,0.0,0.0,0.0,0.0,0.0,0.0,0.0,0.0,0.0,0.0,0.0,0.0,0.0,0.0,0.0,0.0,0.0,0.0,0.0,0.0,0.0,0.0,0.0,0.0,0.0,0.0,0.0,0.0,0.0,0.0,0.0,0.0,0.0,0.0,0.0,0.0,0.0,0.0,0.0,0.0,0.0,0.0,0.0,0.0,0.0,0.0,0.0,0.0,0.0,0.0,0.0,0.0,0.0,0.0,0.0,0.0,0.0,0.0,0.0,0.0,0.0,0.0,0.0,0.0,0.0,0.0,0.0,0.0,0.0,0.0,0.0,0.0,0.0,0.0,0.0,0.0,0.0,0.0,0.0,0.0,0.0,0.0,0.0,0.0,0.0,0.0,0.0,0.0,0.0,0.0,0.0,0.0,0.0,0.0,0.0,0.0,0.0,0.0,0.0,0.0,0.0,0.0,0.0,0.0,0.0,0.0,0.0,0.0,0.0,0.0,0.0,0.0,0.0,0.0,0.0,0.0,0.0,0.0,0.0,0.0,0.0,0.0,0.0,0.0,0.0,0.0,0.0,0.0,0.0,0.0,0.0,0.0,0.0,0.0,0.0,0.0,0.0,0.0,0.0,0.0,0.0,0.0,0.0,0.0,0.0,0.0,0.0,0.0,0.0,0.0,0.0,0.0,0.0,0.0,0.0,0.0,0.0,0.0,0.0,0.0,0.0,0.0,0.0,0.0,0.0,0.0,0.0,0.0,0.0,0.0,0.0,0.0,0.0,0.0,0.0,0.0,0.0,0.0,0.0,0.0,0.0,0.0,0.0,0.0,0.0,0.0,0.0,0.0,0.0,0.0,0.0,0.0,0.0,0.0,0.0,0.0,0.0,0.0,0.0,0.0,0.0,0.0,0.0,0.0,0.0,0.0,0.0,0.0,0.0,0.0,0.0,0.0,0.0,0.0,0.0,0.0,0.0,0.0,0.0,0.0,0.0,0.0,0.0,0.0,0.0,0.0,0.0,0.0,0.0,0.0,0.0,0.0,0.0,0.0,0.0,0.0,0.0,0.0,0.0,0.0,0.0,0.0,0.0,0.0,0.0,0.0,0.0,0.0,0.0,0.0,0.0,0.0,0.0,0.0,0.0,0.0,0.0,0.0,0.0,0.0,0.0,0.0,0.0,0.0,0.0,0.0,0.0,0.0,0.0,0.0,0.0,0.0,0.0,0.0,0.0,0.0,0.0,0.0,0.0,0.0,0.0,0.0,0.0,0.0,0.0,0.0,0.0,0.0,0.0,0.0,0.0,0.0,0.0,0.0,0.0,0.0,0.0,0.0,0.0,0.0,0.0,0.0,0.0,0.0,0.0,0.0,0.0,0.0,0.0,0.0,0.0,0.0,0.0,0.0,0.0,0.0,0.0,0.0,0.0,0.0,0.0,0.0,0.0,0.0,0.0,0.0,0.0,0.0,0.0,0.0,0.0,0.0,0.0,0.0,0.0,0.0,0.0,0.0,0.0,0.0,0.0,0.0,0.0,0.0,0.0,0.0,0.0,0.0,0.0,0.0,0.0,0.0,0.0,0.0,0.0,0.0,0.0,0.0,0.0,0.0,0.0,0.0,0.0,0.0,0.0,0.0,0.0,0.0,0.0,0.0,0.0,0.0,0.0,0.0,0.0,0.0,0.0,0.0,0.0,0.0,0.0,0.0,0.0,0.0,0.0,0.0,0.0,0.0,0.0,0.0,0.0,0.0,0.0,0.0,0.0,0.0,0.0,0.0,0.0,0.0,0.0,0.0,0.0,0.0,0.0,0.0,0.0,0.0,0.0,0.0,0.0,0.0,0.0,0.0,0.0,0.0,0.0,0.0,0.0,0.0,0.0,0.0,0.0,0.0,0.0,0.0,0.0,0.0,0.0,0.0,0.0,0.0,0.0,0.0,0.0,0.0,0.0,0.0,0.0,0.0,0.0,0.0,0.0,0.0,0.0,0.0,0.0,0.0,0.0,0.0,0.0,0.0,0.0,0.0,0.0,0.0,0.0,0.0,0.0,0.0,0.0,0.0,0.0,0.0,0.0,0.0,0.0,0.0,0.0,0.0,0.0,0.0,0.0,0.0,0.0,0.0,0.0,0.0,0.0,0.0,0.0,0.0,0.0,0.0,0.0,0.0,0.0,0.0,0.0,0.0,0.0,0.0,0.0,0.0,0.0,0.0,0.0,0.0,0.0,0.0,0.0,0.0,0.0,0.0,0.0,0.0,0.0,0.0,0.0,0.0,0.0,0.0,0.0,0.0,0.0,0.0,0.0,0.0,0.0,0.0,0.0,0.0,0.0,0.0,0.0,0.0,0.0,0.0,0.0,0.0,0.0,0.0,0.0,0.0,0.0,0.0,0.0,0.0,0.0,0.0,0.0,0.0,0.0,0.0,0.0,0.0,0.0,0.0,0.0,0.0,0.0,0.0,0.0,0.0,0.0,0.0,0.0,0.0,0.0,0.0,0.0,0.0,0.0,0.0,0.0,0.0,0.0,0.0,0.0,0.0,0.0,0.0,0.0,0.0,0.0,0.0,0.0,0.0,0.0,0.0,0.0,0.0,0.0,0.0,0.0,0.0,0.0,0.0,0.0,0.0,0.0,0.0,0.0,0.0,0.0,0.0,0.0,0.0,0.0,0.0,0.0,0.0,0.0,0.0,0.0,0.0,0.0,0.0,0.0,0.0,0.0,0.0,0.0,0.0,0.0,0.0,0.0,0.0,0.0,0.0,0.0,0.0,0.0,0.0,0.0,0.0,0.0,0.0,0.0,0.0,0.0,0.0,0.0,0.0,0.0,0.0,0.0,0.0,0.0,0.0,0.0,0.0,0.0,0.0,0.0,0.0,0.0,0.0,0.0,0.0,0.0,0.0,0.0,0.0,0.0,0.0,0.0,0.0,0.0,0.0,0.0,0.0,0.0,0.0,0.0,0.0,0.0,0.0,0.0,0.0,0.0,0.0,0.0,0.0,0.0,0.0,0.0,0.0,0.0,0.0,0.0,0.0,0.0,0.0,0.0,0.0,0.0,0.0,0.0,0.0,0.0,0.0,0.0,0.0,0.0,0.0,0.0,0.0,0.0,0.0,0.0,0.0,0.0,0.0,0.0,0.0,0.0,0.0,0.0,0.0,0.0,0.0,0.0,0.0,0.0,0.0,0.0,0.0,0.0,0.0,0.0,0.0,0.0,0.0,0.0,0.0,0.0,0.0,0.0,0.0,0.0,0.0,0.0,0.0,0.0,0.0,0.0,0.0,0.0,0.0,0.0,0.0,0.0,0.0,0.0,0.0,0.0,0.0,0.0,0.0,0.0,0.0,0.0,0.0,0.0,0.0,0.0,0.0,0.0,0.0,0.0,0.0,0.0,0.0,0.0,0.0,0.0,0.0,0.0,0.0,0.0,0.0,0.0,0.0,0.0,0.0,0.0,0.0,0.0,0.0,0.0,0.0,0.0,0.0,0.0,0.0,0.0,0.0,0.0,0.0,0.0,0.0,0.0,0.0,0.0,0.0,0.0,0.0,0.0,0.0,0.0,0.0,0.0,0.0,0.0,0.0,0.0,0.0,0.0,0.0,0.0,0.0,0.0,0.0,0.0,0.0,0.0,0.0,0.0,0.0,0.0,0.0,0.0,0.0,0.0,0.0,0.0,0.0,0.0,0.0,0.0,0.0,0.0,0.0,0.0,0.0,0.0,0.0,0.0,0.0,0.0,0.0,0.0,0.0,0.0,0.0,0.0,0.0,0.0,3.9679,3.8409,0.0,0.0,0.0,0.0,0.0,0.0,0.0,0.0,0.0,0.0,0.0,0.0,0.0,0.0,0.0,0.0,0.0,0.0,0.0,0.0,0.0,0.0,0.0,0.0,0.0,0.0,0.0,0.0,0.0,0.0,0.0,0.0,0.0,0.0,0.0,0.0,0.0,0.0,3.9697,4.0696,4.2312,4.1605,4.1126,4.0816,0.0,0.0,0.0,0.0,0.0,0.0,0.0,0.0,0.0,0.0,0.0,0.0,0.0,0.0,0.0,0.0,0.0,0.0,0.0,0.0,0.0,0.0,0.0,0.0,0.0,0.0,0.0,0.0,0.0,0.0,0.0,0.0,0.0,0.0,0.0,0.0,0.0,0.0,0.0,0.0,0.0,0.0,0.0,0.0,0.0,0.0,0.0,0.0,0.0,0.0,0.0,0.0,0.0,0.0,0.0,0.0,0.0,0.0,0.0,0.0,0.0,0.0,0.0,0.0,0.0,0.0,0.0,0.0,0.0,0.0,4.309,4.1414,0.0,0.0,0.0,0.0,0.0,0.0,0.0,0.0,0.0,0.0,0.0,0.0,0.0,0.0,0.0,0.0,0.0,0.0,0.0,0.0,0.0,0.0,0.0,0.0,3.5669,3.5669,3.6267,0.0,0.0,0.0,0.0,0.0,0.0,0.0,0.0,0.0,0.0,4.0576,4.2062,4.3419,4.4665,4.5044,4.4885,4.4208,4.2631,0.0,0.0,0.0,0.0,0.0,0.0,0.0,0.0,0.0,0.0,0.0,0.0,0.0,0.0,0.0,0.0,0.0,0.0,0.0,0.0,0.0,0.0,0.0,0.0,0.0,0.0,0.0,0.0,0.0,0.0,0.0,0.0,0.0,0.0,0.0,0.0,0.0,0.0,0.0,0.0,0.0,0.0,0.0,0.0,0.0,0.0,0.0,0.0,0.0,0.0,0.0,0.0,0.0,0.0,0.0,0.0,0.0,0.0,0.0,0.0,0.0,0.0,0.0,5.0175,5.1043,5.2067,5.1953,5.1953,5.1858,4.7908,4.6112,4.5813,4.3529,0.0,0.0,0.0,0.0,0.0,0.0,0.0,0.0,0.0,0.0,0.0,0.0,0.0,0.0,0.0,0.0,0.0,0.0,0.0,0.0,0.0,3.6028,3.6374,3.6374,3.6926,3.7285,0.0,0.0,0.0,0.0,0.0,0.0,0.0,3.896,3.9918,4.1283,4.5954,4.8917,5.0189,5.1953,5.2426,5.1552,4.6262,4.4257,4.4706,0.0,0.0,0.0,0.0,0.0,0.0,0.0,0.0,0.0,0.0,0.0,0.0,0.0,0.0,0.0,0.0,0.0,0.0,0.0,0.0,0.0,0.0,0.0,0.0,0.0,0.0,0.0,0.0,0.0,0.0,0.0,0.0,0.0,0.0,0.0,0.0,0.0,0.0,0.0,0.0,0.0,3.9212,3.9391,0.0,0.0,0.0,0.0,0.0,0.0,0.0,0.0,0.0,0.0,0.0,0.0,0.0,4.8327,5.0278,5.2103,5.3443,5.4281,5.4965,5.5384,5.5534,5.494,5.497,5.5474,5.4281,0.0,4.8708,4.778,0.0,0.0,0.0,0.0,0.0,0.0,0.0,0.0,0.0,0.0,0.0,0.0,0.0,0.0,0.0,0.0,0.0,0.0,0.0,0.0,0.0,3.7644,3.8691,3.8691,4.1654,4.2432,3.9828,0.0,0.0,0.0,0.0,3.8943,3.8943,3.9978,4.2252,4.5834,4.9636,5.2181,5.3473,5.4341,5.461,5.4216,5.1588,4.9134,4.692,4.5963,0.0,0.0,0.0,0.0,0.0,0.0,0.0,0.0,0.0,0.0,0.0,0.0,0.0,0.0,0.0,0.0,0.0,0.0,0.0,0.0,0.0,0.0,0.0,0.0,0.0,0.0,0.0,0.0,0.0,0.0,0.0,0.0,0.0,0.0,0.0,0.0,0.0,0.0,0.0,4.0935,4.2462,4.1694,4.2791,4.2761,0.0,0.0,0.0,0.0,0.0,0.0,0.0,0.0,0.0,5.0092,5.1468,5.3114,5.5064,5.7068,5.877,6.0146,6.0446,6.0954,6.1672,6.1014,6.0864,6.1104,6.0446,5.853,5.5628,5.2007,4.9164,4.6847,0.0,0.0,0.0,0.0,4.0872,4.1474,0.0,0.0,0.0,0.0,0.0,0.0,0.0,0.0,0.0,0.0,0.0,0.0,3.7541,3.9918,4.1743,4.2581,4.5984,4.6561,4.314,4.3778,0.0,0.0,0.0,3.9391,3.9391,4.1713,4.5415,5.0564,5.3528,5.5743,5.7214,5.7363,5.7363,5.7184,5.6855,5.4221,4.9995,4.8626,4.6531,4.4118,0.0,0.0,0.0,0.0,0.0,0.0,0.0,0.0,0.0,0.0,0.0,0.0,0.0,0.0,0.0,0.0,0.0,0.0,0.0,0.0,0.0,0.0,0.0,0.0,0.0,0.0,0.0,0.0,0.0,0.0,0.0,0.0,0.0,0.0,0.0,0.0,0.0,4.3359,4.5454,4.3758,4.5613,4.5843,0.0,0.0,0.0,0.0,0.0,0.0,4.9224,5.0744,5.2749,5.5414,5.6915,5.856,6.0358,6.2211,6.3857,6.5263,6.5114,6.5533,6.649,6.5832,6.5413,6.5203,6.4248,6.2735,6.0571,5.5922,5.2478,4.9887,4.7085,4.5012,4.3505,4.2763,4.304,4.3807,0.0,0.0,0.0,0.0,0.0,0.0,0.0,0.0,0.0,0.0,0.0,3.6896,4.0745,4.291,4.5394,4.8558,4.7908,4.7249,4.701,4.3619,4.1523,4.1313,4.0098,3.9391,3.9391,4.4386,4.9284,5.3952,5.7842,6.0773,6.2718,6.3288,6.3258,6.2659,6.1373,5.859,5.464,5.1415,4.9643,4.8618,4.4835,0.0,0.0,0.0,0.0,0.0,0.0,0.0,0.0,0.0,0.0,0.0,0.0,0.0,0.0,0.0,0.0,0.0,0.0,0.0,0.0,0.0,0.0,0.0,0.0,0.0,0.0,0.0,0.0,0.0,0.0,0.0,0.0,0.0,0.0,0.0,0.0,0.0,0.0,4.4566,4.8745,0.0,0.0,0.0,0.0,4.7959,5.0331,5.2665,5.47,5.6615,5.889,6.1553,6.3528,6.5173,6.652,6.7926,6.8645,6.8734,6.8107,6.7838,6.7868,6.7209,6.655,6.5861,6.4087,6.2272,6.0432,5.924,5.6252,5.2292,5.0927,4.8932,4.681,4.6182,4.5973,4.6067,0.0,0.0,0.0,0.0,0.0,0.0,0.0,0.0,0.0,3.3739,3.6656,3.9828,4.294,4.7698,5.1319,5.2959,5.4581,5.4072,5.069,4.7959,4.5714,4.4008,4.1833,4.2282,4.5714,4.9703,5.4012,5.865,6.1762,6.4066,6.5592,6.5832,6.5802,6.5562,6.4665,6.2989,6.0535,5.5538,5.1828,4.9127,4.7249,4.5095,0.0,0.0,0.0,0.0,0.0,0.0,0.0,0.0,0.0,0.0,0.0,0.0,0.0,0.0,0.0,0.0,0.0,0.0,0.0,0.0,0.0,0.0,0.0,0.0,0.0,0.0,0.0,0.0,0.0,0.0,0.0,0.0,0.0,0.0,0.0,0.0,0.0,5.1319,5.485,0.0,5.263,5.257,5.2929,5.3348,5.5833,5.8321,6.0715,6.2331,6.4425,6.7089,6.8226,6.9243,7.0141,7.1068,7.1517,7.1517,7.0829,7.026,6.9842,6.9245,6.7896,6.5982,6.4936,6.3395,6.1618,6.0836,5.775,5.3268,5.1196,4.9585,4.8358,4.7585,4.7536,4.7958,0.0,0.0,0.0,0.0,0.0,0.0,0.0,0.0,3.2901,3.4023,3.8182,4.2581,4.6531,5.2276,5.6496,5.8022,5.9129,5.7902,5.3503,4.9905,4.6972,4.4736,4.3389,4.5205,5.0504,5.4281,5.8471,6.3109,6.5263,6.6939,6.7986,6.7777,6.7657,6.7657,6.6969,6.6161,6.5024,6.0206,5.5893,5.2091,5.0092,4.8237,4.633,0.0,0.0,0.0,0.0,0.0,0.0,0.0,0.0,0.0,0.0,0.0,0.0,0.0,0.0,0.0,0.0,0.0,0.0,0.0,0.0,0.0,0.0,0.0,0.0,0.0,0.0,0.0,0.0,0.0,0.0,0.0,0.0,0.0,0.0,5.1618,5.5773,5.6436,5.9997,6.1283,5.8467,5.8381,5.877,5.9485,6.1732,6.4036,6.6221,6.7388,6.8914,7.0919,7.1577,7.2116,7.2565,7.3223,7.3462,7.3253,7.2774,7.1844,7.0563,7.0149,6.8535,6.5964,6.4728,6.3266,6.1643,6.0353,5.7817,5.4623,5.3319,5.1967,5.0647,5.007,5.0117,5.0544,0.0,0.0,0.0,0.0,0.0,0.0,0.0,3.2093,3.326,3.528,3.9637,4.5056,5.1558,5.6466,6.0535,6.3737,6.1044,5.8022,5.5388,4.9015,4.4766,4.3469,4.4825,4.8079,5.3378,5.7958,6.251,6.7119,6.8435,6.9423,7.0083,6.9423,6.9123,6.9093,6.8437,6.8107,6.7928,6.5263,6.1942,5.7995,5.3299,5.2127,5.263,0.0,0.0,0.0,0.0,0.0,0.0,0.0,0.0,0.0,0.0,0.0,0.0,0.0,0.0,0.0,0.0,0.0,0.0,0.0,0.0,0.0,0.0,0.0,0.0,0.0,0.0,0.0,0.0,0.0,0.0,0.0,0.0,0.0,5.0278,5.6107,6.0057,5.9548,6.4036,6.5922,6.278,6.4127,6.5503,6.6221,6.8076,6.9722,7.0979,7.1637,7.2295,7.3013,7.3642,7.3941,7.3941,7.4634,7.4569,7.3941,7.3843,7.2473,6.9942,6.9872,6.8379,6.5719,6.3456,6.1732,6.0398,5.8065,5.6759,5.6365,5.744,5.6184,5.3758,5.3733,5.3708,5.3683,0.0,0.0,0.0,0.0,0.0,0.0,0.0,3.2482,3.3933,3.5938,4.2331,4.8468,5.3144,5.9039,6.3228,6.4605,6.1732,5.8737,5.6102,4.9703,4.6061,4.6181,5.0242,5.473,5.9548,6.275,6.6161,6.9842,7.0679,7.1457,7.2116,7.1906,7.1846,7.1816,7.1128,7.056,6.9991,6.8315,6.67,6.4754,5.865,5.4999,5.2929,0.0,0.0,0.0,0.0,0.0,0.0,0.0,0.0,0.0,0.0,0.0,0.0,0.0,0.0,0.0,0.0,0.0,0.0,0.0,0.0,0.0,0.0,0.0,0.0,0.0,0.0,0.0,0.0,0.0,0.0,0.0,5.2432,5.5513,5.5872,6.0388,6.4665,6.7328,6.9812,7.1128,7.0679,7.0709,7.1009,7.1667,7.2684,7.3642,7.448,7.424,7.4569,7.5672,7.5497,7.5347,7.5347,7.5527,7.5288,7.4599,7.3134,7.1812,7.0575,6.9116,6.7,6.4508,6.382,6.2348,6.0316,5.9651,5.8855,5.7939,5.7044,5.5947,5.4888,5.4522,5.3833,5.3206,0.0,0.0,0.0,0.0,0.0,0.0,0.0,3.2632,3.4412,3.6972,4.3948,5.0324,5.4581,6.0386,6.3947,6.3827,6.1014,5.7693,5.3922,4.9291,4.7616,4.9673,5.4581,5.9279,6.3647,6.6849,6.9692,7.2146,7.2535,7.2924,7.3343,7.3343,7.3343,7.3313,7.2894,7.2505,7.2086,7.0769,6.9961,6.9245,6.4844,6.1104,5.7812,5.482,5.2905,5.1594,4.9823,4.9404,4.9344,4.713,0.0,0.0,0.0,0.0,0.0,0.0,0.0,0.0,0.0,0.0,0.0,0.0,0.0,0.0,0.0,0.0,0.0,0.0,0.0,0.0,0.0,0.0,0.0,0.0,5.7277,6.1373,6.3588,6.5921,6.8854,7.2565,7.3702,7.442,7.5048,7.4745,7.4719,7.5108,7.5497,7.5886,7.6275,7.5916,7.6036,7.6779,7.645,7.5855,7.4981,7.5825,7.5081,7.272,7.2439,7.1052,6.8744,6.7548,6.571,6.3491,6.3258,6.2334,6.1014,6.0763,6.0161,5.9218,0.0,0.0,0.0,0.0,5.4361,5.3683,0.0,0.0,0.0,0.0,0.0,0.0,0.0,3.2632,3.4681,3.799,4.4636,5.0744,5.5144,6.0236,6.2899,6.1852,5.9249,5.5572,5.0637,4.8962,4.9912,5.3827,5.8497,6.275,6.658,7.0231,7.2614,7.3665,7.3899,7.3899,7.3665,7.3899,7.4001,7.4001,7.3797,7.3801,7.3877,7.225,7.1781,7.1963,7.0311,6.7878,6.4695,5.9847,5.8141,5.7905,5.485,5.2695,5.1146,5.0115,0.0,0.0,0.0,0.0,0.0,0.0,0.0,0.0,0.0,0.0,0.0,0.0,0.0,0.0,0.0,0.0,0.0,0.0,0.0,0.0,0.0,0.0,0.0,0.0,6.1882,6.667,7.1727,7.1936,7.2714,7.5766,7.6125,7.6395,7.7048,7.7137,7.7167,7.7227,7.7167,7.7137,7.7137,7.6988,0.0,0.0,0.0,7.5671,7.3826,7.5419,7.4038,6.9706,7.1351,6.9893,6.5804,6.5569,6.4497,6.2756,6.232,6.2019,6.1868,6.1391,6.0814,6.0136,5.9106,5.7688,5.6244,5.5742,5.5139,5.4672,0.0,0.0,0.0,0.0,0.0,0.0,0.0,3.2632,3.4681,3.799,4.3808,4.8835,5.1858,5.638,5.9341,5.9668,5.6795,5.3808,5.1176,5.2695,5.5179,5.8617,6.3736,6.7838,7.0679,7.2565,7.3107,7.2282,7.3907,7.3907,7.2318,7.3976,7.4723,7.4655,7.3017,7.3187,7.4488,7.0857,7.0921,7.3193,6.9572,6.7515,6.637,6.4246,6.1912,5.9488,5.7782,5.7603,5.7603,5.3737,5.3588,5.4251,4.9905,4.7608,0.0,0.0,0.0,0.0,0.0,0.0,0.0,0.0,0.0,0.0,0.0,0.0,0.0,0.0,0.0,0.0,0.0,0.0,0.0,6.2661,6.7358,7.1667,7.5347,7.5732,7.6091,7.7293,7.7442,7.7921,7.9082,7.9201,7.9411,7.9986,7.9537,7.9201,7.9201,7.819,7.7861,7.84,7.6285,7.4934,7.4497,7.316,7.1579,6.9668,6.8466,0.0,6.5726,6.4123,6.3164,6.2781,6.2681,6.2169,6.1341,6.1215,6.0588,5.9583,5.8956,5.7939,5.6835,5.6709,5.5792,5.4672,0.0,0.0,0.0,0.0,0.0,0.0,0.0,3.1875,3.3407,3.6973,4.1626,4.5459,4.77,5.1198,5.3028,5.2169,5.0495,4.9994,5.1291,5.4692,5.886,6.3856,6.8136,7.1368,7.3376,7.3635,7.3446,7.277,7.2733,7.2192,7.124,7.2229,7.2561,7.2244,7.1268,7.1341,7.2179,7.0854,7.0886,7.1683,7.0364,6.9454,6.8745,6.6715,6.519,6.3856,6.2123,6.1136,6.0146,5.7154,5.6346,5.6132,5.3169,5.1079,4.9434,0.0,0.0,0.0,0.0,0.0,0.0,0.0,0.0,0.0,0.0,0.0,0.0,0.0,0.0,5.3468,5.5722,0.0,6.3349,6.7328,7.1009,7.442,7.7382,7.7801,7.819,7.9178,7.9028,7.9327,8.0674,8.0794,8.0794,8.0794,8.0494,8.0315,8.0315,7.8642,7.7819,7.8142,7.5478,7.3488,7.2399,7.2123,7.0493,6.7478,6.7295,6.6314,6.4695,6.3412,6.2781,6.2781,6.2781,6.2521,6.1969,6.1416,6.0688,5.9859,5.9307,5.8428,5.7399,5.6784,5.5917,5.5049,0.0,0.0,0.0,0.0,0.0,0.0,0.0,3.088,3.201,3.5347,3.8859,4.1616,4.3142,4.5681,4.6451,4.449,4.5167,4.7433,5.152,5.6214,6.1696,6.811,7.0862,7.3079,7.4793,7.3769,7.3036,7.2632,7.1311,7.0418,6.9919,7.0308,7.0264,6.9861,6.9478,6.9516,6.9909,7.0389,7.0277,6.9754,7.0259,7.0509,7.0178,6.7409,6.7182,6.8045,6.5676,6.3117,6.0775,5.9817,5.8082,5.6312,5.5897,5.4551,5.2695,5.0354,4.9127,0.0,0.0,0.0,0.0,0.0,0.0,0.0,0.0,5.0624,5.2031,5.4905,5.7,5.9246,6.2271,6.5293,6.8435,7.1727,7.4151,7.6455,7.8849,7.9178,7.9627,8.0853,8.0524,8.0674,8.1908,8.1961,8.1751,8.1212,8.1063,8.0788,8.0355,7.8609,7.7382,7.6706,7.4218,7.1934,6.9945,7.0825,6.9256,6.5325,6.6604,6.6032,6.3827,6.3249,6.2957,6.2932,6.2731,6.2631,6.2531,6.1466,6.0738,6.0261,5.9608,5.883,5.7926,5.6922,5.6194,5.5666,0.0,0.0,0.0,0.0,0.0,0.0,0.0,0.0,0.0,3.3017,3.5984,3.807,3.8295,4.0575,4.1992,4.1658,4.6291,5.013,5.224,5.8153,6.3993,6.9442,6.9931,7.1456,7.4481,7.2598,7.0673,6.8892,7.0436,7.0045,6.788,6.9646,7.0473,7.0314,6.8543,6.874,7.0225,6.729,6.7464,6.9456,6.6492,6.686,6.8751,6.5539,6.658,6.92,6.5507,6.2493,6.0266,6.0745,5.9159,5.7094,5.7606,5.7214,5.5807,5.2097,5.0122,4.8468,4.5185,4.4416,4.5343,4.8783,4.9374,5.0923,0.0,5.877,5.9099,6.29,6.4814,6.643,6.8585,7.0709,7.3223,7.6485,7.7771,7.8878,8.0375,8.0584,8.0853,8.1572,8.1601,8.1841,8.2627,8.2687,8.2657,8.2597,8.2028,8.0782,7.8794,7.8364,7.6838,7.3848,7.2132,7.0645,6.938,6.7695,6.6322,6.5283,6.5462,6.5159,6.4396,6.3827,6.3601,6.3525,6.2546,6.2094,6.2019,6.0889,6.0387,6.0211,5.9207,5.873,5.8554,5.7926,5.7349,5.6684,0.0,0.0,0.0,0.0,0.0,0.0,0.0,0.0,0.0,0.0,3.3256,3.4388,3.431,3.5034,3.5659,3.5938,4.1337,4.6838,5.1875,5.7535,6.3621,7.006,7.0604,7.1518,7.3195,7.1509,7.0347,6.9877,6.8804,6.792,6.7237,6.7702,6.7749,6.7436,6.6584,6.6708,6.7436,6.6825,6.6803,6.7044,6.6166,6.6331,6.6796,6.3963,6.3946,6.5056,6.2239,6.0501,0.0,5.7633,5.6855,5.6701,5.7334,5.6555,5.494,5.2516,5.0601,4.8917,4.71,4.7728,4.9494,5.1923,5.4072,5.6851,6.1702,6.2959,6.4126,6.7717,7.0111,7.1966,7.3193,7.5018,7.6784,7.816,7.9267,8.0434,8.1789,8.1272,8.0883,8.1183,8.0524,8.0801,8.2627,8.2806,8.2253,8.0932,8.0864,7.9815,7.721,7.6083,7.4792,7.3072,7.0496,6.8904,6.8416,6.6887,6.5986,6.576,6.5107,6.4722,6.4471,6.3576,6.3199,6.3174,6.2656,6.2119,6.1492,6.1014,6.0261,5.9294,5.888,5.8504,5.8202,5.7976,5.7323,5.6458,0.0,0.0,0.0,0.0,0.0,0.0,0.0,0.0,0.0,0.0,3.0923,3.1621,3.1831,3.1425,3.1512,3.2365,3.7351,4.3256,4.9803,5.5163,6.1323,6.8618,6.9192,7.0082,7.1634,7.0217,6.9752,7.0351,6.7967,6.6865,6.7009,6.6538,6.6061,6.5509,6.5509,6.5509,6.5611,6.6656,6.6345,6.515,6.581,6.5367,6.4,6.1467,6.0119,5.9498,5.8372,5.7191,5.5794,5.3293,5.2925,5.3738,5.4896,5.4653,5.3623,5.2097,5.0002,4.8259,4.8498,5.0331,5.2785,5.5209,5.88,6.254,6.5742,6.7358,6.9123,7.2385,7.433,7.5677,7.6544,7.7682,7.8759,7.9507,8.0434,8.1265,8.1845,8.0939,7.999,7.9241,7.7534,7.7461,8.0071,8.079,8.0296,7.8398,7.8693,7.7888,7.5535,7.426,7.3085,7.1878,6.9485,6.8045,6.7568,6.6764,6.6187,6.5886,6.5082,6.4647,6.4471,6.35,6.2973,6.2781,6.2631,6.2144,6.1391,6.1065,6.0236,5.9131,5.8805,5.8453,5.8102,5.7951,5.7273,5.6394,0.0,0.0,0.0,0.0,0.0,0.0,0.0,0.0,0.0,0.0,0.0,0.0,0.0,3.0954,3.1286,3.2939,3.6647,4.0809,4.5388,5.0763,5.6972,6.4164,6.4137,6.5907,7.0066,6.8654,6.8133,6.8686,6.8572,6.7995,6.7009,6.6965,6.6639,6.6086,6.6086,6.6086,6.6086,6.6104,6.5544,6.4521,6.458,6.292,6.0164,5.7423,5.5108,5.3414,5.4453,5.2253,4.875,4.8254,4.7531,4.7236,4.9852,5.1866,5.2839,5.0847,4.7945,4.5984,4.8558,5.0714,5.3443,5.862,6.2899,6.7029,7.1607,7.3163,7.4599,7.7861,7.7592,7.7173,7.846,7.822,7.8699,8.1272,8.1759,8.129,7.9896,7.9197,7.7867,7.5185,7.2264,7.1419,7.3843,7.5722,7.6389,7.5498,7.5445,7.4934,7.3724,7.3629,7.2318,6.9586,6.9401,6.8578,6.7059,6.7009,6.6413,6.5308,6.5283,6.4982,6.4496,6.3902,6.335,6.2756,6.227,6.2019,6.1893,6.0788,6.0311,6.0161,5.9131,5.8666,5.8591,5.8102,5.7524,5.6809,0.0,0.0,0.0,0.0,0.0,0.0,0.0,0.0,0.0,0.0,0.0,0.0,0.0,0.0,0.0,0.0,3.5013,3.8746,4.3782,4.8076,5.3054,5.8928,6.1364,6.3442,6.5221,6.5816,6.6413,6.6965,6.6237,6.586,6.5835,6.5526,6.525,6.5032,6.5032,6.5032,6.5032,6.5032,6.4848,6.4371,6.2913,6.1291,5.9423,5.6335,5.2702,4.903,0.0,4.576,4.47,4.3151,4.3024,4.3936,4.6402,4.7323,4.7408,4.7062,4.8005,4.9703,5.1947,5.6196,6.0984,6.4994,6.8645,7.2116,7.5407,7.6335,7.6814,7.7921,7.6754,7.5407,7.4958,7.4719,7.5288,7.7532,7.8419,7.9095,8.0021,7.8626,7.6272,7.3072,7.1661,7.0137,6.8089,7.0616,7.2273,7.201,7.3038,7.2666,7.0368,7.1352,7.1149,6.9476,6.8703,6.8095,6.7518,6.6789,6.6036,6.5283,6.458,6.3927,6.3375,6.3199,6.2998,6.2756,6.2245,6.1793,6.1391,6.0638,5.991,5.9182,5.8453,5.7926,5.7487,5.6972,5.6646,5.6458,0.0,0.0,0.0,0.0,0.0,0.0,0.0,0.0,0.0,0.0,0.0,0.0,0.0,0.0,0.0,0.0,0.0,3.659,4.1178,4.4043,4.7765,5.271,5.5725,5.7725,5.8679,5.9935,6.0939,6.1667,6.1768,6.1994,6.2345,6.2571,6.2738,6.2712,6.2496,6.2521,6.2738,6.2738,6.216,6.1104,5.9232,5.7123,5.4693,5.144,4.7617,0.0,4.0592,3.9518,3.937,3.8424,3.936,4.1268,4.3211,4.4303,4.5118,4.6369,4.9015,5.2366,5.6047,6.1134,6.6281,6.9842,7.3043,7.5796,7.7711,7.7981,7.7622,7.6904,7.4988,7.2984,7.1427,7.0769,7.1398,7.436,7.5523,7.6593,7.7958,7.6516,7.4156,7.1091,6.9266,6.7534,6.5633,6.656,6.7694,6.8721,7.0179,7.049,6.929,7.0029,7.0355,7.0054,6.8949,6.8196,6.7794,6.7091,6.6137,6.4982,6.3902,6.3199,6.2781,6.2781,6.2681,6.2455,6.1943,6.1391,6.0839,6.0261,5.9608,5.8956,5.8403,5.7851,5.7236,5.6684,5.6333,5.6269,0.0,0.0,0.0,0.0,0.0,0.0,0.0,0.0,0.0,0.0,0.0,0.0,0.0,0.0,0.0,0.0,0.0,0.0,3.7588,3.8944,4.1505,4.5748,4.7657,4.9371,5.0979,5.1574,5.2377,5.3406,5.5505,5.6533,5.6559,5.8177,5.8905,5.893,5.8403,5.8453,5.8956,5.8905,5.7399,5.4888,5.3758,5.077,4.6622,4.3316,4.0351,3.7688,3.5481,3.4022,3.3316,3.4327,3.6713,3.9452,4.0736,4.3236,4.6172,4.8887,5.1163,5.4221,6.0685,6.5323,6.9267,7.3159,7.5966,7.7898,7.8669,7.819,7.7053,7.5113,7.2415,6.9871,6.7958,6.6579,6.7233,7.1831,7.3214,7.3845,7.4088,7.3274,7.1757,6.9331,6.5569,6.4062,6.6314,6.3958,6.34,6.6011,6.7166,6.8472,7.0149,6.9727,6.9883,7.0932,6.9883,6.8804,6.7769,6.7668,6.6564,6.4496,6.335,6.2781,6.2781,6.2781,6.2505,6.2019,6.1441,6.0864,6.0311,5.9734,5.9483,5.9408,5.888,5.8353,5.7775,5.7161,5.6634,5.6219,0.0,0.0,0.0,0.0,0.0,0.0,0.0,0.0,0.0,0.0,0.0,0.0,0.0,0.0,0.0,0.0,0.0,0.0,3.4851,3.7136,3.9145,4.0728,4.4371,4.6557,4.6954,4.8284,4.9113,4.9389,4.9941,5.0243,5.0243,5.067,5.1096,5.1507,5.0921,5.0971,5.1507,5.1046,5.0469,4.969,4.8184,4.6652,4.4865,4.158,3.912,3.7161,3.533,3.4274,3.3796,3.4477,3.8213,4.2957,4.5119,4.7921,5.105,5.4192,5.7902,6.1912,6.6101,6.9984,7.3599,7.6759,7.7217,7.7182,7.8523,7.6754,7.433,7.2325,6.7867,6.3887,6.2389,6.2204,6.356,6.7482,7.0007,7.2286,7.4688,7.4056,7.2314,6.9644,6.8758,6.7989,6.6941,6.6538,6.6614,6.7317,6.7267,6.7719,6.8974,6.9677,6.9803,6.9275,6.8572,6.7894,6.7191,6.5979,6.5074,6.4496,6.335,6.2781,6.2781,6.2781,6.2706,6.2531,6.1592,6.109,6.0889,5.991,5.9257,5.8855,5.8328,5.775,5.7136,5.662,5.6344,5.6219,0.0,0.0,0.0,0.0,0.0,0.0,0.0,0.0,0.0,0.0,0.0,0.0,0.0,0.0,0.0,0.0,0.0,0.0,0.0,3.4977,3.613,3.6683,3.9069,4.0526,4.0752,4.1656,4.2359,4.2836,4.3589,4.4192,4.4669,4.5146,4.5703,4.623,4.5652,4.5728,4.623,4.5874,4.5196,0.0,0.0,4.143,3.9997,3.7688,3.623,3.5276,3.4324,3.4822,3.6237,3.848,4.2239,4.6539,5.0193,5.3124,5.5773,5.8465,6.1674,6.5226,6.9204,7.257,7.5499,7.7678,7.7878,7.6877,7.4409,7.2524,6.9788,6.4687,6.141,5.8613,5.5892,5.7283,5.9894,6.3028,6.6483,6.9888,7.3137,7.3321,7.2446,7.0698,7.0355,6.9722,6.8196,6.812,6.8371,6.8848,6.8145,6.817,6.9275,6.9702,6.9727,6.9351,6.8572,6.7769,6.7034,6.5351,6.4496,6.4496,6.335,6.2781,6.2781,6.2781,6.2656,6.2446,6.1818,6.1266,6.0763,6.0111,5.9558,5.9006,5.8478,5.7901,5.7349,5.6734,5.642,5.6219,0.0,0.0,0.0,0.0,0.0,0.0,0.0,0.0,0.0,0.0,0.0,0.0,0.0,0.0,0.0,0.0,0.0,0.0,0.0,0.0,3.3316,3.3771,3.3796,3.4022,3.4477,3.4477,3.4977,3.5977,3.7411,3.8617,3.9546,4.0527,4.1281,4.1783,4.123,4.1281,4.1808,4.1733,4.0577,3.8743,3.7739,3.6207,3.4377,0.0,0.0,3.3115,3.319,3.5322,3.888,4.3919,4.735,5.0434,5.5578,5.8489,6.0399,6.2532,6.4246,6.6457,7.123,7.4003,7.5851,7.7308,7.7775,7.6028,6.9028,6.6923,6.4169,5.5785,5.4456,5.3673,4.9916,5.2769,5.6625,5.9346,6.3491,6.7557,7.105,7.2131,7.2455,7.2271,7.1384,7.0631,7.0108,6.9506,6.9526,7.0451,6.9526,6.9325,7.025,6.9803,6.9677,6.9974,6.8949,6.7869,6.6764,6.5275,6.4471,6.4396,6.3324,6.2781,6.2781,6.2781,6.2571,6.2119,6.2044,6.1416,6.0437,6.0322,5.996,5.9357,5.8905,5.8378,5.7826,5.7211,5.6734,5.642,0.0,0.0,0.0,0.0,0.0,0.0,0.0,0.0,0.0,0.0,3.109,0.0,0.0,0.0,0.0,0.0,0.0,0.0,0.0,0.0,0.0,3.3241,3.3241,3.3291,3.3391,3.3391,3.3467,3.3668,3.3969,3.4195,3.4396,3.4597,3.4974,3.5454,3.4924,3.4974,3.5454,3.4999,3.4597,3.422,3.4045,3.3718,3.3366,0.0,0.0,0.0,3.3596,3.5057,3.7917,4.5661,5.0896,5.5213,6.0859,6.3557,6.5239,6.8315,6.8927,6.9662,7.4448,7.5502,7.5703,7.7857,7.5674,7.1914,6.7775,6.2984,5.814,5.364,5.033,4.8236,4.8322,5.1266,5.508,5.9202,6.3358,6.744,7.1307,7.2319,7.3013,7.3868,7.382,7.3669,7.3569,7.2568,7.1912,7.1636,7.1033,7.0531,7.0325,7.0225,6.9551,6.8271,6.7593,6.6714,6.5584,6.4873,6.4295,6.3827,6.3149,6.2781,6.2781,6.2781,6.2731,6.2631,6.2195,6.1642,6.0989,6.0512,5.9734,5.8817,5.8755,5.8378,5.7826,5.7211,5.7236,5.7474,0.0,0.0,0.0,0.0,0.0,0.0,0.0,0.0,0.0,0.0,3.3746,3.3043,0.0,0.0,0.0,0.0,0.0,0.0,0.0,0.0,0.0,0.0,0.0,0.0,3.309,3.309,3.3241,3.3517,0.0,3.3241,3.3517,3.3241,3.3241,3.347,3.3215,3.3241,3.3467,3.3215,3.309,3.309,3.309,3.309,3.309,0.0,0.0,0.0,3.3391,3.5191,3.8248,4.3702,4.9933,5.6735,6.4249,6.816,7.0045,7.0145,7.0274,7.0908,7.3119,7.38,7.4182,7.531,7.3402,6.9284,6.1675,5.715,5.2736,4.625,4.4468,4.3893,4.3404,4.7584,5.188,5.4182,5.8112,6.2763,6.8108,6.9376,7.0907,7.4046,7.4674,7.4724,7.4448,7.3669,7.3067,7.2791,7.2263,7.1435,7.0376,6.9978,6.92,6.7844,6.7267,6.6438,6.5308,6.4798,6.4245,6.3676,6.3099,6.2781,6.2781,6.2781,6.2781,6.2781,6.2546,6.2119,6.1567,6.0989,6.0286,5.9508,5.8892,5.8554,5.8252,5.77,5.765,5.7826,0.0,0.0,0.0,0.0,0.0,0.0,0.0,3.2377,3.2968,3.5857,3.6433,3.5653,3.3172,3.2043,3.1461,0.0,0.0,0.0,0.0,0.0,0.0,0.0,0.0,0.0,3.309,0.0,0.0,3.3721,3.3316,0.0,0.0,0.0,0.0,0.0,3.309,3.309,3.309,3.309,3.309,0.0,0.0,3.309,0.0,0.0,0.0,0.0,0.0,3.5051,3.8088,4.1322,4.7376,5.498,6.3293,6.8958,7.2213,7.0281,7.0765,7.195,7.2111,7.3107,7.3901,7.3037,7.1337,6.6948,5.6014,5.1923,4.8056,3.9728,3.9564,4.0553,3.9449,4.4127,4.8573,4.9772,5.3163,5.7985,6.4647,6.6388,6.8748,7.3494,7.4849,7.5201,7.46,7.4096,7.3669,7.3418,7.2765,7.1811,7.0551,6.9702,6.8779,6.7819,6.7267,6.6388,6.5132,6.4722,6.4195,6.35,6.3048,6.2781,6.2781,6.2781,6.2781,6.2781,6.2781,6.2521,6.1969,6.1542,6.0939,6.0236,5.9344,5.8942,5.883,5.8278,5.8152,5.8202,0.0,0.0,0.0,0.0,0.0,0.0,0.0,3.3773,3.4851,3.8165,3.7738,3.6634,3.5332,3.4678,3.3524,0.0,0.0,0.0,0.0,0.0,0.0,0.0,0.0,0.0,0.0,0.0,0.0,3.3165,3.3115,0.0,0.0,0.0,0.0,0.0,0.0,3.309,3.309,3.309,0.0,0.0,0.0,0.0,0.0,0.0,0.0,0.0,0.0,3.3935,3.5785,4.0744,4.4731,4.8545,5.4092,6.1596,6.8533,6.9426,7.1747,7.4248,7.5352,7.6948,7.7483,7.3804,6.9724,6.4231,5.5051,4.9423,4.4551,3.912,3.8189,3.8743,4.0099,4.2865,4.6297,5.0486,5.2663,5.6185,6.2951,6.5685,6.8447,7.2367,7.4724,7.5753,7.5177,7.4674,7.392,7.2844,7.1836,7.1158,7.1008,6.9526,6.8422,6.7819,6.7267,6.623,6.4597,6.4521,6.3952,6.2857,6.2807,6.2781,6.2781,6.2781,6.2781,6.2781,6.2781,6.2521,6.1994,6.1943,6.1291,6.0311,6.0211,5.9859,5.9357,5.883,5.893,5.9207,0.0,0.0,0.0,0.0,0.0,0.0,0.0,3.3539,3.4748,3.8416,3.9069,3.8642,3.7162,3.6533,3.4901,0.0,0.0,0.0,0.0,0.0,0.0,0.0,0.0,0.0,0.0,0.0,3.309,3.309,3.309,0.0,0.0,0.0,0.0,0.0,0.0,3.309,3.309,3.309,0.0,0.0,0.0,0.0,0.0,0.0,0.0,0.0,0.0,0.0,3.4586,3.6965,4.0281,4.3777,4.5796,5.1739,5.8777,6.2749,6.6186,6.9133,7.1045,7.3108,7.4137,7.1916,6.7715,6.2094,5.4219,4.856,4.3639,3.8969,3.7739,3.7914,3.927,4.0949,4.3125,4.627,4.7302,5.0155,5.7234,5.8994,6.2169,6.9356,7.1636,7.3441,7.5527,7.5226,7.4448,7.3318,7.2213,7.1435,7.1108,6.9828,6.8678,6.7819,6.7267,6.6205,6.4521,6.4496,6.3927,6.2781,6.2781,6.2781,6.2781,6.2781,6.2781,6.2781,6.2781,6.2656,6.2471,6.2144,6.1743,6.1291,6.0964,6.0713,6.0487,6.0286,6.0111,5.9935,0.0,0.0,0.0,0.0,0.0,0.0,3.3124,3.3671,3.4951,3.8215,3.9446,3.9521,3.8165,3.6935,3.52,3.2591,0.0,0.0,0.0,0.0,0.0,0.0,0.0,0.0,0.0,0.0,3.309,3.309,3.309,3.309,0.0,0.0,3.309,3.309,0.0,0.0,0.0,0.0,0.0,0.0,0.0,0.0,0.0,0.0,0.0,0.0,0.0,0.0,0.0,0.0,0.0,3.9788,3.9902,4.3546,4.92,5.6472,6.1683,6.5482,6.7508,6.9993,7.1565,6.9777,6.566,6.0197,5.3206,4.7857,4.3112,3.8693,3.7588,3.7738,3.8718,3.9647,4.1003,4.3187,4.3564,4.5974,5.2914,5.4421,5.7625,6.5258,6.7442,6.9823,7.3494,7.4397,7.4423,7.3644,7.2539,7.1585,7.0882,6.9803,6.8728,6.7819,6.7091,6.5986,6.4521,6.4496,6.3927,6.2781,6.2781,6.2781,6.2781,6.2781,6.2781,6.2781,6.2781,6.2781,6.2756,6.2395,6.2144,6.1969,6.1567,6.1215,6.0939,6.1115,6.0814,6.0219,0.0,0.0,0.0,0.0,0.0,0.0,0.0,3.4623,3.6108,3.7789,3.8542,3.8693,3.8065,3.5579,3.4148,3.4628,0.0,0.0,0.0,0.0,0.0,0.0,0.0,0.0,0.0,0.0,3.309,3.309,3.309,3.309,3.309,3.309,3.309,3.309,0.0,0.0,0.0,0.0,0.0,0.0,0.0,0.0,0.0,0.0,0.0,0.0,0.0,0.0,0.0,0.0,0.0,0.0,0.0,3.8039,4.1132,5.1893,5.987,6.5435,6.6531,6.9507,7.1419,6.7938,6.3651,5.8604,5.1916,4.7004,4.2559,3.814,3.7613,3.8191,3.8793,3.9346,4.0425,4.2663,4.3014,4.5121,5.1272,5.4009,5.662,6.001,6.2395,6.5057,6.8371,7.1686,7.3619,7.3594,7.2539,7.1435,7.0376,6.9225,6.8371,6.7819,6.6714,6.5584,6.4521,6.4496,6.3927,6.2781,6.2781,6.2781,6.2781,6.2781,6.2781,6.2781,6.2781,6.2781,6.2781,6.2781,6.2496,6.1994,6.1994,6.1316,6.0387,6.0964,6.0814,6.0047,0.0,0.0,0.0,0.0,0.0,0.0,0.0,3.2065,3.2975,3.5299,3.5534,3.5705,3.6234,3.4853,3.4123,3.4653,0.0,0.0,0.0,0.0,0.0,0.0,0.0,0.0,0.0,0.0,0.0,3.3668,3.3668,3.3668,3.3668,3.3668,3.3467,3.309,3.309,3.309,0.0,0.0,0.0,0.0,0.0,0.0,3.309,0.0,0.0,0.0,0.0,0.0,0.0,0.0,0.0,0.0,0.0,0.0,0.0,4.3204,4.9535,5.5583,5.7847,6.0942,6.2907,6.0255,5.7424,5.3899,4.8786,4.5045,4.1884,3.8969,3.8165,3.8291,3.927,3.9572,4.0526,4.3112,4.3539,4.502,4.927,5.2377,5.6043,6.0889,6.7467,7.194,7.2994,7.377,7.382,7.3067,7.1962,7.1033,7.035,6.8874,6.7819,6.7267,6.6137,6.5208,6.4521,6.417,6.3576,6.2781,6.2781,6.2781,6.2781,6.2781,6.2781,6.2781,6.2781,6.2781,6.2781,6.2781,6.2681,6.248,6.2144,6.2019,6.1978,6.1818,6.0601,5.8998,0.0,0.0,0.0,0.0,0.0,0.0,0.0,3.1879,3.243,3.3697,3.3659,3.3907,3.5052,3.3872,3.342,3.4603,0.0,0.0,0.0,0.0,0.0,0.0,0.0,0.0,0.0,0.0,3.3366,3.3897,3.4098,3.4198,3.4223,3.4402,3.4123,3.3416,3.3416,3.3291,0.0,0.0,0.0,0.0,0.0,0.0,3.309,0.0,0.0,0.0,0.0,0.0,0.0,0.0,0.0,0.0,0.0,0.0,0.0,0.0,4.2534,4.7255,5.1331,5.4662,5.6746,5.5566,5.3306,5.0368,4.6552,4.3363,4.0678,3.8668,3.7964,3.804,3.917,3.9195,3.9823,4.2183,4.2707,4.3966,4.7135,5.0569,5.4838,6.0387,6.7794,7.2439,7.2439,7.3242,7.3446,7.2743,7.1334,7.0229,6.9677,6.8271,6.7141,6.6363,6.566,6.5032,6.4521,6.3952,6.34,6.2781,6.2781,6.2781,6.2781,6.2781,6.2781,6.2781,6.2781,6.2781,0.0,6.2781,6.2781,6.2756,6.2446,6.1842,6.1154,6.1006,5.936,5.7121,0.0,0.0,0.0,0.0,0.0,0.0,0.0,0.0,0.0,0.0,3.2659,3.3042,3.4212,3.2591,3.2215,0.0,0.0,0.0,0.0,0.0,0.0,0.0,0.0,0.0,0.0,3.309,3.3366,3.3897,3.4477,3.4778,3.4828,0.0,3.5029,3.3947,3.3947,3.3621,0.0,0.0,0.0,0.0,0.0,0.0,0.0,0.0,0.0,0.0,0.0,0.0,0.0,0.0,0.0,0.0,0.0,0.0,0.0,0.0,0.0,0.0,0.0,5.0017,5.2167,5.2553,5.0368,4.7461,4.4769,4.1781,0.0,3.7537,3.721,3.7587,3.8793,3.8492,3.8668,4.0474,4.1177,4.2457,4.5271,4.9264,5.3934,5.9332,6.4781,6.8045,6.7919,7.0807,7.2593,7.2517,7.0535,6.913,6.8648,6.7543,6.6438,6.5383,6.5283,6.4982,6.4446,6.3902,6.335,6.2781,6.2781,6.2781,6.2781,6.2781,6.2781,6.2781,6.2781,6.2781,6.2781,6.2781,6.2781,6.2781,6.2568,6.0858,5.8599,5.8882,5.7217,5.4582,0.0,0.0,0.0,0.0,0.0,0.0,0.0,0.0,0.0,0.0,3.1408,3.0632,3.0904,3.121,3.1607,0.0,0.0,0.0,0.0,0.0,0.0,0.0,0.0,0.0,0.0,3.2842,3.3366,3.3897,3.4853,3.5556,3.6008,3.6558,0.0,3.4502,3.4502,0.0,0.0,0.0,0.0,0.0,0.0,0.0,0.0,0.0,0.0,0.0,3.309,3.3796,0.0,0.0,0.0,0.0,0.0,0.0,0.0,0.0,3.7562,3.8718,4.0149,0.0,4.3761,4.2635,4.211,4.143,0.0,3.8969,3.8165,3.7386,3.721,3.7813,3.9772,3.932,3.9772,4.3084,4.3413,4.4192,4.6954,5.3607,5.9784,6.4053,6.8321,7.043,6.913,7.0861,7.1761,7.0953,6.9577,6.8703,6.8622,6.7166,6.6187,6.5936,6.5107,6.4446,6.3877,6.3324,6.2932,6.2781,6.2781,6.2781,6.2781,6.2781,6.2781,6.2781,6.2781,6.2781,6.2781,6.2781,6.2781,6.2568,6.0364,5.9362,5.8882,5.6758,5.4716,5.2976,0.0,0.0,0.0,0.0,0.0,0.0,0.0,0.0,0.0,0.0,0.0,0.0,0.0,0.0,0.0,0.0,0.0,0.0,0.0,0.0,0.0,0.0,0.0,0.0,0.0,3.2939,3.347,3.4274,3.5104,3.5932,0.0,0.0,0.0,0.0,3.4299,0.0,0.0,0.0,0.0,0.0,3.309,0.0,0.0,0.0,0.0,0.0,3.309,3.3796,0.0,3.4981,3.6006,3.7085,0.0,0.0,0.0,0.0,3.6808,3.7286,3.7286,3.9245,4.1102,4.0224,3.9848,3.9546,3.8919,3.799,3.7185,3.6884,3.6833,3.7361,3.9044,3.8668,3.9195,4.2532,4.3489,4.5472,5.0293,5.5942,6.1215,6.5584,6.8829,7.0786,7.0886,7.1309,7.1184,7.0376,6.8999,6.8145,6.7869,6.6513,6.5609,6.5358,6.4555,6.3977,6.3701,6.3124,6.2781,6.2781,6.2781,6.2781,6.2781,6.2781,6.2781,6.2781,6.2781,6.2781,6.2781,6.2781,6.2183,6.1027,5.9482,5.7755,5.5942,5.4391,5.2557,5.0803,0.0,0.0,0.0,0.0,0.0,0.0,0.0,0.0,0.0,0.0,0.0,0.0,0.0,0.0,0.0,0.0,0.0,0.0,0.0,0.0,0.0,0.0,0.0,0.0,3.309,3.309,3.3571,3.4577,3.5433,3.6384,0.0,0.0,3.7037,0.0,0.0,0.0,0.0,0.0,0.0,0.0,3.309,0.0,0.0,0.0,0.0,0.0,0.0,0.0,0.0,3.5332,3.651,3.7688,3.7235,0.0,0.0,0.0,0.0,0.0,3.6707,3.8994,4.1202,4.0675,3.9998,3.9396,3.922,3.7738,3.6405,3.6405,3.648,3.6934,3.8266,3.8191,3.8894,4.1729,4.3786,4.7481,5.4396,5.765,6.0925,6.5333,6.7925,7.0058,7.1811,7.1284,7.0631,7.0225,6.8698,6.7518,6.689,6.586,6.5007,6.4421,6.3927,6.3651,6.355,6.3073,6.2781,6.2781,6.2781,6.2781,6.2781,6.2781,6.2781,6.2781,6.2781,6.2731,6.2656,6.2404,6.1069,5.9103,5.8498,5.5834,5.2387,5.1982,5.0621,4.8913,0.0,0.0,0.0,0.0,0.0,0.0,0.0,0.0,0.0,0.0,0.0,0.0,0.0,0.0,0.0,0.0,0.0,0.0,0.0,0.0,0.0,0.0,0.0,3.309,3.309,3.309,3.3416,3.4022,3.6458,0.0,3.7914,3.9797,3.9094,3.6208,0.0,0.0,0.0,0.0,0.0,0.0,3.309,0.0,0.0,0.0,0.0,0.0,0.0,0.0,0.0,3.5483,3.6008,3.6632,3.6532,0.0,0.0,0.0,0.0,0.0,3.8115,3.9873,4.0625,3.7864,3.7688,3.8015,3.711,3.6632,3.6405,3.6405,3.6758,3.7839,4.0324,4.1128,4.2487,4.5693,4.8837,5.2678,5.8001,6.0738,6.2822,6.4572,6.7518,6.9155,6.8622,6.9205,6.9607,6.9531,6.8472,6.7342,6.6287,6.5634,6.4831,6.3852,6.3726,6.345,6.2932,6.2832,6.2781,6.2781,6.2781,6.2781,6.2781,6.2781,6.2781,6.2781,6.2781,6.2531,6.1983,6.0483,5.9362,5.827,5.4828,5.3036,5.2162,5.0185,4.9216,4.8913,0.0,0.0,0.0,0.0,0.0,0.0,0.0,0.0,0.0,0.0,0.0,0.0,0.0,0.0,0.0,0.0,0.0,0.0,0.0,0.0,0.0,0.0,3.3671,3.352,3.352,3.4098,3.5127,3.6607,3.8442,3.9823,4.0676,3.9898,3.8065,3.5431,0.0,3.3545,3.309,3.309,0.0,0.0,0.0,0.0,0.0,0.0,0.0,0.0,0.0,0.0,0.0,0.0,3.6558,3.721,3.6909,0.0,0.0,0.0,0.0,0.0,3.7336,3.8492,3.9295,3.8416,3.9446,4.0325,3.8919,3.8165,3.7914,3.8517,3.8567,3.9396,4.213,4.3388,4.5577,5.0368,5.3181,5.6093,5.9885,6.1542,6.3249,6.5602,6.7442,6.8823,6.9501,6.9456,6.928,6.8979,6.797,6.6865,6.5735,6.5132,6.4479,6.3726,6.34,6.3099,6.2781,6.2781,6.2781,6.2781,6.2781,6.2781,6.2781,6.2781,6.2781,6.2781,6.2781,6.1927,6.0503,5.9655,5.7701,5.5022,5.3108,5.1622,5.0368,4.9308,4.8913,4.8913,0.0,0.0,0.0,0.0,0.0,0.0,0.0,0.0,0.0,0.0,0.0,0.0,0.0,0.0,0.0,0.0,0.0,0.0,0.0,0.0,3.3467,3.4276,3.4173,3.4324,3.4851,3.5531,3.701,3.9271,4.0626,4.1932,4.314,3.9898,3.7211,3.5052,0.0,3.3341,3.3115,3.3241,3.3291,0.0,0.0,0.0,0.0,0.0,0.0,0.0,0.0,0.0,0.0,0.0,0.0,0.0,0.0,0.0,0.0,3.6833,3.6606,3.6658,3.706,3.7764,3.8617,3.9471,4.0953,4.2082,4.1605,4.0626,4.025,4.158,4.153,4.1957,4.4342,4.6225,4.9163,5.4522,5.6846,5.9031,6.1943,6.2697,6.4053,6.7015,6.7744,6.8698,7.0531,6.9828,6.8929,6.8296,6.7317,6.6237,6.4982,6.4572,6.4053,6.35,6.3007,6.2781,6.2781,6.2781,6.2781,6.2781,6.2781,6.2781,6.2781,6.2781,6.2781,6.2781,6.2116,6.0798,5.9032,5.7878,5.5305,5.2129,5.1591,5.0403,4.8913,4.8913,4.8913,4.8913,0.0,0.0,0.0,0.0,0.0,0.0,0.0,0.0,0.0,0.0,0.0,0.0,0.0,0.0,0.0,0.0,0.0,0.0,0.0,0.0,3.314,3.3215,3.4148,3.5581,3.7663,3.7287,3.8165,4.0374,4.2534,4.3614,4.3689,4.0877,3.8416,3.623,3.5102,3.4022,3.314,3.3621,3.3847,3.3897,0.0,0.0,0.0,0.0,0.0,0.0,0.0,0.0,0.0,0.0,0.0,0.0,0.0,0.0,3.7261,3.7185,3.716,3.7487,3.9044,3.9521,3.9597,3.9672,3.9823,4.0701,4.3636,4.3489,4.3316,4.5447,4.5874,4.62,4.738,5.0619,5.411,5.7173,5.9483,6.2019,6.5308,6.5785,6.6488,6.8296,6.8547,6.8779,6.9456,6.8979,6.8246,6.7166,6.6513,6.5484,6.3902,6.3776,6.3475,6.2857,6.2807,6.2781,6.2781,6.2781,6.2781,6.2781,6.2781,6.2781,6.2781,6.2781,6.2781,6.2675,6.0126,5.8825,5.8212,5.3578,5.1644,5.136,4.9292,4.8679,4.8913,4.8913,4.8913,4.8913,0.0,0.0,0.0,0.0,0.0,0.0,0.0,0.0,0.0,0.0,0.0,0.0,0.0,0.0,0.0,0.0,0.0,0.0,0.0,0.0,3.3416,3.4073,3.4477,3.5581,3.7462,3.8994,4.1028,4.3614,4.4794,4.4468,4.2738,3.9948,0.0,3.5303,3.455,3.4173,3.4098,3.3947,3.4299,3.4879,3.4753,0.0,0.0,0.0,0.0,0.0,0.0,0.0,0.0,0.0,3.6783,3.6859,3.6733,3.716,3.7638,3.7311,3.721,3.7361,3.7965,3.8894,3.9848,4.0524,4.148,4.266,4.4238,4.5372,4.6577,4.8485,4.9658,5.087,5.2302,5.4612,5.7097,5.9533,6.1833,6.4069,6.6338,6.6639,6.7015,6.7995,6.812,6.8196,6.8396,6.7919,6.7267,6.6488,6.5911,6.5032,6.3751,6.3701,6.3425,6.2807,6.2781,6.2781,6.2781,6.2781,6.2781,6.2781,6.2781,6.2781,6.2781,6.2781,6.1861,6.0167,5.9164,5.687,5.3771,5.2147,5.0661,4.9407,4.8862,4.8757,4.8913,4.8913,4.8913,4.8913,0.0,0.0,0.0,0.0,0.0,0.0,0.0,0.0,0.0,0.0,0.0,0.0,0.0,0.0,0.0,0.0,0.0,0.0,0.0,3.2989,3.3442,3.4173,3.4502,3.5481,3.716,3.9872,4.2406,4.4723,4.5598,4.4719,4.2162,0.0,0.0,0.0,3.5077,3.5077,3.5682,3.4977,3.5102,3.5732,3.5378,3.5454,0.0,0.0,0.0,0.0,0.0,0.0,0.0,0.0,3.6783,3.6934,3.6909,3.7387,3.7939,3.7563,3.7437,3.7436,3.7261,3.8039,3.917,4.0248,4.2183,4.4317,4.6276,4.7883,4.9741,5.2477,5.3658,5.4526,5.5691,5.6997,5.8554,6.0588,6.2923,6.5099,6.6739,6.6815,6.6965,6.7719,6.7643,6.7543,6.7543,6.7041,6.6388,6.5634,6.5082,6.4379,6.3475,6.3425,6.3249,6.2807,6.2647,6.2606,6.2781,6.243,6.243,6.2781,6.2606,6.2631,6.2781,6.2035,6.0649,5.8783,5.7209,5.4598,5.1442,5.0733,4.9517,4.8242,4.8737,4.8913,4.8913,4.8913,4.8913,4.8913,0.0,0.0,0.0,0.0,0.0,0.0,0.0,0.0,0.0,0.0,0.0,0.0,0.0,0.0,0.0,0.0,0.0,0.0,0.0,3.2788,3.309,3.309,3.4123,3.5479,3.7135,3.9847,4.1829,4.3014,4.4673,4.4346,4.2137,4.0477,0.0,0.0,3.716,3.7009,3.7914,3.6859,3.6405,3.6406,3.6381,3.6405,0.0,0.0,0.0,0.0,0.0,0.0,0.0,0.0,3.6833,3.6582,3.7663,3.8015,3.8015,3.8015,3.8015,3.7914,3.7337,3.7235,3.7512,3.8642,4.1404,4.5146,5.0167,5.1297,5.2738,5.7712,5.7826,5.701,5.7035,5.7524,5.8453,6.006,6.2647,6.5099,6.6783,6.6488,6.6538,6.7643,6.7292,6.6965,6.7009,6.6438,6.5634,6.4572,6.3977,6.345,6.2832,6.2781,6.2781,6.2781,6.2295,6.227,6.2756,6.1718,6.1743,6.2756,6.227,6.2255,6.27,6.0362,5.9264,5.8921,5.3888,5.1925,5.2102,4.8927,4.7832,4.8262,4.8737,4.8894,4.8913,4.8913,4.8913,4.8913,0.0,0.0,0.0,0.0,0.0,0.0,0.0,0.0,0.0,0.0,0.0,0.0,0.0,0.0,0.0,0.0,0.0,0.0,0.0,3.3014,3.309,3.309,3.3771,3.4374,3.4851,3.7563,4.0474,4.3564,4.4066,4.2788,3.9848,0.0,0.0,3.7185,0.0,0.0,3.7436,3.711,3.7185,3.7437,3.6708,3.6631,3.6959,0.0,0.0,0.0,0.0,0.0,0.0,0.0,0.0,0.0,3.7361,3.8517,3.9546,3.8366,3.8843,3.9471,3.814,3.8919,4.0349,4.1507,4.4572,4.8316,5.2101,5.298,5.4285,5.888,5.8981,5.8415,5.9168,5.9483,6.001,6.1291,6.3174,6.4949,6.6187,6.6212,6.6086,6.6036,6.5886,6.5634,6.53,6.5099,6.4722,6.3977,6.3776,6.345,6.2832,6.2781,6.2647,6.227,6.2094,6.1893,6.1667,6.1341,6.1341,6.1667,6.1492,6.106,6.0296,5.9326,5.691,5.3429,5.1592,4.9939,4.8488,4.7853,4.8008,4.8698,4.8476,4.864,4.8913,4.8913,4.8913,4.8913,0.0,0.0,0.0,0.0,0.0,0.0,0.0,0.0,0.0,0.0,0.0,0.0,0.0,0.0,0.0,0.0,0.0,0.0,0.0,0.0,3.309,3.309,3.3596,3.4299,3.5177,3.7487,3.9496,4.1178,4.2057,4.1254,0.0,0.0,3.9799,3.9095,0.0,4.0852,3.9472,3.9019,3.8768,3.8642,3.8191,3.809,3.8191,0.0,0.0,0.0,0.0,0.0,0.0,0.0,0.0,0.0,3.7135,3.8115,3.9044,3.8241,3.8718,3.9346,3.8567,3.9797,4.1779,4.3815,4.7054,5.0778,5.4511,5.6394,5.8152,6.1065,6.0964,6.0613,6.1492,6.1291,6.1366,6.2496,6.3676,6.4823,6.566,6.5584,6.5333,6.5007,6.4957,6.4873,6.4547,6.432,6.4028,6.3726,6.3475,6.3199,6.2807,6.2581,6.2345,6.2019,6.1567,6.1291,6.119,6.0738,6.0318,5.989,5.9629,5.8314,5.6066,5.6725,5.4839,5.1024,4.9813,4.8502,4.7207,4.748,4.7988,4.86,4.8125,4.8366,4.8855,4.8522,4.862,4.8874,0.0,0.0,0.0,0.0,0.0,0.0,0.0,0.0,0.0,0.0,0.0,0.0,0.0,0.0,0.0,0.0,0.0,0.0,0.0,0.0,3.3115,3.3165,3.3793,3.5077,3.716,3.8642,3.8693,3.721,3.9371,3.9848,0.0,0.0,4.2462,4.2989,0.0,4.3966,4.2685,4.1603,4.0524,3.9597,4.0199,4.0124,3.9622,3.9672,0.0,0.0,0.0,0.0,0.0,0.0,0.0,0.0,3.706,3.7286,3.7436,3.7814,3.804,3.8291,3.8944,4.0275,4.2306,4.5874,4.9414,5.313,5.7323,6.0663,6.2998,6.3324,6.3124,6.3007,6.3525,6.2772,6.2446,6.3525,6.4119,6.4622,6.5132,6.4823,6.4496,6.4446,6.4446,6.4421,6.4371,6.3877,6.3601,6.355,6.3099,6.2756,6.2706,6.227,6.1994,6.1943,6.0889,6.0419,6.0736,5.9712,5.86,5.7454,5.6875,5.463,5.105,5.3077,5.2777,5.0547,4.8444,4.7519,4.7519,4.7519,4.7773,4.8105,4.7695,4.8073,4.8698,4.7916,4.8112,4.8737,0.0,0.0,0.0,0.0,0.0,0.0,0.0,0.0,0.0,0.0,0.0,0.0,0.0,0.0,0.0,0.0,0.0,0.0,0.0,0.0,3.3291,3.3696,3.51,3.6281,3.7185,3.7135,3.7135,3.721,3.8994,0.0,0.0,0.0,0.0,4.2436,0.0,4.3714,4.1003,4.0325,3.9396,3.8442,3.9471,3.9546,3.912,3.9521,3.8642,0.0,0.0,0.0,0.0,0.0,0.0,0.0,3.716,3.7813,3.8391,3.7612,3.8291,3.9546,4.0524,4.1706,4.384,4.8937,5.4009,5.8328,6.0613,6.237,6.3048,6.1391,6.2345,6.34,6.3073,6.2781,6.2873,6.3576,6.3776,6.4053,6.4622,6.4572,6.4346,6.3902,6.3852,6.3676,6.3224,6.3073,6.2847,6.2395,6.2647,6.2606,6.2195,6.2069,6.1818,6.1366,6.0688,5.935,5.7317,5.7012,5.5926,5.3979,5.3824,5.2417,4.9931,5.0825,4.9792,4.7308,4.7135,4.707,4.707,4.707,4.7324,4.7676,4.7246,4.7383,4.7877,4.7656,4.774,4.7936,0.0,0.0,0.0,0.0,0.0,0.0,0.0,0.0,0.0,0.0,0.0,0.0,0.0,0.0,0.0,0.0,0.0,0.0,0.0,0.0,0.0,0.0,3.5127,3.5979,3.6808,3.6257,3.6107,0.0,0.0,0.0,0.0,0.0,0.0,4.4245,0.0,4.4568,4.1681,4.1379,4.0803,4.0125,4.1204,4.148,4.123,4.1004,3.9522,3.7513,3.7009,0.0,0.0,0.0,0.0,0.0,0.0,0.0,3.7688,3.7588,3.8391,3.9673,4.1279,4.3313,4.6502,5.2854,5.76,6.0989,6.2144,6.2847,6.2948,6.1728,6.2873,6.3902,6.335,6.345,6.3626,6.3676,6.3701,6.3776,6.4094,6.3852,6.3576,6.3299,6.3274,6.3149,6.2807,6.2781,6.2681,6.238,6.238,6.2295,6.2019,6.1492,6.1065,6.0788,5.9009,5.7373,5.5938,5.4854,5.3102,5.0691,5.1126,5.0167,4.8009,4.8319,4.7645,4.6308,4.6543,4.6621,4.6621,4.6621,4.6875,4.7226,4.6797,4.7012,4.7519,4.7129,4.7226,4.7617,0.0,0.0,0.0,0.0,0.0,0.0,0.0,0.0,0.0,0.0,0.0,0.0,0.0,0.0,0.0,0.0,0.0,0.0,0.0,0.0,0.0,0.0,3.4803,3.5328,3.638,3.5707,0.0,0.0,0.0,0.0,0.0,0.0,0.0,4.6446,0.0,4.5497,4.2989,4.2587,4.206,4.1557,4.2663,4.3037,4.2861,0.0,0.0,3.7739,3.6859,3.6884,3.7337,3.7462,0.0,0.0,0.0,0.0,3.6959,3.7663,3.824,3.9095,4.1306,4.4945,4.9708,5.6369,6.0035,6.2144,6.2656,6.2781,6.2781,6.2781,6.355,6.4053,6.3626,6.3902,6.4053,6.3626,6.355,6.355,6.355,6.3124,6.2781,6.2781,6.2781,6.2781,6.2781,6.2706,6.2606,6.2546,6.2119,6.1818,6.1718,6.0738,6.0004,5.9626,5.6885,5.5091,5.4356,5.2515,5.0281,4.7734,4.8522,4.7974,4.6191,4.6191,4.623,4.6308,4.6308,4.6308,4.6308,4.6308,4.6504,4.6733,4.6445,4.6738,4.7266,4.6562,4.6758,4.7363,0.0,0.0,0.0,0.0,0.0,0.0,0.0,0.0,0.0,0.0,3.3307,0.0,0.0,0.0,0.0,0.0,0.0,0.0,3.2265,0.0,0.0,3.4678,3.5132,3.5707,3.6405,3.5353,0.0,0.0,0.0,0.0,0.0,0.0,0.0,4.6973,0.0,0.0,4.2889,4.0927,3.9521,3.8668,3.9798,3.9948,3.9597,0.0,0.0,0.0,3.716,3.7437,3.7965,3.8492,3.8994,0.0,0.0,0.0,3.8391,3.7562,3.7337,3.7914,4.0124,4.6326,5.3171,5.7487,6.0311,6.2144,6.2656,6.2781,6.2781,6.2781,6.2907,6.3023,6.2907,6.2957,6.2982,6.2907,6.2907,6.2907,6.2907,6.2832,6.2781,6.2781,6.2781,6.2781,6.2781,6.2395,6.1918,6.1441,6.1341,6.1065,6.0563,5.996,5.878,5.6973,5.5547,5.303,4.9303,4.8975,4.7714,4.5424,4.598,4.6044,4.5762,4.5762,4.5957,4.6308,4.6308,4.6308,4.6308,4.6308,4.6328,4.6387,4.6328,4.6367,4.6465,4.6348,4.6367,4.6523,0.0,0.0,0.0,0.0,0.0,0.0,0.0,0.0,0.0,0.0,0.0,0.0,0.0,0.0,0.0,3.2453,3.2636,3.2981,3.3571,3.3508,3.3696,3.4248,3.4477,3.4853,3.5429,3.4675,0.0,0.0,0.0,0.0,0.0,4.3215,4.5095,0.0,0.0,0.0,0.0,4.143,4.0123,3.9421,3.9622,4.0125,0.0,0.0,0.0,0.0,0.0,0.0,3.814,3.9044,3.9321,3.9321,3.9672,0.0,0.0,0.0,3.7914,3.8969,4.2735,4.7807,5.3005,5.7223,5.9659,6.1366,6.2531,6.2781,6.2781,6.2781,6.2781,6.2781,6.2781,6.2531,6.2471,6.2731,6.2571,6.2471,6.2756,6.2781,6.2681,6.2395,6.2606,6.2531,6.1969,6.1969,6.1768,6.1215,6.0588,6.0136,5.9885,5.79,5.6401,5.5493,5.2394,4.988,4.7955,4.6741,4.5757,4.4977,4.498,4.5078,4.5312,4.5312,4.5547,4.5957,4.5957,4.6094,4.6308,4.6308,4.6308,4.6308,4.6308,4.6308,4.6308,4.6308,4.6308,4.6367,0.0,0.0,0.0,0.0,0.0,0.0,0.0,0.0,0.0,0.0,0.0,0.0,0.0,0.0,0.0,0.0,3.335,3.3604,3.4058,3.3458,3.3291,3.3671,3.3696,3.3947,3.4477,3.4123,0.0,0.0,0.0,0.0,4.3413,4.4116,4.6426,0.0,4.8008,4.6376,0.0,0.0,0.0,0.0,0.0,0.0,0.0,0.0,0.0,0.0,0.0,0.0,3.8567,3.9396,3.9521,3.9446,4.0249,3.9621,0.0,0.0,0.0,3.9647,4.4041,4.7682,5.1222,5.539,5.8177,6.0311,6.1803,6.238,6.2647,6.2756,6.2781,6.2781,6.2781,6.237,6.2144,6.2546,6.227,6.2094,6.237,6.248,6.2421,6.1868,6.2169,6.2094,6.1266,6.1416,6.1341,6.0788,5.9834,5.9232,5.9106,5.6168,5.4262,5.3733,4.9548,4.706,4.6554,4.4874,4.4336,4.4863,4.4551,4.457,4.4863,4.4863,4.5098,4.5508,4.5625,4.5918,4.6308,4.6308,4.6308,4.6308,4.6308,4.6308,4.6308,4.6308,4.6308,4.6348,0.0,0.0,0.0,0.0,0.0,0.0,0.0,0.0,0.0,0.0,0.0,0.0,0.0,3.4139,3.2699,3.4183,3.2162,3.1251,3.2273,3.281,3.3115,3.314,3.314,0.0,3.3922,3.3922,0.0,0.0,0.0,0.0,4.4539,4.5673,4.8786,5.3331,5.0619,4.9088,4.8265,0.0,0.0,0.0,0.0,0.0,0.0,0.0,0.0,0.0,0.0,0.0,3.9622,3.9672,4.0023,4.0424,4.0474,4.0424,4.0174,0.0,0.0,0.0,4.1607,4.4794,4.8127,5.1548,5.5616,5.9056,6.0186,6.1291,6.2195,6.2681,6.2781,6.2781,6.2781,6.237,6.2019,6.2044,6.2019,6.1843,6.1341,6.1718,6.1843,6.1291,6.124,6.124,6.119,6.0713,6.0186,5.9633,5.9081,5.8529,5.8001,5.5415,5.3062,5.1086,4.7949,4.5344,4.3369,4.3226,4.3574,4.4433,4.4414,4.4414,4.4433,4.4433,4.4668,4.5035,4.5508,4.5918,4.6308,4.6308,4.6308,4.6308,4.6308,4.6308,4.6308,4.6308,4.6308,4.6308,0.0,0.0,0.0,0.0,0.0,0.0,0.0,0.0,0.0,0.0,0.0,0.0,0.0,3.3914,3.2907,3.3865,3.2885,3.2675,3.3716,3.3344,3.309,3.309,3.3442,3.3696,3.3897,3.4248,0.0,0.0,0.0,3.9044,4.3614,4.5095,4.8058,5.2076,5.0368,4.949,4.9012,4.4597,0.0,0.0,0.0,0.0,0.0,0.0,0.0,0.0,4.0049,4.0275,4.0876,4.1982,4.1729,4.1076,4.1455,4.0827,3.9848,3.912,3.8743,3.9019,4.1078,4.3011,4.5447,4.949,5.2503,5.4938,5.6746,5.883,6.0362,6.0172,6.1316,6.2195,6.1843,6.1617,6.1592,6.1943,6.1391,6.0989,6.1165,6.1366,6.1266,6.0688,6.0638,6.0362,5.9659,5.9408,5.9056,5.8504,5.7951,5.7361,5.6846,5.3096,5.0436,4.9352,4.5705,4.338,4.2656,4.293,4.3283,4.3555,4.3828,4.3945,4.3945,4.3945,4.4336,4.4996,4.5195,4.5664,4.6308,4.6308,4.6308,4.6308,4.6308,4.6308,4.6308,4.6308,4.6308,4.6308,0.0,0.0,0.0,0.0,0.0,0.0,0.0,0.0,0.0,0.0,0.0,0.0,0.0,0.0,3.2763,3.3151,3.314,3.3487,3.4359,3.3594,3.3266,3.3621,3.3796,3.4073,3.4427,0.0,0.0,0.0,0.0,0.0,0.0,4.4895,4.7832,5.1498,4.9992,5.0042,0.0,0.0,0.0,4.4396,0.0,0.0,4.2055,0.0,4.1854,4.3009,4.3212,4.3134,4.3059,4.3614,4.2936,4.1854,4.1882,0.0,0.0,0.0,3.917,3.9396,4.0474,4.1731,4.3693,4.7757,4.9615,5.1297,5.4637,5.652,5.7775,5.8554,5.9885,6.0964,6.114,6.0864,6.0788,6.1341,6.0663,6.0111,6.0337,6.0512,6.0337,5.9583,5.9508,5.9232,5.8504,5.8453,5.8127,5.7399,5.6352,5.5436,5.4695,5.0474,4.7515,4.6292,4.3633,4.2207,4.2207,4.25,4.2715,4.2871,4.3301,4.3496,4.3496,4.3633,4.4121,4.4824,4.4824,4.5391,4.6308,4.6308,4.6308,4.6308,4.6308,4.6308,4.6308,4.6308,4.6308,4.6308,0.0,0.0,0.0,0.0,0.0,0.0,0.0,0.0,0.0,0.0,0.0,0.0,0.0,0.0,0.0,3.2294,3.2817,3.3391,3.3897,3.3442,3.3596,3.4653,3.4223,3.4427,3.5483,0.0,0.0,0.0,0.0,0.0,0.0,0.0,4.8234,5.185,4.9741,5.0904,5.422,5.0845,4.949,4.9188,4.4245,4.2964,4.4192,4.6271,4.6772,4.6602,4.8209,4.7782,4.6175,4.4568,4.3614,4.2939,4.1704,0.0,0.0,0.0,0.0,0.0,0.0,0.0,0.0,4.6145,4.6973,4.8403,5.3858,5.4285,5.4461,5.7838,5.8554,5.9106,6.0738,6.0161,5.9608,6.0136,5.9809,5.9282,5.8742,5.9131,5.9056,5.8027,5.7876,5.7876,5.7851,5.7851,5.7374,5.6244,5.4361,5.2798,5.1628,4.7743,4.4416,4.1876,4.1777,4.1777,4.1777,4.1816,4.2012,4.2382,4.2871,4.3127,4.3086,4.3516,4.3965,4.4394,4.4394,4.5117,4.6269,4.6289,4.6289,4.6308,4.6308,4.6308,4.6308,4.6308,4.6308,4.6308,0.0,0.0,0.0,0.0,0.0,0.0,0.0,0.0,0.0,0.0,0.0,0.0,0.0,0.0,0.0,3.4603,3.4753,3.4728,3.4477,3.4327,3.4377,3.4678,3.4929,3.5182,3.5483,0.0,0.0,0.0,0.0,0.0,0.0,0.0,0.0,0.0,4.8937,4.9773,5.0175,4.6828,4.7255,4.9816,4.5623,4.5573,4.7883,4.6903,4.7179,4.824,4.9063,4.9339,4.9264,4.9213,4.8033,4.5999,4.2939,0.0,0.0,0.0,0.0,0.0,4.03,0.0,0.0,0.0,0.0,0.0,4.7606,4.8887,5.0343,5.3306,5.4888,5.6093,5.7349,5.8001,5.8252,5.7939,5.8466,5.8755,5.8202,5.8252,5.8227,5.7926,5.7524,5.7085,5.6721,5.6671,5.6219,5.5125,5.3546,5.2188,5.1104,4.6889,4.3536,4.1426,4.1387,4.1387,4.1387,4.1953,4.2148,4.1992,4.3027,4.3379,4.3086,4.3516,4.3965,4.4394,4.4394,4.4766,4.541,4.5723,4.6035,4.6308,4.6308,4.6308,4.6308,4.6308,4.6308,4.6308,0.0,0.0,0.0,0.0,0.0,0.0,0.0,0.0,0.0,0.0,0.0,0.0,0.0,0.0,0.0,0.0,3.5508,3.5357,3.5054,3.4828,3.4904,3.5378,3.5705,3.5983,3.6208,0.0,0.0,0.0,0.0,0.0,0.0,0.0,0.0,0.0,0.0,0.0,0.0,4.374,4.5397,4.9866,4.7606,4.841,5.0921,5.0318,5.0845,5.2,5.3005,5.3306,5.308,5.2503,5.0494,4.7581,4.3743,0.0,0.0,0.0,0.0,0.0,0.0,0.0,0.0,4.3115,0.0,0.0,4.5246,4.5849,4.6778,5.0042,5.1507,5.2738,5.4511,5.539,5.5792,5.563,5.6394,5.7047,5.7173,5.7198,5.7022,5.657,5.642,5.6118,5.5566,5.5516,5.4816,5.3146,5.147,4.9428,4.6928,4.4319,4.2388,4.125,4.1211,4.1211,4.1211,4.166,4.1875,4.1816,4.2558,4.2969,4.3127,4.334,4.3691,4.4101,4.4101,4.4355,4.4805,4.5234,4.5664,4.6055,4.623,4.6308,4.6308,4.6308,4.6308,4.6308,0.0,0.0,0.0,0.0,0.0,0.0,0.0,0.0,0.0,0.0,0.0,0.0,0.0,0.0,0.0,0.0,3.5834,3.5734,3.5608,3.5155,0.0,0.0,0.0,0.0,0.0,0.0,0.0,0.0,0.0,0.0,0.0,0.0,0.0,0.0,0.0,0.0,0.0,4.2005,4.4292,4.9238,4.9439,5.1071,5.3497,5.5013,5.5942,5.6696,5.8227,5.8102,5.6835,5.4486,5.1624,4.8416,4.4647,4.394,4.4012,4.1578,4.158,0.0,0.0,0.0,0.0,0.0,4.3112,0.0,4.5095,4.4317,4.3944,4.7587,4.8291,4.9063,5.1741,5.2393,5.2678,5.3005,5.3758,5.4723,5.5867,5.6018,5.5666,5.4723,5.5024,5.5089,5.4547,5.4369,5.3277,5.0902,4.8699,4.5637,4.1405,4.1211,4.1211,4.1211,4.1211,4.1211,4.1211,4.125,4.1406,4.1738,4.1816,4.2246,4.297,4.2988,4.3203,4.3574,4.3613,4.3867,4.4297,4.4766,4.5234,4.5766,4.6133,4.6308,4.6308,4.6308,4.6308,4.6308,0.0,0.0,0.0,0.0,0.0,0.0,0.0,0.0,0.0,0.0,0.0,0.0,0.0,0.0,0.0,0.0,0.0,3.7161,0.0,0.0,0.0,0.0,0.0,0.0,0.0,0.0,0.0,3.6557,3.6984,3.7462,0.0,0.0,0.0,0.0,0.0,0.0,4.2105,4.4238,4.5874,4.7079,4.841,5.1875,5.6232,5.6559,5.7311,5.829,5.9056,5.893,5.7888,5.4762,5.2402,5.0268,4.7255,4.5246,4.3865,4.3313,4.3313,0.0,0.0,0.0,0.0,4.4217,4.3937,0.0,4.3115,4.2663,4.2939,4.4995,4.507,4.5472,4.7801,4.9307,4.9992,4.9163,5.1021,5.313,5.4697,5.4924,5.4848,5.4622,5.4697,5.4522,5.3934,5.2859,5.1621,5.027,4.6854,4.3805,4.1327,4.1211,4.1211,4.1211,4.1211,4.1211,4.1211,4.1504,4.1543,4.1308,4.1973,4.2207,4.2051,4.2402,4.2598,4.2655,4.3047,4.3242,4.3398,4.4199,4.498,4.5766,4.6133,4.6308,4.6308,4.6308,4.6308,4.6308,0.0,0.0,0.0,0.0,0.0,0.0,0.0,0.0,0.0,0.0,0.0,0.0,0.0,0.0,0.0,0.0,0.0,0.0,0.0,0.0,0.0,0.0,0.0,0.0,0.0,0.0,0.0,3.8039,3.8039,3.7914,3.7613,0.0,0.0,0.0,0.0,4.065,4.1001,4.2682,4.4665,4.6923,4.9741,5.3005,5.6294,5.7148,5.829,5.9583,6.0136,5.9809,5.8604,5.5265,5.3617,5.2361,4.8987,4.7556,4.6828,4.5447,4.5045,4.4995,4.4665,4.4815,4.4995,4.4719,4.4217,0.0,0.0,4.1758,4.1833,4.3463,4.2936,4.2908,4.5392,4.61,4.6476,4.7029,4.8284,4.9891,5.1825,5.3316,5.4034,5.3783,5.3984,5.3909,5.3356,5.1795,4.9751,4.7257,4.4323,4.2234,4.125,4.1211,4.1211,4.1211,4.1211,4.1211,4.1211,4.1387,4.1484,4.1484,4.1699,4.1914,4.2109,4.2109,4.2226,4.2401,4.2656,4.2871,4.3166,4.3789,4.457,4.5391,4.582,4.6113,4.6308,4.6308,4.6308,4.6308,3.3215,0.0,0.0,0.0,0.0,0.0,0.0,0.0,0.0,0.0,0.0,0.0,0.0,0.0,0.0,0.0,0.0,0.0,0.0,0.0,0.0,0.0,0.0,3.8291,0.0,0.0,0.0,3.9371,3.907,3.8441,3.7562,3.9346,3.9848,3.922,3.9546,4.0224,4.1153,4.1153,4.3561,4.7726,5.1314,5.3758,5.544,5.7349,5.8855,6.0085,6.0763,6.0437,5.9156,5.5968,5.4999,5.4421,5.0627,4.9866,4.9959,4.7757,4.6954,4.6627,4.5894,4.5794,4.5924,4.5949,4.5049,4.3818,0.0,0.0,0.0,4.2308,4.1354,4.1078,4.336,4.3187,4.3187,4.4769,4.5673,4.6702,4.8259,5.0845,5.2553,5.2418,5.2528,5.2628,5.2719,5.0581,4.7771,4.4377,4.215,4.1035,4.1211,4.1211,4.1211,4.1211,4.1211,4.1211,4.1211,4.1211,4.1348,4.168,4.1367,4.1523,4.2168,4.1836,4.1855,4.2187,4.2226,4.25,4.2911,4.3379,4.4062,4.4824,4.5449,4.5937,4.6308,4.6308,4.6308,4.6201,3.3215,3.352,0.0,0.0,0.0,0.0,0.0,0.0,0.0,0.0,0.0,0.0,0.0,0.0,0.0,0.0,0.0,0.0,4.0049,0.0,0.0,0.0,0.0,0.0,3.8291,0.0,0.0,0.0,3.8668,3.8818,3.8718,3.8969,3.9521,4.03,3.9873,4.1078,4.3438,4.3438,4.5422,4.8843,5.1222,5.3181,5.4974,5.7625,5.873,5.9044,6.0035,6.0337,5.9784,5.6972,5.6308,5.6132,5.2779,5.1122,5.0336,5.0042,4.9264,4.8718,4.9515,5.0142,5.0067,4.8134,4.7883,4.7235,4.3718,0.0,4.2361,4.1053,0.0,4.0023,4.08,0.0,0.0,4.0551,4.3338,4.5321,4.4568,4.6828,4.9088,5.0511,4.9439,4.9515,5.195,4.8565,4.5598,4.4201,4.1588,4.0371,4.1172,4.1211,4.1211,4.1211,4.1211,4.1211,4.1211,4.1211,4.123,4.1289,4.123,4.1269,4.1308,4.1308,4.1308,4.1387,4.1699,4.1894,4.2012,4.2812,4.3418,4.3984,4.5195,4.5937,4.6308,4.6308,4.6308,4.5983,3.314,3.3771,0.0,0.0,0.0,0.0,0.0,0.0,0.0,0.0,0.0,0.0,4.7311,4.5497,4.469,0.0,4.3159,4.153,4.1907,4.065,0.0,0.0,3.9898,3.9973,0.0,0.0,0.0,0.0,3.9396,3.9195,3.8894,3.922,4.0125,4.1456,4.0902,4.2331,4.5246,4.5246,4.6426,4.8485,5.1071,5.2327,5.3115,5.6821,5.883,5.9633,5.9784,5.9834,5.9508,5.7361,5.6584,5.6194,5.416,5.2779,5.1766,5.1498,5.0368,4.9339,4.9816,5.0117,4.9992,4.8736,4.8109,4.7129,4.4518,4.3215,4.2411,4.2032,0.0,0.0,0.0,0.0,0.0,0.0,4.1756,4.266,4.2838,4.3288,4.507,4.8987,4.8284,4.757,4.7913,4.551,4.3269,4.1769,4.0104,3.918,3.9277,4.0254,4.0801,4.0801,4.1035,4.1211,4.1211,4.1211,4.1211,4.1211,4.1211,4.1211,4.1211,4.1211,4.1211,4.123,4.1367,4.1562,4.1855,4.2461,4.3105,4.3789,4.4609,4.5351,4.5937,4.5937,4.6094,4.5939,3.3316,0.0,0.0,0.0,0.0,0.0,0.0,0.0,0.0,4.5121,4.6552,4.7933,4.9088,4.7883,4.7506,4.878,4.6476,4.4819,4.4597,4.2961,4.2233,4.2763,4.1381,4.1329,4.2861,4.1229,0.0,0.0,3.9898,3.9748,3.9798,3.9873,4.0953,4.2838,4.2381,4.4062,4.723,4.738,4.841,5.0142,5.2176,5.313,5.3632,5.6545,5.8579,5.9859,5.9583,5.9408,5.9106,5.7863,5.7186,5.6671,5.5415,5.426,5.3256,5.2703,5.1473,5.0318,5.0469,5.0393,5.0117,4.9389,4.8159,4.6697,4.5167,4.3815,4.2939,4.319,4.2484,0.0,0.0,0.0,4.0927,0.0,0.0,4.1128,4.1658,4.1153,4.2333,4.6708,4.7154,4.6545,4.5039,4.3422,4.1772,3.9943,3.8532,3.7676,3.7578,3.8967,3.9922,4.0156,4.0586,4.0917,4.0996,4.0996,4.1055,4.1211,4.1211,4.1211,4.1211,4.1211,4.1211,4.1211,4.1211,4.1406,4.1816,4.2129,4.2754,4.3574,4.3906,4.457,4.5351,4.5586,4.5449,4.4781,3.3872,3.4301,0.0,0.0,3.6081,3.7763,3.9446,4.0675,4.2181,4.4338,4.5618,4.738,5.0067,4.9364,5.0024,5.3206,4.9992,4.8008,4.8592,4.5522,4.3263,4.2288,4.2663,4.2185,4.0625,4.1607,4.1331,3.9722,3.9697,4.0527,4.2087,4.0978,4.1904,4.4514,4.4489,4.6376,4.9515,5.0067,5.2176,5.5164,5.5239,5.657,5.834,5.7387,5.7738,5.883,5.9332,5.9182,5.8691,5.8641,5.8616,5.8315,5.6671,5.539,5.4446,5.3833,5.2879,5.2151,5.2644,5.2427,5.1749,5.0645,4.8705,4.6798,4.5723,4.4995,4.4364,4.389,4.4593,4.5171,4.4614,4.4066,0.0,0.0,0.0,0.0,0.0,4.0976,4.1754,4.3039,4.5522,4.6458,4.4753,4.3175,4.1473,3.9738,3.7059,3.5859,3.6695,3.7539,3.8379,3.9219,3.9687,4.0137,4.0508,4.0508,4.0762,4.1211,4.1211,4.1211,4.1211,4.1211,4.1211,4.1211,4.1211,4.1406,4.1797,4.1816,4.2324,4.3105,4.3146,4.3652,4.4531,4.5371,4.4176,4.1851,0.0,0.0,0.0,3.5305,3.6031,3.7487,3.9873,4.208,4.4665,4.8002,4.9113,5.1071,5.4938,5.4361,5.4461,5.6319,5.426,5.2628,5.2076,4.9967,4.8586,4.824,4.6928,4.5974,4.5422,4.4342,4.3162,4.1884,4.1153,4.143,4.2713,4.1984,4.3087,4.5748,4.5748,4.738,5.0218,5.1523,5.2528,5.3381,5.5214,5.7047,5.8755,5.9043,5.9207,5.9257,5.9433,5.9382,5.9232,5.9232,5.9006,5.8554,5.7625,5.6545,5.5541,5.4988,5.4034,5.3281,5.3858,5.3884,5.3416,5.19,5.0419,4.8705,4.6527,4.5874,4.5443,4.4514,4.5518,4.6145,4.484,0.0,0.0,0.0,0.0,0.0,0.0,3.9823,4.0124,4.1229,4.3137,4.3639,4.1737,4.0161,3.8362,3.6116,3.4295,3.3547,3.4082,3.6016,3.748,3.8284,3.9629,4.0234,4.0098,4.0664,4.0879,4.0742,4.1035,4.1211,4.1211,4.1211,4.1211,4.1211,4.1211,4.1289,4.1406,4.168,4.2129,4.2676,4.2969,4.3437,4.3876,4.3096,4.2502,4.1515,3.6133,3.6408,3.6507,3.5931,3.6784,3.824,4.0199,4.3689,4.7079,4.9766,5.1649,5.4059,5.7524,5.7575,5.7826,5.8956,5.7876,5.6319,5.4436,5.3155,5.2034,5.1021,4.9766,4.8736,4.7933,4.6728,4.5271,4.3564,4.2833,4.3134,4.4443,4.3316,4.4116,4.6597,4.7004,4.8184,5.0017,5.2879,5.3849,5.3808,5.657,5.8202,5.9106,5.9946,5.9859,5.9257,5.9433,5.9382,5.9257,5.9433,5.9282,5.8905,5.8353,5.7549,5.6696,5.6143,5.5189,5.4436,5.4988,5.4712,5.4094,5.3206,5.185,5.0218,4.8234,4.7933,4.7757,4.6627,4.7581,4.8159,4.6652,4.5869,0.0,0.0,0.0,0.0,0.0,3.9396,3.9522,4.04,4.1806,4.1787,3.9371,3.8326,3.6375,3.2991,3.1946,3.1749,3.2305,3.4355,3.6113,3.7441,3.8848,3.9687,3.9902,4.0273,4.0566,4.0762,4.0879,4.1035,4.1211,4.1211,4.1211,4.1211,4.1211,4.1289,4.1406,4.1523,4.1914,4.2421,4.2734,4.3105,4.3286,4.1794,4.0482,3.8981,3.7361,3.7311,3.721,3.6683,3.8316,3.9923,4.0549,4.5221,4.8969,4.9741,5.3155,5.6194,5.8001,5.9106,6.0186,6.124,6.0839,5.9156,5.5917,5.5225,5.3683,5.0913,5.1297,5.0544,4.8335,4.8686,4.7606,4.4916,4.4765,4.5543,4.7149,4.4995,4.5095,4.7149,4.8335,4.8843,4.912,5.4034,5.6194,5.652,5.9232,5.9985,5.9558,6.0111,5.962,5.8792,5.9282,5.9131,5.8805,5.9282,5.9433,5.9332,5.8855,5.8328,5.775,5.7186,5.6294,5.5541,5.6093,5.5064,5.3959,5.4522,5.3014,5.1247,5.0594,5.0921,5.0996,4.9841,5.0494,5.0921,4.9741,4.8153,0.0,0.0,0.0,0.0,0.0,3.9697,3.9898,4.045,4.1378,4.0801,3.7801,3.7582,3.5547,3.0511,3.0117,3.0488,3.1406,3.2676,3.4375,3.6577,3.748,3.8574,3.9844,3.9453,3.9883,4.1172,4.0723,4.0762,4.1211,4.1211,4.1211,4.1211,4.1211,4.1406,4.1738,4.1387,4.166,4.2362,4.2382,4.2574,4.2611,4.1256,3.8191,3.4445,3.7914,3.8793,3.9622,3.9471,3.9597,4.0425,4.2635,4.5221,4.846,5.2763,5.5616,5.8529,6.1843,6.2797,6.3341,6.3642,6.3516,6.2521,6.0437,5.9784,5.8629,5.6671,5.5881,5.4913,5.3507,5.1599,5.0293,4.9565,4.7079,4.6728,4.8309,4.6928,4.6547,4.7174,4.9138,4.954,4.9069,5.324,5.5942,5.7625,5.9558,5.9985,5.9558,6.0111,5.9885,5.9257,5.9006,5.883,5.8691,5.888,5.8654,5.8353,5.8629,5.8014,5.7286,5.76,5.6872,5.6118,5.6634,5.6219,5.5516,5.5239,5.411,5.2729,5.1373,5.1498,5.1448,4.9916,5.0494,5.067,4.8711,4.733,4.5799,0.0,0.0,0.0,3.9823,3.9697,3.9898,4.045,3.9531,3.8098,3.6238,3.5738,3.3819,2.9538,2.8965,2.9297,3.0469,3.207,3.3809,3.5664,3.7461,3.8711,3.9375,3.9609,4.0039,4.0684,4.0586,4.0762,4.1211,4.1211,4.1211,4.1211,4.1211,4.1269,4.1367,4.125,4.1484,4.1992,4.2265,4.0775,3.8408,3.8513,3.5828,3.2137,3.922,4.0651,4.2108,4.261,4.2836,4.3539,4.5321,4.7657,5.0494,5.412,5.7386,5.9985,6.1667,6.3466,6.4496,6.4496,6.4496,6.3717,6.1768,6.1818,6.104,5.9131,5.8453,5.7374,5.5792,5.3758,5.216,5.0896,4.8284,4.7606,4.8768,4.7154,4.6396,4.6502,4.8711,4.9088,4.8335,5.2738,5.5993,5.8328,5.8981,5.9357,0.0,5.9583,5.9558,5.9433,5.8905,5.8691,5.8691,5.8691,5.8504,5.8353,5.888,5.8629,5.8177,5.8504,5.7801,5.7072,5.7587,5.6821,5.5842,5.5767,5.4913,5.3783,5.2603,5.2578,5.2477,5.1297,5.1373,5.1021,4.9012,4.7556,4.5698,4.2735,0.0,0.0,3.9772,3.9697,3.9798,4.0124,3.8761,3.7016,3.5034,3.4075,3.2206,2.8881,2.8594,2.9043,3.0137,3.1484,3.3105,3.5019,3.6816,3.8027,3.8633,3.9473,3.9902,3.9941,4.0332,4.0644,4.0898,4.1132,4.1211,4.1211,4.1211,4.1211,4.1211,4.1211,4.1348,4.1503,4.1069,3.8641,3.5367,3.5974,3.3986,3.1102,4.0927,4.261,4.4468,4.5522,4.6697,4.7877,4.8937,5.1523,5.3808,5.5074,5.8994,6.1266,6.0362,6.2898,6.4722,6.4722,6.4722,6.3868,6.1843,6.2546,6.2144,6.0136,5.991,5.8855,5.6796,5.539,5.3406,5.0845,4.8862,4.8134,4.8542,4.6527,4.5547,4.5602,4.7813,4.841,4.8052,5.2553,5.5968,5.8315,5.8027,5.8504,5.9332,5.8805,5.893,5.9332,5.8805,5.8616,5.8666,5.8591,5.8516,5.8541,5.9031,5.9131,5.9081,5.9156,5.8453,5.7801,5.8315,5.7022,5.5591,5.6018,5.539,5.4547,5.3858,5.3708,5.3557,5.2995,5.2443,5.1599,4.9916,4.8008,4.5459,4.1706,4.0743,4.0219,3.9303,3.9383,3.9487,3.9513,3.829,0.0,3.4325,3.2835,3.0994,2.8493,2.8633,2.918,2.998,3.0918,3.2363,3.4394,3.584,3.7051,3.7972,3.9199,3.9687,3.9473,4.0176,4.0508,4.0625,4.0996,4.1211,4.1211,4.1211,4.1211,4.1211,4.1211,4.1074,4.072,3.8856,3.622,3.3485,3.3692,3.2514,3.0929,4.2484,4.4342,4.6075,4.6697,4.8479,5.1063,5.4827,5.5505,5.6369,5.8378,6.1692,6.4019,6.4254,6.5208,6.5835,6.5835,6.5835,6.5459,6.463,6.4329,6.3827,6.2998,6.2069,6.0939,5.9595,5.6746,5.4561,5.313,4.9615,4.7732,4.7375,4.6552,4.5924,4.5602,4.7813,4.969,5.1348,5.3105,5.4938,5.6721,5.7549,5.8278,5.8805,5.8252,5.8378,5.878,5.8227,5.8328,5.8616,5.8202,5.7725,5.7311,5.7387,5.7111,5.6872,5.7286,5.6985,5.662,5.7136,5.6684,5.5993,5.5616,5.539,5.4963,5.3934,5.3708,5.3557,5.2995,5.2443,5.1599,4.9916,4.6728,4.344,4.0544,4.0321,3.9578,3.692,3.7606,3.8419,3.8524,3.6438,3.4925,3.4661,3.3149,3.1107,2.8486,2.8359,2.8613,2.9094,3.0312,3.166,3.3086,3.5078,3.6894,3.8437,3.9043,3.9824,4.0859,4.0625,4.0703,4.1055,4.1172,4.1211,4.1211,4.1211,4.1211,4.1211,4.1211,4.0479,3.901,3.5006,3.3596,3.3531,3.1948,3.1253,3.1196,4.5321,4.6401,4.7581,4.9038,5.1348,5.411,5.7374,5.9357,6.0563,6.0763,6.2697,6.4178,6.4429,6.5961,6.6865,6.6589,6.6564,6.6212,6.5358,6.5032,6.4697,6.417,6.3324,6.222,6.0788,5.7801,5.5415,5.3708,4.9816,4.7481,0.0,4.5819,4.4995,4.4321,4.6502,4.9364,5.2578,5.308,5.4551,5.6634,5.6922,5.77,5.8591,5.7775,5.7801,5.8252,5.8001,5.8077,5.8303,5.8328,5.8127,5.7914,5.8227,5.7951,5.7575,5.7788,5.7261,5.6659,5.6935,5.6219,5.529,5.5074,5.4536,5.3959,5.3432,5.3306,5.3196,5.2945,5.2669,5.1925,4.9967,4.738,4.4516,4.1492,4.0732,3.9535,3.6674,3.6866,3.7252,3.7082,3.546,3.4186,3.3622,3.2086,3.0354,2.8432,2.8496,2.8711,2.8879,2.9941,3.123,3.2754,3.4687,3.6191,3.7246,3.9004,3.9746,3.9492,4.043,4.0859,4.084,4.1074,4.1211,4.1211,4.1211,4.1211,4.1094,3.9943,3.7837,3.5087,3.3068,3.2077,3.1716,3.1034,3.0982,3.1276,4.846,4.8987,4.9816,5.195,5.4511,5.6972,5.9056,6.231,6.4119,6.3023,6.3751,6.4429,6.4555,6.6488,6.7618,6.7191,6.7084,6.6632,6.571,6.5308,6.4931,6.4521,6.3852,6.2847,6.1391,5.8629,5.6032,5.3708,5.0042,4.7481,4.5924,4.5141,4.4418,4.3793,4.5773,4.8755,5.2393,5.287,5.4526,5.6809,5.6646,5.7424,5.8604,5.7437,5.7474,5.8052,5.7801,5.7876,5.8127,5.8453,5.8415,5.8365,5.8704,5.8529,5.8177,5.8177,5.7512,5.6835,5.6835,5.5917,5.4898,5.4672,5.3909,5.3206,5.2945,5.2895,5.2895,5.2895,5.2795,5.2117,5.0142,4.851,4.6333,4.2855,4.1448,3.9697,3.6585,3.6696,3.6693,3.5559,3.5104,3.4261,3.256,3.1063,2.9668,2.8398,2.8594,2.8828,2.8879,2.9648,3.0781,3.2344,3.416,3.541,3.5982,3.8828,3.9648,3.846,4.0312,4.0996,4.0664,4.1016,4.1211,4.1211,4.1211,4.0919,4.0314,3.8152,3.5103,3.1893,3.1693,3.0957,3.0154,3.0621,3.1022,3.1356,5.1272,5.2503,5.3708,5.544,5.76,5.9684,6.1441,6.3274,6.4823,6.5609,6.6287,6.6865,6.7367,6.7643,6.7769,6.7719,6.7267,6.694,6.6858,6.5426,6.4572,6.4496,6.3475,6.2596,6.1943,5.9232,5.647,5.3708,5.0845,4.7832,4.4765,4.5221,4.5623,4.605,4.723,4.8837,5.0762,5.2779,5.4662,5.6369,5.7349,5.8127,5.8604,5.7437,5.7663,5.8466,5.7437,5.7738,5.8579,5.8127,5.7625,5.7085,5.6671,5.6495,5.6445,5.6445,5.6369,5.6294,5.6294,5.6168,5.5817,5.4848,5.4522,5.4195,5.3155,5.2895,5.2895,5.2895,5.2494,5.18,5.0536,4.9389,4.7414,4.363,4.2055,3.9773,3.5318,3.7049,3.7561,3.4286,3.5501,3.5471,3.2665,3.1063,2.9668,2.8398,2.832,2.8516,2.8879,2.9375,3.0106,3.1035,3.3105,3.4785,3.5982,3.8223,3.9648,4.0255,4.0879,4.1191,4.1152,4.1191,4.1211,4.1211,4.1211,4.006,3.8015,3.5863,3.3912,3.2035,3.0075,2.9891,3.0715,3.0768,3.1142,3.1684,5.4336,5.4913,5.5842,5.7826,5.9483,6.119,6.3174,6.4605,6.5735,6.6538,6.684,6.7191,6.7744,6.7794,6.7668,6.7342,6.7091,6.684,6.6488,6.5509,6.4957,6.4957,6.3927,6.3249,6.3023,6.0286,5.7826,5.5655,5.2603,4.9741,4.7104,4.6326,4.6451,4.7305,4.8083,4.9715,5.1967,5.3206,5.4863,5.6709,5.7198,5.7725,5.8152,5.7311,5.706,5.7148,5.6659,5.6821,5.7223,5.7311,5.7449,5.7499,5.7298,5.6972,5.6659,5.6659,5.6433,5.6143,5.5817,5.5465,5.5039,5.4235,5.3808,5.3457,5.2995,5.2895,5.2895,5.2895,5.2719,5.2352,5.1574,5.0519,4.8286,4.3782,4.2083,3.9573,3.4554,3.5117,3.5242,3.3054,3.3286,3.3074,3.1626,3.0249,2.9551,2.9824,2.8887,2.8359,2.8535,2.9434,3.0351,3.123,3.334,3.4961,3.5982,3.7891,3.9121,3.9746,4.0449,4.0918,4.1211,4.1211,4.1211,4.1211,4.1211,3.9216,3.5903,3.5056,3.299,3.0248,2.9336,2.9495,3.0314,3.0662,3.0942,3.1196,5.7424,5.7675,5.8378,6.0563,6.1743,6.2923,6.4521,6.5509,6.6262,6.6664,6.6714,6.699,6.7719,6.7794,6.7643,6.7267,6.7109,6.6815,6.6388,6.5534,6.5057,6.5057,6.4028,6.345,6.345,6.1165,5.9257,5.7713,5.4762,5.2101,4.9748,4.8058,4.7757,4.8686,4.9414,5.1021,5.3171,5.4084,5.5541,5.7286,5.7587,5.7901,5.8077,5.7499,5.7047,5.6671,5.6319,5.6319,5.6458,5.6684,5.7072,5.7424,5.76,5.7211,5.6759,5.6759,5.652,5.6093,5.5541,5.5214,5.4873,5.3934,5.3557,5.3331,5.297,5.2895,5.2895,5.2895,5.2895,5.2669,5.2,5.0738,4.8574,4.483,4.2263,3.9334,3.5252,3.5032,3.4477,3.2259,3.2425,3.2286,3.1192,2.9883,2.9492,3.0458,2.9383,2.8828,2.9219,2.9726,3.0469,3.1484,3.334,3.4805,3.582,3.7656,3.8848,3.9414,4.0293,4.0879,4.1211,4.1211,4.1211,4.1211,4.1211,3.8724,3.4692,3.4692,3.2464,2.9001,2.9001,2.9415,3.0114,3.0608,3.0849,3.0996,6.0588,6.1115,6.1858,6.4069,6.4923,6.5258,6.5283,6.576,6.6112,6.6112,6.6112,6.6538,6.7668,6.7794,6.7794,6.7794,6.7292,6.7009,6.7009,6.5451,6.4521,6.4521,6.3425,6.2807,6.2807,6.1743,6.0613,5.9458,5.7248,5.4762,5.2026,5.0343,4.9841,5.0444,5.1574,5.2678,5.3808,5.5465,5.6846,5.7976,5.9031,5.9156,5.8654,5.8102,5.7876,5.7725,5.662,5.6533,5.691,5.6394,5.6219,5.6319,5.6835,5.6634,5.6219,5.6219,5.6219,5.6093,5.5541,5.5792,5.5792,5.411,5.4135,5.4295,5.3146,5.2895,5.2895,5.2895,5.2895,5.2544,5.1498,4.9762,4.8199,4.7215,4.2742,3.9022,3.791,3.7935,3.6412,3.2026,3.3895,3.45,3.1761,3.0332,2.9598,2.9618,2.9598,3.0117,3.1377,3.0273,3.0204,3.1455,3.2773,3.4062,3.5391,3.7555,3.9023,3.9902,4.08,4.1211,4.1211,4.1211,4.1211,4.1211,4.1211,3.8724,3.4692,3.4692,3.2464,2.9001,2.9001,2.9579,3.044,3.0688,3.0969,3.1263,6.2647,6.3475,6.4203,6.4906,6.5484,6.586,6.586,6.6338,6.6564,6.6162,6.6789,6.7116,6.6689,6.6639,6.6639,6.6639,6.6488,6.6388,6.6388,6.5534,6.4856,6.4521,6.3802,6.3224,6.2807,6.2119,6.119,6.006,5.8629,5.6495,5.3818,5.3607,5.3432,5.3306,5.4411,5.5315,5.6006,5.6972,5.7775,5.8504,5.883,5.8855,5.8666,5.8529,5.7976,5.7236,5.686,5.6609,5.6458,5.6659,5.6483,5.6319,5.6835,5.6358,5.5641,5.5641,5.539,5.4963,5.4386,5.4361,5.4285,5.3406,5.3306,5.3356,5.297,5.2895,5.2895,5.2895,5.2895,5.2301,5.0283,4.9136,4.7155,4.3059,4.07,3.8435,3.5674,3.5067,3.4258,3.2581,3.2942,3.2924,3.2053,3.1309,3.1016,3.1358,3.083,3.0391,3.0195,3.0644,3.1484,3.2742,3.4082,3.5391,3.668,3.7949,3.906,3.9902,4.0469,4.0879,4.1211,4.1211,4.1211,4.1133,3.961,3.7339,3.457,3.3063,3.1097,2.9001,2.9001,2.9415,3.0114,3.0608,3.0849,3.1009,6.4178,6.4831,6.5434,6.5835,6.6212,6.6513,6.6714,6.6865,6.6915,6.6764,6.7191,6.7292,6.6789,6.6739,6.6589,6.6137,6.6112,6.6112,6.6112,6.5584,6.5132,6.4823,6.432,6.3802,6.345,6.2923,6.2295,6.1592,6.006,5.8227,5.6143,5.647,5.6344,5.5903,5.6746,5.7311,5.7663,5.8052,5.8529,5.8929,5.8094,5.7636,5.7362,5.6561,5.5631,5.4961,5.5809,5.5852,5.5756,5.6675,5.6759,5.6508,5.6634,5.6118,5.544,5.5641,5.52,5.4522,5.4135,5.4034,5.3858,5.3071,5.3046,5.3146,5.2945,5.2895,5.2895,5.2895,5.2327,5.1223,4.9347,4.7539,4.5214,4.1649,3.9584,3.7616,3.5404,3.4274,3.3379,3.2656,3.2492,3.2433,3.2433,3.2168,3.2051,3.2198,3.1846,3.1289,3.0615,3.1328,3.2344,3.3633,3.4785,3.5996,3.7285,3.8301,3.918,3.9902,4.0488,4.0918,4.1211,4.1211,4.0763,3.9864,3.8508,3.6184,3.3349,3.197,3.0437,2.9001,2.9001,2.9348,2.998,3.0448,3.0702,3.0862,6.5233,6.5383,6.576,6.684,6.699,6.7141,6.7668,6.7342,6.7216,6.7668,6.7392,6.7317,6.7744,6.7819,6.7392,6.6262,6.6162,6.6162,6.6162,6.566,6.5308,6.5233,6.4773,6.4471,6.4396,6.3877,6.3626,6.3626,6.1492,5.9935,5.8917,5.888,5.8617,5.8152,5.8654,5.8765,5.865,5.865,5.8823,5.8887,5.6893,5.5746,5.5074,5.2984,5.1859,5.1675,5.3654,5.4358,5.4574,5.6039,5.6638,5.6662,5.6149,5.5708,5.5491,5.5968,5.534,5.4522,5.4496,5.4496,5.4245,5.3146,5.3281,5.3507,5.2995,5.2895,5.2861,5.2732,5.1268,4.9617,4.834,4.5172,4.2635,4.2269,3.9067,3.6567,3.6477,3.505,3.3567,3.2374,3.2648,3.2891,3.2891,3.291,3.2785,3.2355,3.2687,3.2695,3.2316,3.2433,3.3039,3.4212,3.5059,3.6133,3.7422,3.8633,3.9492,4.0,4.082,4.1211,4.1211,4.1211,3.9982,3.7896,3.7737,3.5298,3.1407,3.1241,3.0311,2.9001,2.9001,2.9348,2.9953,3.0319,3.0614,3.0835,6.581,6.6287,6.6789,6.7493,6.7267,6.7059,6.7141,6.7417,6.7493,6.7216,6.817,6.8597,6.7869,6.817,6.797,6.6865,6.6764,6.6764,6.6764,6.6237,6.5534,6.4748,6.4572,6.4078,6.3224,6.3099,6.2982,6.2982,6.2069,6.1466,6.1215,6.0788,6.0512,6.0412,6.0537,5.9628,5.7927,5.7927,5.6804,5.4976,5.4763,5.4418,5.3987,5.3449,5.2887,5.235,5.2194,5.2121,5.2048,5.1745,5.2917,5.4399,5.397,5.4562,5.534,5.5074,5.4461,5.3808,5.3406,5.3306,5.3256,5.297,5.2995,5.3046,5.292,5.2895,5.2491,5.0998,5.0304,4.8813,4.4856,4.3141,4.1406,3.856,3.6731,3.5361,3.4322,3.3564,3.2988,3.2676,3.3352,3.3801,3.3801,3.4062,3.4062,3.3684,3.3743,3.3574,3.3144,3.4707,3.5586,3.5566,3.6406,3.7461,3.873,3.9394,4.0117,4.0879,4.1113,4.1211,4.1211,4.1211,3.9982,3.7816,3.6161,3.392,3.1283,2.9607,2.8953,2.9001,2.9001,2.9348,2.998,3.0501,3.0742,3.0862,6.6061,6.6363,6.6764,6.7317,6.7392,6.7442,6.7693,6.797,6.817,6.812,6.8628,6.8904,6.8597,6.8553,6.8396,6.7769,6.7267,6.6865,6.6589,6.6287,6.5835,6.5258,6.5208,6.4831,6.3977,6.3701,6.3324,6.2781,6.248,6.1817,6.0801,6.1559,6.0668,5.843,5.9504,5.8533,5.61,5.61,5.5253,5.3809,5.3012,5.2453,5.1934,5.0932,5.0229,4.9829,5.0384,5.0542,5.0556,5.0863,5.1849,5.3052,5.3634,5.4162,5.4697,5.5213,5.4737,5.4034,5.3758,5.3482,5.2998,5.1866,5.2223,5.2421,5.0611,5.0893,5.0998,4.9045,4.7904,4.6373,4.3355,4.1699,3.9919,3.7143,3.5815,3.4687,3.3542,3.3066,3.2949,3.334,3.3965,3.4512,3.4922,3.5351,3.5351,3.4759,3.4844,3.4766,3.4336,3.5996,3.666,3.6001,3.7422,3.8496,3.9199,3.9844,4.0508,4.1211,4.1211,4.1211,4.1172,4.0138,3.8508,3.6322,3.4124,3.1928,2.9857,2.867,2.854,2.9001,2.9001,2.9348,2.9953,3.0274,3.0568,3.0835,6.6237,6.6312,6.6538,6.7116,6.7285,6.7513,6.7986,6.7677,6.76,6.8069,6.7797,6.7723,6.8193,6.7822,6.7526,6.7427,6.6557,6.6073,6.6244,6.6162,6.6061,6.5986,6.5542,6.5071,6.4566,6.3655,6.2744,6.1746,6.1746,6.0719,5.8842,6.0827,5.941,5.5229,5.719,5.6537,5.3919,5.3919,5.3661,5.3145,5.1344,5.0326,4.9694,4.78,4.6855,4.6728,4.846,4.9083,4.9298,5.0589,5.1281,5.1849,5.3125,5.3452,5.3669,5.525,5.4913,5.4061,5.4369,5.4009,5.2979,5.0601,5.1233,5.1478,4.7854,4.8325,4.8974,4.6955,4.5239,4.3727,4.2569,4.0519,3.8476,3.6871,3.541,3.4219,3.3406,3.3066,3.3184,3.4016,3.4668,3.5391,3.6099,3.666,3.6714,3.6016,3.6172,3.6172,3.5898,3.7031,3.7305,3.6426,3.8301,3.9336,3.9394,4.0215,4.0801,4.1211,4.1211,4.1055,4.0646,3.8764,3.6562,3.4083,3.2217,3.0176,2.8179,2.8179,2.847,2.8935,2.8975,2.9322,2.986,2.9953,3.0327,3.0795,6.6739,6.7216,6.7719,6.8271,6.6644,6.5303,6.5375,6.3526,6.2121,6.2212,6.2556,6.2807,6.2875,6.283,6.2601,6.2143,6.162,6.291,6.6604,6.6388,6.5911,6.5434,6.3093,6.1528,6.1,5.8546,5.7165,5.6962,5.6962,5.6789,5.6443,5.6789,5.6528,5.5767,5.6091,5.4916,5.269,5.269,5.1322,4.9127,4.9207,4.8926,4.8486,4.8144,4.7754,4.733,4.6938,4.6793,4.6718,4.6248,4.7521,4.9235,4.8734,4.9982,5.1906,5.3233,5.2468,5.1593,5.3362,5.3457,5.2556,5.0505,5.0233,4.9855,4.7504,4.7248,4.6919,4.494,4.4323,4.3335,4.0791,3.9126,3.764,3.6348,3.4707,3.3457,3.2969,3.3144,3.3516,3.4055,3.5742,3.6953,3.709,3.7812,3.8415,3.8594,3.8008,3.7754,3.8102,3.8984,3.9082,3.8203,3.9219,3.9961,4.0274,4.082,4.1152,4.1211,4.1211,4.0217,3.839,3.8054,3.5702,3.1887,3.1557,3.0176,2.8179,2.8179,2.8393,2.8698,2.8895,2.9245,2.9606,3.0145,3.0547,3.0822,6.251,6.296,6.3341,6.3578,6.3106,6.2732,6.2732,6.19,6.1343,6.1343,6.1544,6.1701,6.1701,6.1455,6.1096,6.0626,6.0111,6.0591,6.2447,6.2321,6.1942,6.1441,6.017,5.9087,5.8325,5.6736,5.5879,5.5879,5.5879,5.5224,5.4036,5.5312,5.4566,5.2207,5.3416,5.2679,5.053,5.053,4.9745,4.8555,4.8516,4.8242,4.7851,4.7617,4.7266,4.6836,4.6445,4.6308,4.625,4.584,4.6468,4.7581,4.84,4.9253,5.0317,5.2065,5.187,5.1158,5.1228,5.0657,4.961,4.7631,4.7948,4.788,4.4612,4.4699,4.4902,4.2922,4.2522,4.2012,4.0228,3.9004,3.793,3.6875,3.5059,3.3789,3.3809,3.3789,3.4199,3.5365,3.6758,3.791,3.8633,3.9062,3.9258,3.9199,3.8828,3.8691,3.8906,3.9531,3.9824,3.9629,4.0019,4.0449,4.0879,4.1074,4.1211,4.1211,4.1211,4.0021,3.7856,3.6682,3.4449,3.1366,3.0176,2.9118,2.8179,2.8179,2.8366,2.8631,2.8881,2.9219,2.9539,2.9967,3.0408,3.0808,5.8925,5.9371,5.9727,5.9727,5.9991,6.0184,6.0184,6.0057,5.9908,5.9908,5.9908,5.9908,5.9908,5.9473,5.906,5.8739,5.8104,5.7557,5.7256,5.7126,5.7375,5.8075,5.7354,5.6304,5.4935,5.4475,5.4257,5.4257,5.4213,5.3282,5.1622,5.3437,5.2321,4.8986,5.0803,5.0575,4.8913,4.8913,4.8913,4.8874,4.8379,4.8008,4.7676,4.7246,4.6816,4.6445,4.6445,4.6387,4.6308,4.6308,4.6308,4.6575,4.8168,4.8475,4.8607,5.058,5.0816,5.025,4.9213,4.8734,4.7962,4.5341,4.6231,4.6574,4.22,4.235,4.2999,4.1502,4.1211,4.0976,4.0176,3.9316,3.8418,3.7461,3.5742,3.4609,3.4824,3.4746,3.5287,3.6777,3.7812,3.8828,3.9941,4.0137,4.0039,3.9687,3.9668,3.9668,3.9668,4.0,4.0332,4.0664,4.0684,4.084,4.1211,4.1211,4.1211,4.1172,4.0685,3.9295,3.7082,3.4935,3.2751,3.0551,2.8922,2.8179,2.8179,2.8179,2.8366,2.8631,2.8881,2.9219,2.9526,2.9806,3.0287,3.0795,5.9393,6.0154,6.0803,6.0803,5.9296,5.8091,5.8091,5.6101,5.4564,5.4564,5.4564,5.4564,5.4564,5.42,5.3923,5.3884,5.3133,5.264,5.26,5.2205,5.3793,5.7894,5.5157,5.2271,4.9532,4.9446,4.9426,4.9426,4.938,4.9308,4.917,4.9335,4.9216,4.8894,4.9078,4.9078,4.8913,4.8913,4.8913,4.8874,4.8379,4.8183,4.8105,4.7695,4.7266,4.6831,4.6831,4.6641,4.6308,4.6308,4.6308,4.6274,4.6056,4.6217,4.6725,4.8004,4.7803,4.7307,4.815,4.9709,5.0081,4.577,4.6328,4.6708,4.2239,4.1327,4.1346,4.1211,4.1211,4.1035,4.0566,3.9746,3.875,3.75,3.6504,3.5742,3.5391,3.603,3.6816,3.7734,3.8965,3.9941,4.0391,4.084,4.1093,4.1074,4.1074,4.1074,4.1074,4.1093,4.1132,4.1172,4.1172,4.1191,4.1211,4.1211,4.1211,4.1172,3.9119,3.7002,3.4854,3.2653,3.0468,2.8431,2.8263,2.8179,2.8179,2.8179,2.8366,2.8631,2.8881,2.9219,2.9526,2.9806,3.0287,3.0795,5.4869,5.5612,5.6231,5.6231,5.5796,5.5487,5.5487,5.4666,5.3972,5.3972,5.3972,5.3972,5.3972,5.3887,5.3555,5.3008,5.2656,5.2246,5.1719,5.1475,5.194,5.3137,5.1707,5.0298,4.8913,4.8913,4.8913,4.8913,4.8913,4.8913,4.8913,4.8913,4.8913,4.8913,4.8913,4.8913,4.8913,4.8913,4.8913,4.8855,4.8105,4.7969,4.8105,4.7148,4.6855,4.6889,4.6889,4.666,4.6348,4.6601,4.6523,4.6269,4.6113,4.6172,4.6346,4.6533,4.6167,4.5711,4.5861,4.6064,4.5775,4.3752,4.3887,4.3898,4.1698,4.1211,4.1211,4.1211,4.1211,4.1074,4.0605,4.0039,3.9473,3.8984,3.7949,3.7289,3.7695,3.7848,3.8184,3.9043,3.9824,4.0449,4.0879,4.1113,4.1211,4.1211,4.1211,4.1211,4.1211,4.1211,4.1211,4.1211,4.1211,4.1211,4.1211,4.1211,4.1211,4.1172,3.8961,3.6762,3.4611,3.2422,3.0218,2.8179,2.8179,2.8179,2.8179,2.8179,2.8366,2.8631,2.8881,2.9219,2.9526,2.9806,3.0287,3.0795,5.253,5.3066,5.3574,5.3574,5.3945,5.4238,5.4238,5.4355,5.4433,5.4433,5.4433,5.4375,5.4238,5.3984,5.3516,5.2773,5.2461,5.2051,5.1416,5.1377,5.1055,5.0262,4.9766,4.9316,4.8913,4.8913,4.8913,4.8913,4.8913,4.8913,4.8913,4.8913,4.8913,4.8913,4.8913,4.8913,4.8913,4.8913,4.8913,4.8835,4.8066,4.7949,4.8086,4.6933,4.668,4.6889,4.6889,4.6738,4.6543,4.6792,4.6738,4.6484,4.6348,4.6308,4.625,4.5957,4.5566,4.5137,4.4707,4.4062,4.3359,4.2773,4.312,4.3201,4.1719,4.1367,4.1328,4.125,4.1211,4.1074,4.0781,4.0488,4.0215,3.9941,3.9238,3.8811,3.916,3.9199,3.9414,4.0019,4.0469,4.084,4.1191,4.1211,4.1211,4.1211,4.1211,4.1211,4.1211,4.1211,4.1211,4.1211,4.1211,4.1211,4.1211,4.1211,4.1211,4.1172,3.8271,3.6121,3.4611,3.1722,2.9565,2.8179,2.8179,2.8179,2.8192,2.8286,2.847,2.8735,2.9015,2.9366,2.9646,2.9847,3.0287,3.0795,5.341,5.3711,5.3972,5.3992,5.4394,5.4668,5.4687,5.5039,5.5293,5.5293,5.5293,5.5137,5.4726,5.3937,5.3183,5.2754,5.1933,5.1397,5.1377,5.1377,5.1055,5.0215,4.9766,4.9336,4.8933,4.8913,4.8913,4.8913,4.8913,4.8913,4.8913,4.8913,4.8913,4.8913,4.8913,4.8913,4.8913,4.8913,4.8913,4.8874,4.8379,4.8203,4.8125,4.7266,4.6889,4.6889,4.6889,4.6889,4.6889,4.6889,4.6889,4.6855,4.6426,4.6308,4.6308,4.6308,4.6016,4.5586,4.5137,4.4726,4.418,4.3301,4.4663,4.541,4.2487,4.1797,4.168,4.1308,4.1211,4.1211,4.1211,4.1211,4.0937,4.0039,4.0254,4.0215,3.9336,3.998,4.0489,4.0489,4.0918,4.1211,4.1211,4.1211,4.1211,4.1211,4.1211,4.1211,4.1211,4.1211,4.1211,4.1211,4.1211,4.1211,4.1211,4.1211,4.1172,4.1133,3.6762,3.4692,3.453,3.0191,2.8179,2.8179,2.8179,2.8179,2.8205,2.8484,2.8778,2.9028,2.9366,2.9659,2.9913,2.9913,3.0287,3.0795,5.291,5.3516,5.4121,5.4433,5.4336,5.4336,5.4629,5.4531,5.4414,5.4414,5.4414,5.4355,5.4238,5.3984,5.3535,5.2773,5.248,5.207,5.1416,5.1377,5.1191,5.0644,5.0488,5.0215,4.9832,4.9492,4.9336,4.9336,4.907,4.8913,4.8913,4.8913,4.8913,4.8913,4.8913,4.8913,4.8913,4.8913,4.8913,4.8874,4.8379,4.8398,4.862,4.7715,4.7578,4.7832,4.7832,4.7441,4.6928,4.7285,4.6992,4.6465,4.6348,4.6308,4.6308,4.6308,4.6016,4.5586,4.5137,4.4726,4.418,4.3301,4.3574,4.3698,4.2483,4.2246,4.2207,4.207,4.1816,4.1621,4.1621,4.1367,4.1094,4.084,4.0898,4.0879,4.0625,4.082,4.0976,4.0976,4.1094,4.1211,4.1211,4.1211,4.1211,4.1211,4.1211,4.1211,4.1211,4.1211,4.1211,4.1211,4.1211,4.1211,4.1211,4.1211,4.0431,3.8843,3.604,3.3879,3.2299,2.9495,2.8179,2.8179,2.8179,2.8179,2.8205,2.8484,2.8778,2.9028,2.9366,2.9659,2.9913,2.9913,3.0287,3.0795,5.3223,5.3672,5.4121,5.4375,5.4492,5.457,5.4668,5.4746,5.4675,5.4551,5.4531,5.4473,5.4297,5.4141,5.3672,5.2793,5.2402,5.1992,5.1416,5.1377,5.126,5.1055,5.1055,5.0781,5.0195,4.9922,4.9707,4.9484,4.9258,4.907,4.8913,4.8913,4.8913,4.8913,4.8913,4.8913,4.8913,4.8913,4.8913,4.8874,4.8574,4.8659,4.8835,4.8086,4.7891,4.7949,4.7949,4.7519,4.6928,4.7226,4.6875,4.6308,4.6308,4.6308,4.6308,4.6308,4.6113,4.5801,4.5195,4.4844,4.4433,4.3555,4.332,4.3203,4.2773,4.2695,4.2637,4.2421,4.2226,4.1992,4.1836,4.1601,4.1406,4.125,4.1211,4.1211,4.1211,4.1211,4.1211,4.1211,4.1211,4.1211,4.1211,4.1211,4.1211,4.1211,4.1211,4.1211,4.1211,4.1211,4.1211,4.1211,4.1211,4.1211,4.1211,4.0353,3.9198,3.7856,3.5719,3.3553,3.1309,2.916,2.8179,2.8179,2.8179,2.8259,2.8393,2.8657,2.8951,2.9245,2.9539,2.9766,2.9913,2.9913,3.0287,3.0795,5.3972,5.405,5.4109,5.4148,5.4824,5.5176,5.4805,5.5351,5.5664,5.5254,5.5195,5.5039,5.4668,5.4277,5.3691,5.2832,5.1992,5.1416,5.1377,5.1377,5.1377,5.1377,5.1377,5.1074,5.0312,5.0254,5.0019,4.9543,4.9504,4.9297,4.8913,4.8913,4.8913,4.8913,4.8913,4.8913,4.8913,4.8913,4.8913,4.8913,4.8913,4.8913,4.8855,4.8418,4.8027,4.774,4.774,4.7383,4.6928,4.685,4.6621,4.6308,4.6308,4.6308,4.6308,4.6308,4.6308,4.6133,4.5312,4.5016,4.4782,4.3984,4.373,4.3594,4.3223,4.3125,4.3027,4.2577,4.25,4.2363,4.1992,4.1855,4.168,4.1289,4.123,4.1211,4.1211,4.1211,4.1211,4.1211,4.1211,4.1211,4.1211,4.1211,4.1211,4.1211,4.1211,4.1211,4.1211,4.1211,4.1211,4.1211,4.1211,4.1094,4.0919,3.8922,3.7816,3.7578,3.542,3.3227,3.1034,2.9076,2.8179,2.8179,2.8179,2.8366,2.8631,2.8881,2.9219,2.9513,2.9806,2.9913,2.9913,2.9913,3.0287,3.0795,5.3972,5.457,5.5137,5.5416,5.541,5.5273,5.5195,5.5039,5.4805,5.4355,5.4265,5.4277,5.418,5.4031,5.3808,5.3262,5.2441,5.1797,5.1397,5.1377,5.1377,5.1377,5.1377,5.1299,5.1172,5.084,5.0469,5.0039,4.9687,4.9297,4.8913,4.8913,4.8913,4.8913,4.8913,4.8913,4.8913,4.8913,4.8913,4.8913,4.8913,4.8913,4.8894,4.8796,4.8698,4.862,4.862,4.8086,4.7344,4.666,4.6367,4.6308,4.6308,4.6308,4.6308,4.6308,4.6308,4.6191,4.5683,4.5293,4.4902,4.4375,4.3984,4.3691,4.3594,4.3574,4.3535,4.3457,4.3164,4.291,4.2812,4.2246,4.1777,4.168,4.1387,4.1211,4.1211,4.1211,4.1211,4.1211,4.1211,4.1211,4.1211,4.1211,4.1211,4.1211,4.1211,4.1211,4.1211,4.1211,4.1211,4.1211,4.1211,4.0353,3.8627,3.8134,3.7042,3.5379,3.3186,3.0993,2.888,2.8431,2.8179,2.8179,2.8179,2.8366,2.8631,2.8881,2.9219,2.9513,2.9806,2.9913,2.9913,2.9913,3.0287,3.0862,5.4336,5.4863,5.5371,5.5605,5.5449,5.5234,5.5039,5.4824,5.4531,5.4031,5.3972,5.3972,5.3972,5.3972,5.3848,5.3449,5.2754,5.2207,5.1777,5.1738,5.1641,5.1397,5.1377,5.1377,5.1377,5.1162,5.0898,5.0469,5.0254,4.9805,4.918,4.918,4.9062,4.8913,4.8913,4.8913,4.8913,4.8913,4.8913,4.8913,4.8913,4.8913,4.8913,4.8913,4.8776,4.8516,4.8366,4.774,4.6894,4.6445,4.6308,4.6308,4.6308,4.6308,4.6308,4.6308,4.6152,4.5957,4.5785,4.5215,4.4668,4.4453,4.4043,4.3711,4.3711,4.3711,4.3711,4.3711,4.3535,4.3262,4.2832,4.2402,4.1973,4.1562,4.1348,4.1211,4.1211,4.1211,4.1211,4.1211,4.1211,4.1211,4.1211,4.1211,4.1211,4.1211,4.1211,4.1211,4.1211,4.1211,4.1211,4.1211,4.1211,4.0138,3.7935,3.6882,3.5258,3.3104,3.197,3.026,2.8179,2.8179,2.8179,2.8179,2.8179,2.8433,2.8788,2.8935,2.9255,2.97,2.986,2.9913,2.9913,2.9913,3.0207,3.0675,5.4785,5.5117,5.5449,5.5508,5.5527,5.5351,5.4863,5.4785,5.4609,5.4101,5.3972,5.3972,5.3972,5.3972,5.3848,5.3449,5.2969,5.2539,5.2109,5.2012,5.1816,5.1397,5.1377,5.1377,5.1377,5.1377,5.1182,5.0801,5.0801,5.0371,4.9484,4.9484,4.9297,4.8913,4.8913,4.8913,4.8913,4.8913,4.8913,4.8913,4.8913,4.8913,4.8913,4.8913,4.8679,4.8262,4.7832,4.7129,4.6406,4.6328,4.6308,4.6308,4.6308,4.6308,4.6308,4.6308,4.6016,4.5727,4.5727,4.5098,4.4492,4.4414,4.4101,4.3808,4.373,4.3711,4.3711,4.3711,4.3711,4.3457,4.2676,4.244,4.2168,4.1406,4.125,4.1211,4.1211,4.1211,4.1211,4.1211,4.1211,4.1211,4.1211,4.1211,4.1211,4.1211,4.1211,4.1211,4.1211,4.1211,4.1211,4.1211,4.0841,3.957,3.7379,3.5218,3.3053,3.0915,3.0915,2.9984,2.8272,2.8312,2.8312,2.8272,2.8312,2.8577,2.9001,2.9055,2.9432,2.9913,2.9913,2.9913,2.9927,2.9967,3.0154,3.0493,5.5215,5.5566,5.5976,5.6348,5.6406,5.6152,5.5351,5.5215,5.4941,5.4141,5.3972,5.3972,5.3972,5.3972,5.3848,5.3449,5.2969,5.2539,5.2109,5.1719,5.1484,5.1377,5.1377,5.1377,5.1377,5.1377,5.1182,5.0801,5.0801,5.0371,4.9484,4.9484,4.9297,4.8913,4.8913,4.8913,4.8913,4.8913,4.8913,4.8913,4.8913,4.8913,4.8913,4.8913,4.8874,4.8757,4.8281,4.7578,4.6797,4.6426,4.6308,4.6308,4.6308,4.6308,4.6308,4.6308,4.6016,4.5727,4.5727,4.5312,4.4863,4.4492,4.4355,4.4199,4.3789,4.3711,4.3711,4.3711,4.3711,4.3555,4.3086,4.2676,4.2226,4.1797,4.1406,4.1211,4.1211,4.1211,4.1211,4.1211,4.1211,4.1211,4.1211,4.1211,4.1211,4.1211,4.1211,4.1211,4.1211,4.1211,4.1211,4.1211,3.9335,3.7299,3.5137,3.294,3.089,2.8994,2.8994,2.8836,2.8551,2.8804,2.8778,2.8564,2.8804,2.8921,2.9015,2.9312,2.9619,2.9913,2.9913,2.9913,2.994,3.0253,3.0373,3.0493,5.5351,5.584,5.6289,5.623,5.623,5.6094,5.5703,5.5254,5.4824,5.4433,5.418,5.3972,5.3972,5.3972,5.3945,5.375,5.332,5.2891,5.2461,5.2031,5.168,5.1397,5.1377,5.1377,5.1377,5.1377,5.1299,5.1152,5.1152,5.0723,4.9883,4.9883,4.9531,4.8913,4.8913,4.8913,4.8913,4.8913,4.8913,4.8913,4.8913,4.8913,4.8913,4.8913,4.8913,4.8815,4.8105,4.7305,4.6562,4.6367,4.6308,4.6308,4.6308,4.6308,4.6308,4.6308,4.584,4.5371,4.5605,4.5,4.4355,4.4668,4.4375,4.4023,4.4082,4.3887,4.3633,4.3398,4.3359,4.3223,4.2793,4.2363,4.2012,4.1836,4.1445,4.1211,4.1211,4.1211,4.1211,4.1211,4.1211,4.1211,4.1211,4.1211,4.1211,4.1211,4.1211,4.1211,4.1211,4.1211,4.0646,3.9413,3.8429,3.6264,3.2899,3.1887,3.0373,2.8393,2.8524,2.8604,2.8604,2.8738,2.8724,2.8617,2.8751,2.8978,2.9299,2.9432,2.9659,2.9913,2.9913,2.9913,2.9927,3.006,3.0114,3.0194]},{"header":{"parameterUnit":"m.s-1","parameterCategory":1,"la1":30.6,"la2":28.766,"lo1":-90.7593,"lo2":-88.6598,"dy":0.0162,"dx":0.0183,"nx":116,"ny":114,"refTime":"2023-11-10T06:00:00:Z","depth":0,"parameterNumber":3,"parameterNumberName":"V-component_of_WINDS"},"data":[0.0,0.0,0.0,0.0,0.0,0.0,0.0,0.0,0.0,0.0,0.0,0.0,0.0,0.0,0.0,0.0,0.0,0.0,0.0,0.0,0.0,0.0,0.0,0.0,0.0,0.0,0.0,0.0,0.0,0.0,0.0,0.0,0.0,0.0,0.0,0.0,0.0,0.0,0.0,0.0,0.0,0.0,0.0,0.0,0.0,0.0,0.0,0.0,0.0,0.0,0.0,0.0,0.0,0.0,0.0,0.0,0.0,0.0,0.0,0.0,0.0,0.0,0.0,0.0,0.0,0.0,0.0,0.0,0.0,0.0,0.0,0.0,0.0,0.0,0.0,0.0,0.0,0.0,0.0,0.0,0.0,0.0,0.0,0.0,0.0,0.0,0.0,0.0,0.0,0.0,0.0,0.0,0.0,0.0,0.0,0.0,0.0,0.0,0.0,0.0,0.0,0.0,0.0,0.0,0.0,0.0,0.0,0.0,0.0,0.0,0.0,0.0,0.0,0.0,0.0,0.0,0.0,0.0,0.0,0.0,0.0,0.0,0.0,0.0,0.0,0.0,0.0,0.0,0.0,0.0,0.0,0.0,0.0,0.0,0.0,0.0,0.0,0.0,0.0,0.0,0.0,0.0,0.0,0.0,0.0,0.0,0.0,0.0,0.0,0.0,0.0,0.0,0.0,0.0,0.0,0.0,0.0,0.0,0.0,0.0,0.0,0.0,0.0,0.0,0.0,0.0,0.0,0.0,0.0,0.0,0.0,0.0,0.0,0.0,0.0,0.0,0.0,0.0,0.0,0.0,0.0,0.0,0.0,0.0,0.0,0.0,0.0,0.0,0.0,0.0,0.0,0.0,0.0,0.0,0.0,0.0,0.0,0.0,0.0,0.0,0.0,0.0,0.0,0.0,0.0,0.0,0.0,0.0,0.0,0.0,0.0,0.0,0.0,0.0,0.0,0.0,0.0,0.0,0.0,0.0,0.0,0.0,0.0,0.0,0.0,0.0,0.0,0.0,0.0,0.0,0.0,0.0,0.0,0.0,0.0,0.0,0.0,0.0,0.0,0.0,0.0,0.0,0.0,0.0,0.0,0.0,0.0,0.0,0.0,0.0,0.0,0.0,0.0,0.0,0.0,0.0,0.0,0.0,0.0,0.0,0.0,0.0,0.0,0.0,0.0,0.0,0.0,0.0,0.0,0.0,0.0,0.0,0.0,0.0,0.0,0.0,0.0,0.0,0.0,0.0,0.0,0.0,0.0,0.0,0.0,0.0,0.0,0.0,0.0,0.0,0.0,0.0,0.0,0.0,0.0,0.0,0.0,0.0,0.0,0.0,0.0,0.0,0.0,0.0,0.0,0.0,0.0,0.0,0.0,0.0,0.0,0.0,0.0,0.0,0.0,0.0,0.0,0.0,0.0,0.0,0.0,0.0,0.0,0.0,0.0,0.0,0.0,0.0,0.0,0.0,0.0,0.0,0.0,0.0,0.0,0.0,0.0,0.0,0.0,0.0,0.0,0.0,0.0,0.0,0.0,0.0,0.0,0.0,0.0,0.0,0.0,0.0,0.0,0.0,0.0,0.0,0.0,0.0,0.0,0.0,0.0,0.0,0.0,0.0,0.0,0.0,0.0,0.0,0.0,0.0,0.0,0.0,0.0,0.0,0.0,0.0,0.0,0.0,0.0,0.0,0.0,0.0,0.0,0.0,0.0,0.0,0.0,0.0,0.0,0.0,0.0,0.0,0.0,0.0,0.0,0.0,0.0,0.0,0.0,0.0,0.0,0.0,0.0,0.0,0.0,0.0,0.0,0.0,0.0,0.0,0.0,0.0,0.0,0.0,0.0,0.0,0.0,0.0,0.0,0.0,0.0,0.0,0.0,0.0,0.0,0.0,0.0,0.0,0.0,0.0,0.0,0.0,0.0,0.0,0.0,0.0,0.0,0.0,0.0,0.0,0.0,0.0,0.0,0.0,0.0,0.0,0.0,0.0,0.0,0.0,0.0,0.0,0.0,0.0,0.0,0.0,0.0,0.0,0.0,0.0,0.0,0.0,0.0,0.0,0.0,0.0,0.0,0.0,0.0,0.0,0.0,0.0,0.0,0.0,0.0,0.0,0.0,0.0,0.0,0.0,0.0,0.0,0.0,0.0,0.0,0.0,0.0,0.0,0.0,0.0,0.0,0.0,0.0,0.0,0.0,0.0,0.0,0.0,0.0,0.0,0.0,0.0,0.0,0.0,0.0,0.0,0.0,0.0,0.0,0.0,0.0,0.0,0.0,0.0,0.0,0.0,0.0,0.0,0.0,0.0,0.0,0.0,0.0,0.0,0.0,0.0,0.0,0.0,0.0,0.0,0.0,0.0,0.0,0.0,0.0,0.0,0.0,0.0,0.0,0.0,0.0,0.0,0.0,0.0,0.0,0.0,0.0,0.0,0.0,0.0,0.0,0.0,0.0,0.0,0.0,0.0,0.0,0.0,0.0,0.0,0.0,0.0,0.0,0.0,0.0,0.0,0.0,0.0,0.0,0.0,0.0,0.0,0.0,0.0,0.0,0.0,0.0,0.0,0.0,0.0,0.0,0.0,0.0,0.0,0.0,0.0,0.0,0.0,0.0,0.0,0.0,0.0,0.0,0.0,0.0,0.0,0.0,0.0,0.0,0.0,0.0,0.0,0.0,0.0,0.0,0.0,0.0,0.0,0.0,0.0,0.0,0.0,0.0,0.0,0.0,0.0,0.0,0.0,0.0,0.0,0.0,0.0,0.0,0.0,0.0,0.0,0.0,0.0,0.0,0.0,0.0,0.0,0.0,0.0,0.0,0.0,0.0,0.0,0.0,0.0,0.0,0.0,0.0,0.0,0.0,0.0,0.0,0.0,0.0,0.0,0.0,0.0,0.0,0.0,0.0,0.0,0.0,0.0,0.0,0.0,0.0,0.0,0.0,0.0,0.0,0.0,0.0,0.0,0.0,0.0,0.0,0.0,0.0,0.0,0.0,0.0,0.0,0.0,0.0,0.0,0.0,0.0,0.0,0.0,0.0,0.0,0.0,0.0,0.0,0.0,0.0,0.0,0.0,0.0,0.0,0.0,0.0,0.0,0.0,0.0,0.0,0.0,0.0,0.0,0.0,0.0,0.0,0.0,0.0,0.0,0.0,0.0,0.0,0.0,0.0,0.0,0.0,0.0,0.0,0.0,0.0,0.0,0.0,0.0,0.0,0.0,0.0,0.0,0.0,0.0,0.0,0.0,0.0,0.0,0.0,0.0,0.0,0.0,0.0,0.0,0.0,0.0,0.0,0.0,0.0,0.0,0.0,0.0,0.0,0.0,0.0,0.0,0.0,0.0,0.0,0.0,0.0,0.0,0.0,0.0,0.0,0.0,0.0,0.0,0.0,0.0,0.0,0.0,0.0,0.0,0.0,0.0,0.0,0.0,0.0,0.0,0.0,0.0,0.0,0.0,0.0,0.0,0.0,0.0,0.0,0.0,0.0,0.0,0.0,0.0,0.0,0.0,0.0,0.0,0.0,0.0,0.0,0.0,0.0,0.0,0.0,0.0,0.0,0.0,0.0,0.0,0.0,0.0,0.0,0.0,0.0,0.0,0.0,0.0,0.0,0.0,0.0,0.0,0.0,0.0,0.0,0.0,0.0,0.0,0.0,0.0,0.0,0.0,0.0,0.0,0.0,0.0,0.0,0.0,0.0,0.0,0.0,0.0,0.0,0.0,0.0,0.0,0.0,0.0,0.0,0.0,0.0,0.0,0.0,0.0,0.0,0.0,0.0,0.0,0.0,0.0,0.0,0.0,0.0,0.0,0.0,0.0,0.0,0.0,0.0,0.0,0.0,0.0,0.0,0.0,0.0,0.0,0.0,0.0,0.0,0.0,0.0,0.0,0.0,0.0,0.0,0.0,0.0,0.0,0.0,0.0,0.0,0.0,0.0,0.0,0.0,0.0,0.0,0.0,0.0,0.0,0.0,0.0,0.0,0.0,0.0,0.0,0.0,0.0,0.0,0.0,0.0,0.0,0.0,0.0,0.0,0.0,0.0,0.0,0.0,0.0,0.0,0.0,0.0,0.0,0.0,0.0,0.0,0.0,0.0,0.0,0.0,0.0,0.0,0.0,0.0,0.0,0.0,0.0,0.0,0.0,0.0,0.0,0.0,0.0,0.0,0.0,0.0,0.0,0.0,0.0,0.0,0.0,0.0,0.0,0.0,0.0,0.0,0.0,0.0,0.0,0.0,0.0,0.0,0.0,0.0,0.0,0.0,0.0,0.0,0.0,0.0,0.0,0.0,0.0,0.0,0.0,0.0,0.0,0.0,0.0,0.0,0.0,0.0,0.0,0.0,0.0,0.0,0.0,0.0,0.0,0.0,0.0,0.0,0.0,0.0,0.0,0.0,0.0,0.0,0.0,0.0,0.0,0.0,0.0,0.0,0.0,0.0,0.0,0.0,0.0,0.0,0.0,0.0,0.0,0.0,0.0,0.0,0.0,0.0,0.0,0.0,0.0,0.0,0.0,0.0,0.0,0.0,0.0,0.0,0.0,0.0,0.0,0.0,0.0,0.0,0.0,0.0,0.0,0.0,0.0,0.0,0.0,0.0,0.0,0.0,0.0,0.0,0.0,0.0,0.0,0.0,0.0,0.0,0.0,0.0,0.0,0.0,0.0,0.0,0.0,0.0,0.0,0.0,0.0,0.0,0.0,0.0,0.0,0.0,0.0,0.0,0.0,0.0,0.0,0.0,0.0,0.0,0.0,0.0,0.0,0.0,0.0,0.0,0.0,0.0,0.0,0.0,0.0,0.0,0.0,0.0,0.0,0.0,0.0,0.0,0.0,0.0,0.0,0.0,0.0,0.0,0.0,0.0,0.0,0.0,0.0,0.0,0.0,0.0,0.0,0.0,0.0,0.0,0.0,0.0,0.0,0.0,0.0,0.0,0.0,0.0,0.0,0.0,0.0,0.0,0.0,0.0,0.0,0.0,0.0,0.0,0.0,0.0,0.0,0.0,0.0,0.0,0.0,0.0,0.0,0.0,0.0,0.0,0.0,0.0,0.0,0.0,0.0,0.0,0.0,0.0,0.0,0.0,0.0,0.0,0.0,0.0,0.0,0.0,0.0,0.0,0.0,0.0,0.0,0.0,0.0,0.0,0.0,0.0,0.0,0.0,0.0,0.0,0.0,0.0,0.0,0.0,0.0,0.0,0.0,0.0,0.0,0.0,0.0,0.0,0.0,0.0,0.0,0.0,0.0,0.0,0.0,0.0,0.0,0.0,0.0,0.0,0.0,0.0,0.0,0.0,0.0,0.0,0.0,0.0,0.0,0.0,0.0,0.0,0.0,0.0,0.0,0.0,0.0,0.0,0.0,0.0,0.0,0.0,0.0,0.0,0.0,0.0,0.0,0.0,0.0,0.0,0.0,0.0,0.0,0.0,0.0,0.0,0.0,0.0,0.0,0.0,0.0,0.0,0.0,0.0,0.0,0.0,0.0,0.0,0.0,0.0,0.0,0.0,0.0,0.0,0.0,0.0,0.0,0.0,0.0,0.0,0.0,0.0,0.0,0.0,0.0,0.0,0.0,0.0,0.0,0.0,0.0,0.0,0.0,0.0,0.0,0.0,0.0,0.0,0.0,0.0,0.0,0.0,0.0,0.0,0.0,0.0,0.0,0.0,0.0,0.0,0.0,0.0,0.0,0.0,0.0,0.0,0.0,0.0,0.0,0.0,0.0,0.0,0.0,0.0,0.0,0.0,0.0,0.0,0.0,0.0,0.0,0.0,0.0,0.0,0.0,0.0,0.0,0.0,0.0,0.0,0.0,0.0,0.0,0.0,0.0,0.0,0.0,0.0,0.0,0.0,0.0,0.0,0.0,0.0,0.0,0.0,0.0,0.0,0.0,0.0,0.0,0.0,0.0,0.0,0.0,0.0,0.0,0.0,0.0,0.0,0.0,0.0,0.0,0.0,0.0,0.0,0.0,0.0,0.0,0.0,0.0,0.0,0.0,0.0,0.0,0.0,0.0,0.0,0.0,0.0,0.0,0.0,0.0,0.0,0.0,0.0,0.0,0.0,0.0,0.0,0.0,0.0,0.0,0.0,0.0,0.0,0.0,3.3294,3.2194,0.0,0.0,0.0,0.0,0.0,0.0,0.0,0.0,0.0,0.0,0.0,0.0,0.0,0.0,0.0,0.0,0.0,0.0,0.0,0.0,0.0,0.0,0.0,0.0,0.0,0.0,0.0,0.0,0.0,0.0,0.0,0.0,0.0,0.0,0.0,0.0,0.0,0.0,3.3273,3.4148,3.5504,3.4949,3.4547,3.4248,0.0,0.0,0.0,0.0,0.0,0.0,0.0,0.0,0.0,0.0,0.0,0.0,0.0,0.0,0.0,0.0,0.0,0.0,0.0,0.0,0.0,0.0,0.0,0.0,0.0,0.0,0.0,0.0,0.0,0.0,0.0,0.0,0.0,0.0,0.0,0.0,0.0,0.0,0.0,0.0,0.0,0.0,0.0,0.0,0.0,0.0,0.0,0.0,0.0,0.0,0.0,0.0,0.0,0.0,0.0,0.0,0.0,0.0,0.0,0.0,0.0,0.0,0.0,0.0,0.0,0.0,0.0,0.0,0.0,0.0,3.6157,3.4751,0.0,0.0,0.0,0.0,0.0,0.0,0.0,0.0,0.0,0.0,0.0,0.0,0.0,0.0,0.0,0.0,0.0,0.0,0.0,0.0,0.0,0.0,0.0,0.0,2.993,2.993,3.0432,0.0,0.0,0.0,0.0,0.0,0.0,0.0,0.0,0.0,0.0,3.4048,3.5255,3.6433,3.7561,3.7838,3.7663,3.7012,3.5732,0.0,0.0,0.0,0.0,0.0,0.0,0.0,0.0,0.0,0.0,0.0,0.0,0.0,0.0,0.0,0.0,0.0,0.0,0.0,0.0,0.0,0.0,0.0,0.0,0.0,0.0,0.0,0.0,0.0,0.0,0.0,0.0,0.0,0.0,0.0,0.0,0.0,0.0,0.0,0.0,0.0,0.0,0.0,0.0,0.0,0.0,0.0,0.0,0.0,0.0,0.0,0.0,0.0,0.0,0.0,0.0,0.0,0.0,0.0,0.0,0.0,0.0,0.0,4.2055,4.2783,4.3689,4.3642,4.3642,4.3514,4.0199,3.8693,3.8442,3.6485,0.0,0.0,0.0,0.0,0.0,0.0,0.0,0.0,0.0,0.0,0.0,0.0,0.0,0.0,0.0,0.0,0.0,0.0,0.0,0.0,0.0,3.0231,3.0487,3.0487,3.0984,3.1286,0.0,0.0,0.0,0.0,0.0,0.0,0.0,3.2692,3.3495,3.4603,3.8517,4.1001,4.216,4.3642,4.3991,4.3209,3.8818,3.7136,3.7513,0.0,0.0,0.0,0.0,0.0,0.0,0.0,0.0,0.0,0.0,0.0,0.0,0.0,0.0,0.0,0.0,0.0,0.0,0.0,0.0,0.0,0.0,0.0,0.0,0.0,0.0,0.0,0.0,0.0,0.0,0.0,0.0,0.0,0.0,0.0,0.0,0.0,0.0,0.0,0.0,0.0,3.2939,3.309,0.0,0.0,0.0,0.0,0.0,0.0,0.0,0.0,0.0,0.0,0.0,0.0,0.0,4.0551,4.2235,4.3768,4.4844,4.5547,4.607,4.6421,4.6547,4.61,4.6125,4.6496,4.5547,0.0,4.0826,4.0048,0.0,0.0,0.0,0.0,0.0,0.0,0.0,0.0,0.0,0.0,0.0,0.0,0.0,0.0,0.0,0.0,0.0,0.0,0.0,0.0,0.0,3.1587,3.2466,3.2466,3.4951,3.5604,3.342,0.0,0.0,0.0,0.0,3.2713,3.2713,3.3545,3.5454,3.8417,4.1603,4.3736,4.4869,4.5598,4.5824,4.5443,4.3288,4.1229,3.9371,3.8567,0.0,0.0,0.0,0.0,0.0,0.0,0.0,0.0,0.0,0.0,0.0,0.0,0.0,0.0,0.0,0.0,0.0,0.0,0.0,0.0,0.0,0.0,0.0,0.0,0.0,0.0,0.0,0.0,0.0,0.0,0.0,0.0,0.0,0.0,0.0,0.0,0.0,0.0,0.0,3.4349,3.5629,3.5024,3.5906,3.5881,0.0,0.0,0.0,0.0,0.0,0.0,0.0,0.0,0.0,4.2032,4.3187,4.4568,4.6255,4.7939,4.9314,5.0469,5.072,5.1147,5.1749,5.1197,5.1071,5.1272,5.072,4.9113,4.6677,4.3639,4.1254,3.9397,0.0,0.0,0.0,0.0,4.0165,4.1113,0.0,0.0,0.0,0.0,0.0,0.0,0.0,0.0,0.0,0.0,0.0,0.0,3.1466,3.3495,3.5027,3.573,3.8542,3.9069,3.6158,3.6734,0.0,0.0,0.0,3.309,3.309,3.5002,3.8065,4.2381,4.4865,4.6722,4.8008,4.8134,4.8134,4.7983,4.7707,4.5497,4.1904,4.0802,3.9044,3.6937,0.0,0.0,0.0,0.0,0.0,0.0,0.0,0.0,0.0,0.0,0.0,0.0,0.0,0.0,0.0,0.0,0.0,0.0,0.0,0.0,0.0,0.0,0.0,0.0,0.0,0.0,0.0,0.0,0.0,0.0,0.0,0.0,0.0,0.0,0.0,0.0,0.0,3.6383,3.814,3.6758,3.8316,3.8467,0.0,0.0,0.0,0.0,0.0,0.0,4.1304,4.2532,4.4213,4.6446,4.7757,4.9138,5.0703,5.2201,5.3582,5.4762,5.4637,5.4988,5.5792,5.5239,5.4949,5.4834,5.4813,5.3877,5.1961,4.7237,4.4475,4.3176,4.2629,4.2112,4.1829,4.385,4.5157,4.6314,0.0,0.0,0.0,0.0,0.0,0.0,0.0,0.0,0.0,0.0,0.0,3.0959,3.4151,3.6006,3.809,4.07,4.0199,3.9647,3.9446,3.656,3.4803,3.4628,3.3646,3.309,3.309,3.7286,4.1354,4.5271,4.8535,5.0938,5.2569,5.3105,5.308,5.2519,5.1498,4.9163,4.5849,4.319,4.1656,4.075,3.7663,0.0,0.0,0.0,0.0,0.0,0.0,0.0,0.0,0.0,0.0,0.0,0.0,0.0,0.0,0.0,0.0,0.0,0.0,0.0,0.0,0.0,0.0,0.0,0.0,0.0,0.0,0.0,0.0,0.0,0.0,0.0,0.0,0.0,0.0,0.0,0.0,0.0,0.0,3.7436,4.0902,0.0,0.0,0.0,0.0,4.0198,4.2233,4.4192,4.5899,4.7506,4.9414,5.1649,5.3306,5.4687,5.5817,5.6997,5.76,5.7675,5.7085,5.686,5.6885,5.6333,5.5842,5.5448,5.7137,5.6875,5.4892,5.0932,4.8953,4.8338,4.7282,4.7511,4.8632,5.0454,5.117,5.1558,0.0,0.0,0.0,0.0,0.0,0.0,0.0,0.0,0.0,2.8279,3.0758,3.342,3.6031,4.0023,4.3062,4.4389,4.5799,4.5372,4.2534,4.0198,3.8316,3.6886,3.5102,3.5479,3.8316,4.1706,4.5321,4.9213,5.1825,5.3758,5.5039,5.5239,5.5214,5.5013,5.426,5.2854,5.0795,4.6602,4.3489,4.1177,3.9647,3.7839,0.0,0.0,0.0,0.0,0.0,0.0,0.0,0.0,0.0,0.0,0.0,0.0,0.0,0.0,0.0,0.0,0.0,0.0,0.0,0.0,0.0,0.0,0.0,0.0,0.0,0.0,0.0,0.0,0.0,0.0,0.0,0.0,0.0,0.0,0.0,0.0,0.0,4.3062,4.6024,0.0,4.4113,4.4062,4.4364,4.4715,4.6798,4.8937,5.0946,5.2302,5.4059,5.6294,5.7248,5.8102,5.8855,5.9633,6.001,6.001,5.9433,5.8956,5.8604,5.8039,5.8181,5.8827,5.9113,5.9571,5.996,5.8238,5.5587,5.2575,5.2268,5.2194,5.2486,5.4439,5.5412,5.6028,0.0,0.0,0.0,0.0,0.0,0.0,0.0,0.0,2.7638,2.8549,3.2039,3.573,3.9044,4.3865,4.7405,4.8686,4.9615,4.8586,4.4895,4.1829,3.937,3.7538,3.6408,3.789,4.2331,4.5547,4.9063,5.2955,5.4823,5.6168,5.7047,5.6872,5.6771,5.6771,5.6194,5.5516,5.4561,5.0519,4.6848,4.3661,4.2032,4.0475,3.8919,0.0,0.0,0.0,0.0,0.0,0.0,0.0,0.0,0.0,0.0,0.0,0.0,0.0,0.0,0.0,0.0,0.0,0.0,0.0,0.0,0.0,0.0,0.0,0.0,0.0,0.0,0.0,0.0,0.0,0.0,0.0,0.0,0.0,0.0,4.3313,4.6747,4.7355,5.0343,5.1423,4.9006,4.8987,4.9314,4.9859,5.18,5.3733,5.5566,5.6545,5.7826,5.9508,6.006,6.0512,6.0889,6.1441,6.1642,6.1466,6.1065,6.0955,6.107,6.0712,6.1305,6.2597,6.2644,6.3129,6.3903,6.3947,6.1933,5.8769,5.806,5.7652,5.7625,5.8949,5.9727,6.0236,0.0,0.0,0.0,0.0,0.0,0.0,0.0,2.6959,2.7939,2.9603,3.3222,3.7764,4.3263,4.738,5.0795,5.3482,5.1222,4.8686,4.6476,4.1128,3.7563,3.6556,3.7613,4.0299,4.474,4.8579,5.2452,5.6319,5.7424,5.8252,5.8742,5.8252,5.8001,5.7976,5.7361,5.7085,5.6935,5.4762,5.1975,4.8718,4.4773,4.374,4.4113,0.0,0.0,0.0,0.0,0.0,0.0,0.0,0.0,0.0,0.0,0.0,0.0,0.0,0.0,0.0,0.0,0.0,0.0,0.0,0.0,0.0,0.0,0.0,0.0,0.0,0.0,0.0,0.0,0.0,0.0,0.0,0.0,0.0,4.2235,4.7079,5.0393,4.9967,5.3733,5.5315,5.2678,5.3868,5.5024,5.5566,5.7123,5.8504,5.9558,6.0111,6.0663,6.1266,6.1793,6.2044,6.2044,6.2556,6.2571,6.2044,6.2099,6.2861,6.4231,6.4307,6.5102,6.6585,6.7677,6.7517,6.6566,6.7686,6.7718,6.6876,6.4497,6.3784,6.4066,6.4036,6.4006,6.3977,0.0,0.0,0.0,0.0,0.0,0.0,0.0,2.7286,2.8473,3.0156,3.5481,4.0625,4.4593,4.954,5.3055,5.427,5.18,4.9231,4.7023,4.1706,3.8693,3.8793,4.2158,4.5924,4.9967,5.2653,5.5516,5.8604,5.9307,5.996,6.0512,6.0337,6.0286,6.0261,5.9684,5.9207,5.873,5.7323,5.5968,5.4275,4.9213,4.615,4.4364,0.0,0.0,0.0,0.0,0.0,0.0,0.0,0.0,0.0,0.0,0.0,0.0,0.0,0.0,0.0,0.0,0.0,0.0,0.0,0.0,0.0,0.0,0.0,0.0,0.0,0.0,0.0,0.0,0.0,0.0,0.0,4.4044,4.6632,4.6934,5.0728,5.426,5.6495,5.8579,5.9684,5.9307,5.9332,5.9583,6.0136,6.0989,6.1793,6.2496,6.2295,6.2571,6.3567,6.335,6.3224,6.3224,6.3375,6.3174,6.2596,6.4066,6.473,6.4812,6.6309,6.7735,6.91,6.9418,6.9855,7.0387,7.0697,7.0141,6.8972,6.6864,6.5796,6.5413,6.4904,6.4156,6.3408,0.0,0.0,0.0,0.0,0.0,0.0,0.0,2.7412,2.8875,3.0989,3.6836,4.2181,4.5799,5.067,5.3658,5.3557,5.1197,4.841,4.5246,4.1406,3.9999,4.1681,4.5799,4.9741,5.3406,5.6093,5.8478,6.0537,6.0864,6.119,6.1542,6.1542,6.1542,6.1517,6.1165,6.0839,6.0487,5.9382,5.8704,5.8039,5.4411,5.1272,4.851,4.5999,4.4392,4.3341,4.1806,4.1455,4.1404,3.9546,0.0,0.0,0.0,0.0,0.0,0.0,0.0,0.0,0.0,0.0,0.0,0.0,0.0,0.0,0.0,0.0,0.0,0.0,0.0,0.0,0.0,0.0,0.0,0.0,4.8115,5.1498,5.3356,5.5376,5.7775,6.0889,6.1843,6.2446,6.2973,6.2788,6.2697,6.3023,6.335,6.3676,6.4002,6.3701,6.3802,6.4496,6.422,6.45,6.5395,6.4475,6.4623,6.5765,6.6016,6.6766,6.7924,6.9113,7.0543,7.2079,7.1815,7.2103,7.2714,7.2415,7.1697,7.0652,0.0,0.0,0.0,0.0,6.4784,6.3977,0.0,0.0,0.0,0.0,0.0,0.0,0.0,2.7412,2.9101,3.1842,3.7413,4.2532,4.622,5.0544,5.2779,5.19,4.9715,4.6683,4.2537,4.113,4.1882,4.5116,4.9031,5.2653,5.5867,5.893,6.1133,6.2431,6.2215,6.2215,6.2431,6.2215,6.2094,6.2094,6.2336,6.2271,6.2059,6.1503,6.0969,6.0451,5.9985,5.7781,5.4346,5.0218,4.8786,4.8642,4.6024,4.4217,4.2964,4.2005,0.0,0.0,0.0,0.0,0.0,0.0,0.0,0.0,0.0,0.0,0.0,0.0,0.0,0.0,0.0,0.0,0.0,0.0,0.0,0.0,0.0,0.0,0.0,0.0,5.1925,5.5942,6.0186,6.0362,6.1014,6.3576,6.3877,6.4103,6.4722,6.4798,6.4823,6.4873,6.4823,6.4798,6.4798,6.4672,0.0,0.0,0.0,6.5852,6.7798,6.614,6.6811,6.9782,6.8155,6.8984,7.1891,7.2106,7.3222,7.4873,7.427,7.3911,7.3732,7.3163,7.2475,7.1667,7.044,6.8826,6.7029,6.643,6.5712,6.5084,0.0,0.0,0.0,0.0,0.0,0.0,0.0,2.7412,2.9101,3.1842,3.6759,4.0978,4.3514,4.7361,4.9848,5.0067,4.7657,4.52,4.2989,4.4217,4.6301,4.9131,5.3422,5.686,5.9307,6.0889,6.2785,6.5083,6.3472,6.3472,6.5044,6.3391,6.2631,6.2712,6.4317,6.4183,6.285,6.6003,6.5129,6.1962,6.509,6.2138,5.5691,5.3969,5.195,4.9916,4.8485,4.8335,4.8335,4.5041,4.4916,4.5522,4.1829,3.9948,0.0,0.0,0.0,0.0,0.0,0.0,0.0,0.0,0.0,0.0,0.0,0.0,0.0,0.0,0.0,0.0,0.0,0.0,0.0,5.2637,5.652,6.0136,6.3224,6.3617,6.3918,6.4856,6.4982,6.5383,6.6431,6.6531,6.6707,6.7116,6.6739,6.6531,6.6531,6.5609,6.5333,6.5785,6.7048,6.7916,6.8338,6.9654,7.0111,6.982,7.1053,0.0,7.1963,7.3603,7.453,7.4903,7.4783,7.4091,7.3103,7.2954,7.2206,7.1009,7.026,6.9125,6.7808,6.7658,6.649,6.5084,0.0,0.0,0.0,0.0,0.0,0.0,0.0,2.817,2.9915,3.1231,3.5709,3.9517,4.1465,4.4407,4.6351,4.6614,4.4381,4.3411,4.4538,4.6454,4.9389,5.3522,5.7173,5.9885,6.1502,6.3728,6.5482,6.6754,6.6794,6.7321,6.8272,6.7281,6.6635,6.6345,6.7336,6.7258,6.6358,6.7091,6.6829,6.5974,6.67,6.4414,6.042,5.8766,5.6295,5.3522,5.2185,5.1356,5.0469,4.7958,4.728,4.7048,4.4564,4.2861,4.148,0.0,0.0,0.0,0.0,0.0,0.0,0.0,0.0,0.0,0.0,0.0,0.0,0.0,0.0,4.4815,4.6808,0.0,5.3215,5.6495,5.9583,6.2446,6.4931,6.5283,6.5609,6.6438,6.6312,6.6564,6.7693,6.7794,6.7794,6.7794,6.7543,6.7392,6.7392,6.7911,6.8321,6.8604,7.0154,7.1511,7.2557,7.2281,7.2679,7.3801,7.344,7.3487,7.3933,7.4575,7.4903,7.4903,7.4903,7.451,7.3851,7.3193,7.2325,7.1338,7.0679,6.9632,6.8405,6.7748,6.664,6.5532,0.0,0.0,0.0,0.0,0.0,0.0,0.0,2.9144,3.0845,3.0965,3.4835,3.8134,3.9532,4.1676,4.3032,4.3058,4.1889,4.2943,4.7158,4.9353,5.2869,5.8171,6.1261,6.3177,6.3879,6.6934,6.8705,6.9076,7.0383,7.1112,7.1384,7.1001,7.0494,7.0013,7.0393,7.0355,6.9909,6.8645,6.876,6.9678,6.8443,6.7057,6.5586,6.3968,6.0823,5.716,5.5907,5.361,5.0996,5.0193,4.8736,4.7199,4.6903,4.5773,4.4217,4.2206,4.1177,0.0,0.0,0.0,0.0,0.0,0.0,0.0,0.0,4.2431,4.3611,4.602,4.7776,4.9658,5.2251,5.4787,5.7424,6.0186,6.222,6.4153,6.6162,6.6438,6.6815,6.7844,6.7568,6.7693,6.8653,6.8773,6.8597,6.8145,6.802,6.8165,6.8554,7.0315,7.1375,7.153,7.3333,7.498,7.6415,7.4634,7.5085,7.7766,7.5531,7.5046,7.6066,7.5377,7.5113,7.5083,7.4843,7.4723,7.4604,7.3253,7.2385,7.1816,7.1038,7.0111,6.9034,6.7837,6.6969,6.634,0.0,0.0,0.0,0.0,0.0,0.0,0.0,0.0,0.0,3.2164,3.494,3.6885,3.7102,3.9183,4.064,4.0759,4.2744,4.6188,5.1448,5.4824,5.8639,6.3215,6.6871,6.8554,6.7951,7.0184,7.2231,7.4039,7.2462,7.2297,7.3432,7.165,7.0782,7.0775,7.2545,7.2358,7.0918,7.4815,7.3867,7.0141,7.401,7.2725,6.8527,6.8988,6.4718,5.8517,5.8596,5.5107,5.0569,5.0971,4.964,4.7908,4.8391,4.8008,4.6828,4.3714,4.2057,4.0625,3.7914,3.7311,3.809,4.0979,4.143,4.2682,0.0,4.9314,4.959,5.2838,5.4386,5.5742,5.7549,5.9332,6.1441,6.4178,6.5258,6.6187,6.7442,6.7618,6.7844,6.8447,6.8472,6.8673,6.9255,6.9306,6.928,6.923,6.8753,6.9376,7.1336,7.1808,7.2361,7.3206,7.5763,7.6674,7.5715,7.7277,7.7997,7.7801,7.7498,7.714,7.6659,7.6066,7.5796,7.5707,7.454,7.4001,7.3911,7.2565,7.1966,7.1757,7.056,6.9991,6.9782,6.9034,6.8345,6.7628,0.0,0.0,0.0,0.0,0.0,0.0,0.0,0.0,0.0,0.0,3.3916,3.5648,3.5723,3.7405,3.8744,3.9177,4.2295,4.6077,5.048,5.5865,6.0639,6.4622,6.8705,7.0896,7.0915,7.3326,7.5191,7.6425,7.608,7.6349,7.7262,7.602,7.5243,7.4895,7.5757,7.5648,7.4895,7.5284,7.5094,7.4459,7.4459,7.2945,7.0542,6.9499,6.4437,5.7811,5.6969,5.3763,0.0,4.836,4.7707,4.7525,4.8109,4.7456,4.61,4.4066,4.2459,4.1001,3.9521,4.0049,4.153,4.3617,4.5372,4.7651,5.1774,5.2829,5.3808,5.6821,5.883,6.0387,6.1416,6.2948,6.4429,6.5584,6.6513,6.7493,6.8553,6.8196,6.7869,6.812,6.7568,6.7725,6.9255,6.9406,6.9941,7.1288,7.1542,7.242,7.4236,7.6,7.6944,7.6918,7.8552,7.9177,7.8617,7.8748,7.8639,7.837,7.7592,7.7048,7.6749,7.5766,7.5318,7.5288,7.4753,7.4031,7.3283,7.2714,7.1816,7.0742,7.0171,6.9722,6.9363,6.9093,6.8315,6.7359,0.0,0.0,0.0,0.0,0.0,0.0,0.0,0.0,0.0,0.0,3.36,3.5235,3.5624,3.6551,3.7554,3.8571,4.1482,4.5383,5.046,5.6256,6.1591,6.6264,7.0565,7.3129,7.3695,7.6378,7.8065,7.8735,7.9315,7.9686,7.977,7.9297,7.8729,7.8071,7.8071,7.8071,7.7933,7.6006,7.607,7.73,7.4877,7.3077,7.1627,6.9019,6.363,5.7207,5.5332,5.1778,4.781,4.6225,4.5754,4.5947,4.6937,4.6318,4.4995,4.3714,4.1957,4.0449,4.065,4.2233,4.4292,4.6326,4.9339,5.2477,5.5164,5.652,5.8001,6.0738,6.237,6.35,6.4228,6.5183,6.6086,6.6714,6.7493,6.8568,7.0057,6.9434,6.862,6.8053,6.74,6.7484,6.8766,6.9307,7.065,7.3267,7.3866,7.5052,7.7201,7.9287,8.0372,8.0356,8.0998,8.1093,8.0524,7.9567,7.8878,7.8519,7.7562,7.6958,7.6749,7.5677,7.5048,7.4903,7.4723,7.4061,7.3163,7.2774,7.1787,7.047,7.0081,6.9662,6.9243,6.9064,6.8256,6.7208,0.0,0.0,0.0,0.0,0.0,0.0,0.0,0.0,0.0,0.0,0.0,0.0,0.0,3.6849,3.7285,3.9212,4.0434,4.478,5.3496,5.7,6.197,6.926,7.3538,7.5985,7.6464,7.9239,8.1019,8.1676,8.1721,8.1033,7.977,7.9806,7.9417,7.8759,7.8759,7.8759,7.8759,7.8693,7.7939,7.6808,7.6708,7.4736,7.1541,6.8283,6.3116,5.728,5.4871,4.9749,4.4282,4.5792,4.4566,4.2812,4.4985,4.5186,4.4288,4.2713,4.0276,3.8542,4.07,4.2507,4.4844,4.9188,5.2779,5.6244,6.0085,6.1391,6.2596,6.5333,6.5107,6.4756,6.5835,6.5634,6.6036,6.8196,6.8528,6.9505,7.2097,7.1938,7.073,6.8744,6.8952,6.8818,6.7664,6.9083,7.1468,7.476,7.5035,7.6587,8.0104,8.0352,8.1115,8.2655,8.2709,8.1818,7.9829,7.977,7.9148,7.7831,7.7801,7.7442,7.6779,7.6155,7.5497,7.4873,7.421,7.3911,7.3762,7.2445,7.1876,7.1697,7.047,6.9993,6.9903,6.9243,6.8555,6.7778,0.0,0.0,0.0,0.0,0.0,0.0,0.0,0.0,0.0,0.0,0.0,0.0,0.0,0.0,0.0,0.0,4.0679,4.3746,4.8095,5.458,6.0033,6.3887,7.0825,7.4857,7.5443,7.7659,7.9148,7.9806,7.8938,7.8489,7.846,7.8005,7.7676,7.7502,7.7502,7.7502,7.7502,7.7502,7.7197,7.6629,7.4894,7.3043,7.0582,6.4379,5.8725,5.3566,0.0,4.5611,4.2557,4.2082,4.182,4.183,4.2566,4.2423,4.1621,3.9929,4.0326,4.1706,4.3589,4.7154,5.1172,5.4536,5.76,6.0512,6.3274,6.4053,6.4454,6.5383,6.4404,6.3274,6.2898,6.2697,6.3174,6.5057,6.8168,7.1061,7.3006,7.445,7.4139,7.0873,7.0807,7.0675,6.9895,6.9697,7.1411,7.5717,7.7219,7.8955,8.1217,8.2535,8.3121,8.2798,8.1968,8.1153,8.0464,7.9597,7.8699,7.7801,7.6963,7.6185,7.5527,7.5318,7.5078,7.4873,7.418,7.3642,7.3163,7.2265,7.1398,7.053,6.9662,6.9034,6.8586,6.7897,6.7508,6.7359,0.0,0.0,0.0,0.0,0.0,0.0,0.0,0.0,0.0,0.0,0.0,0.0,0.0,0.0,0.0,0.0,0.0,4.2465,4.5184,5.0945,5.5679,5.8928,6.4958,6.8794,6.9931,7.1427,7.2624,7.3492,7.3612,7.3881,7.43,7.4569,7.4685,7.4655,7.448,7.451,7.4685,7.4685,7.3997,7.2741,7.059,6.8076,6.4964,5.8592,5.3526,0.0,4.5082,4.2517,4.0992,4.0491,4.0404,4.0598,4.1005,4.0463,3.9611,3.9297,4.1128,4.394,4.7029,5.1297,5.5616,5.8604,6.1291,6.3601,6.5208,6.5434,6.5132,6.453,6.2923,6.124,5.9935,5.9382,5.991,6.2395,6.5724,6.9344,7.3336,7.4783,7.4887,7.3296,7.2991,7.258,7.1783,7.1299,7.2752,7.6995,7.8888,8.0644,8.2394,8.3457,8.3846,8.3487,8.217,8.1272,8.0794,7.9956,7.8819,7.7442,7.6155,7.5318,7.4903,7.4903,7.4783,7.4514,7.3821,7.3163,7.2505,7.1816,7.1038,7.026,6.9602,6.8944,6.8287,6.7628,6.7209,6.7059,0.0,0.0,0.0,0.0,0.0,0.0,0.0,0.0,0.0,0.0,0.0,0.0,0.0,0.0,0.0,0.0,0.0,0.0,4.4796,4.6411,4.9464,5.4521,5.6795,5.8773,6.0687,6.1463,6.2421,6.3647,6.6221,6.7449,6.7479,6.9333,7.0201,7.0231,6.9602,6.9662,7.026,7.0201,6.8405,6.5413,6.4066,6.0505,5.5623,5.1565,4.8035,4.4915,4.2331,4.0546,3.966,4.0954,4.0374,3.9323,4.047,3.9662,3.8743,4.0976,4.2883,4.5497,5.0921,5.4934,5.8316,6.1456,6.3884,6.5654,6.6011,6.5609,6.4655,6.2957,6.0763,5.8629,5.696,5.599,5.6729,6.0608,6.2118,6.5621,7.3685,7.3836,7.3902,7.6077,7.5761,7.4842,7.3487,7.3901,7.5557,7.8669,8.0045,8.1601,8.3508,8.3098,8.3375,8.4534,8.3375,8.2088,8.0764,8.0644,7.9327,7.6779,7.5497,7.4903,7.4903,7.4903,7.4574,7.3911,7.3223,7.2535,7.1876,7.1188,7.0889,7.0799,7.0171,6.9542,6.8854,6.8197,6.7568,6.6999,0.0,0.0,0.0,0.0,0.0,0.0,0.0,0.0,0.0,0.0,0.0,0.0,0.0,0.0,0.0,0.0,0.0,0.0,4.1534,4.4257,4.6651,4.8484,5.2821,5.5423,5.5957,5.7543,5.853,5.886,5.9518,5.9877,5.9877,6.0386,6.0894,6.1315,6.0685,6.0745,6.1315,6.0835,6.0146,5.9219,5.7423,5.5598,5.3528,4.9553,4.657,4.4287,4.2152,4.0846,4.0277,4.1134,4.1702,4.2168,4.2398,4.2397,4.2836,4.5472,4.8586,5.195,5.5465,6.0903,6.5545,6.5125,6.705,6.8511,6.6548,6.4404,6.237,6.0688,5.6947,5.3607,5.2293,5.4431,5.7607,6.1364,6.8645,7.5346,7.9743,8.2338,8.3096,8.1273,8.131,8.0579,7.8291,7.8685,7.9387,8.0225,8.0165,8.0704,8.22,8.3038,8.3187,8.2559,8.1721,8.0913,8.0075,7.8543,7.7466,7.6779,7.5497,7.4903,7.4903,7.4903,7.4813,7.4604,7.3402,7.2804,7.2565,7.1398,7.062,7.0141,6.9512,6.8824,6.8167,6.7478,6.7148,6.6999,0.0,0.0,0.0,0.0,0.0,0.0,0.0,0.0,0.0,0.0,0.0,0.0,0.0,0.0,0.0,0.0,0.0,0.0,0.0,4.1683,4.301,4.3668,4.6561,4.8297,4.8566,4.9643,5.0481,5.105,5.1947,5.2665,5.3234,5.3803,5.4406,5.5034,5.4346,5.4436,5.5034,5.467,5.3862,0.0,0.0,4.9374,4.772,4.4915,4.313,4.1993,4.0905,4.0637,4.0958,4.204,4.3597,4.5041,4.4898,4.5523,4.7111,5.0991,5.4265,5.7265,6.049,6.5056,6.8805,6.8422,6.8372,6.809,6.6632,6.3812,6.0532,5.7167,5.3855,5.112,4.9776,5.249,5.6281,6.0468,6.8024,7.5192,8.0166,8.2784,8.417,8.4068,8.3846,8.3,8.1272,8.1183,8.1482,8.205,8.1212,8.1242,8.2559,8.3068,8.3098,8.2649,8.1721,8.0764,7.9799,7.7795,7.6779,7.6779,7.5497,7.4903,7.4903,7.4903,7.4753,7.442,7.3672,7.3013,7.2415,7.1637,7.0979,7.032,6.9692,6.9004,6.8345,6.7688,6.7238,6.6999,0.0,0.0,0.0,0.0,0.0,0.0,0.0,0.0,0.0,0.0,0.0,0.0,0.0,0.0,0.0,0.0,0.0,0.0,0.0,0.0,3.966,4.0247,4.0277,4.0546,4.1134,4.1134,4.1683,4.2781,4.4536,4.5971,4.713,4.8245,4.9142,4.974,4.9082,4.9142,4.977,4.968,4.8304,4.6172,4.4975,4.315,4.1014,0.0,0.0,3.9421,3.9511,4.041,4.1831,4.3585,4.5775,4.7808,4.7942,4.9405,5.2101,5.7112,5.9976,6.2244,6.5485,6.8183,7.027,7.0995,6.8961,6.6749,6.6514,6.3231,5.8736,5.346,5.1172,4.9778,4.8573,5.0736,5.4503,5.9866,6.5104,7.1112,7.8736,8.0286,8.1986,8.5654,8.5073,8.4175,8.3645,8.2926,8.2858,8.3867,8.2858,8.2619,8.3628,8.3187,8.3038,8.3299,8.217,8.0883,7.9567,7.7706,7.6749,7.6659,7.5467,7.4903,7.4903,7.4903,7.4569,7.4031,7.3941,7.3193,7.2026,7.1969,7.1457,7.0739,7.0201,6.9572,6.8914,6.8257,6.7688,6.7238,0.0,0.0,0.0,0.0,0.0,0.0,0.0,0.0,0.0,0.0,3.7092,0.0,0.0,0.0,0.0,0.0,0.0,0.0,0.0,0.0,0.0,3.9571,3.9571,3.9631,3.975,3.975,3.984,4.0079,4.0438,4.0707,4.0947,4.1186,4.1634,4.2252,4.1575,4.1634,4.2252,4.1664,4.1186,4.0737,4.0528,4.0139,3.972,0.0,0.0,0.0,4.0038,4.1411,4.3331,4.5711,4.7773,4.9714,5.1864,5.5554,5.965,6.2942,6.6055,6.8606,6.9197,7.1727,7.3827,7.2128,7.1032,6.9598,6.6458,6.1356,5.6084,5.2026,4.8763,4.6938,4.7798,5.0987,5.6173,6.4325,6.9523,7.5311,8.3398,8.505,8.6152,8.7935,8.7975,8.7796,8.7676,8.6578,8.5701,8.5372,8.4654,8.4055,8.3718,8.3598,8.2888,8.1362,8.0554,7.9507,7.816,7.7227,7.6539,7.6066,7.5258,7.4903,7.4903,7.4903,7.4843,7.4723,7.4121,7.3462,7.2684,7.2116,7.1188,7.0173,7.0021,6.9572,6.8914,6.8257,6.8287,6.8495,0.0,0.0,0.0,0.0,0.0,0.0,0.0,0.0,0.0,0.0,4.0217,3.9379,0.0,0.0,0.0,0.0,0.0,0.0,0.0,0.0,0.0,0.0,0.0,0.0,3.9391,3.9391,3.9571,3.99,0.0,3.9571,3.99,3.9571,3.9571,3.9888,3.9541,3.9571,3.984,3.9541,3.9391,3.9391,3.9391,3.9391,3.9391,0.0,0.0,0.0,3.975,4.0886,4.2619,4.5008,4.754,5.0416,5.4571,5.8472,6.2312,6.6419,6.9209,7.1451,7.3439,7.5675,7.7154,7.6053,7.3322,6.9815,6.5706,6.0093,5.4313,4.9058,4.6656,4.5801,4.6852,5.0805,5.5879,6.1851,6.6924,7.292,8.0989,8.2679,8.4504,8.8245,8.8993,8.9052,8.8723,8.7796,8.7077,8.6748,8.612,8.5132,8.3777,8.3397,8.2469,8.0853,8.0165,7.9178,7.7831,7.7137,7.6479,7.5886,7.5198,7.4903,7.4903,7.4903,7.4903,7.4903,7.454,7.4031,7.3373,7.2684,7.1846,7.0919,7.0263,6.9782,6.9423,6.8764,6.8704,6.8914,0.0,0.0,0.0,0.0,0.0,0.0,0.0,3.7122,3.929,4.278,4.3419,4.2442,3.9577,3.823,3.7494,0.0,0.0,0.0,0.0,0.0,0.0,0.0,0.0,0.0,3.9391,0.0,0.0,4.0187,3.966,0.0,0.0,0.0,0.0,0.0,3.9391,3.9391,3.9391,3.9391,3.9391,0.0,0.0,3.9391,0.0,0.0,0.0,0.0,0.0,4.0233,4.1657,4.3879,4.6811,5.0435,5.5202,5.9222,6.2982,6.7353,7.038,7.3057,7.6322,7.8226,7.9249,7.9357,7.501,6.9478,6.4864,5.9207,5.3079,4.6618,4.5263,4.5536,4.6547,5.0042,5.4243,5.8793,6.2729,6.8268,7.6958,7.9118,8.1931,8.7586,8.9202,8.9621,8.9003,8.8304,8.7796,8.7496,8.6718,8.5581,8.3987,8.3068,8.2058,8.0823,8.0165,7.9118,7.7622,7.7048,7.642,7.5677,7.5138,7.4903,7.4903,7.4903,7.4903,7.4903,7.4903,7.451,7.3851,7.3343,7.2624,7.1787,7.0802,7.0323,7.0111,6.9453,6.9303,6.9363,0.0,0.0,0.0,0.0,0.0,0.0,0.0,3.7923,4.1534,4.5433,4.4925,4.3658,4.2201,4.1373,3.9996,0.0,0.0,0.0,0.0,0.0,0.0,0.0,0.0,0.0,0.0,0.0,0.0,3.9481,3.9421,0.0,0.0,0.0,0.0,0.0,0.0,3.9391,3.9391,3.9391,0.0,0.0,0.0,0.0,0.0,0.0,0.0,0.0,0.0,4.0263,4.1715,4.3884,4.6675,4.967,5.2122,5.7377,6.2936,6.4387,6.9209,7.441,7.5846,7.7454,7.8847,7.9232,7.5345,6.9942,6.4456,5.8575,5.2567,4.6518,4.5311,4.5866,4.7788,4.829,5.1193,5.957,6.0117,6.3366,7.4608,7.828,8.1572,8.6339,8.9052,9.0279,8.9692,8.8993,8.8095,8.6908,8.5611,8.4803,8.4624,8.2858,8.1542,8.0823,8.0165,7.8842,7.6898,7.6808,7.6215,7.4993,7.4933,7.4903,7.4903,7.4903,7.4903,7.4903,7.4903,7.451,7.3881,7.3821,7.3043,7.1876,7.1757,7.1338,7.0739,7.0111,7.0231,7.056,0.0,0.0,0.0,0.0,0.0,0.0,0.0,3.8286,4.1365,4.5732,4.6561,4.6052,4.4337,4.3539,4.1594,0.0,0.0,0.0,0.0,0.0,0.0,0.0,0.0,0.0,0.0,0.0,3.9391,3.9391,3.9391,0.0,0.0,0.0,0.0,0.0,0.0,3.9391,3.9391,3.9391,0.0,0.0,0.0,0.0,0.0,0.0,0.0,0.0,0.0,0.0,4.0991,4.2243,4.4152,4.6181,4.7113,5.0899,5.6266,6.2817,6.8313,7.3331,7.8214,8.1194,8.279,8.2095,7.7726,7.1588,6.4188,5.7872,5.2007,4.6441,4.4975,4.5185,4.68,4.7681,4.9828,5.4899,5.52,5.8208,6.7982,7.0228,7.4091,8.2747,8.5372,8.7426,9.001,8.9651,8.8723,8.7377,8.606,8.5132,8.4743,8.3217,8.1938,8.0823,8.0165,7.8812,7.6808,7.6779,7.6185,7.4903,7.4903,7.4903,7.4903,7.4903,7.4903,7.4903,7.4903,7.4753,7.445,7.4061,7.3582,7.3043,7.2654,7.2355,7.2086,7.1846,7.1637,7.1427,0.0,0.0,0.0,0.0,0.0,0.0,3.6668,3.8948,4.1654,4.5493,4.701,4.71,4.5484,4.4018,4.1904,3.8841,0.0,0.0,0.0,0.0,0.0,0.0,0.0,0.0,0.0,0.0,3.9391,3.9391,3.9391,3.9391,0.0,0.0,3.9391,3.9391,0.0,0.0,0.0,0.0,0.0,0.0,0.0,0.0,0.0,0.0,0.0,0.0,0.0,0.0,0.0,0.0,0.0,4.3755,4.4074,4.6291,5.0505,5.912,6.5,7.0221,7.7233,8.1231,8.3331,8.2698,7.825,7.1819,6.3408,5.7034,5.1379,4.6112,4.4796,4.4925,4.6091,4.7249,4.8865,5.1468,5.1917,5.479,6.299,6.4785,6.8675,7.7771,8.0375,8.3119,8.7586,8.8663,8.8693,8.7766,8.6449,8.5312,8.4474,8.3187,8.1998,8.0823,7.9956,7.8639,7.6808,7.6779,7.6185,7.4903,7.4903,7.4903,7.4903,7.4903,7.4903,7.4903,7.4903,7.4903,7.4873,7.436,7.4061,7.3851,7.3373,7.2954,7.2624,7.2834,7.2475,7.2005,0.0,0.0,0.0,0.0,0.0,0.0,0.0,4.0138,4.308,4.5035,4.5882,4.6061,4.5364,4.2402,4.0696,4.1313,0.0,0.0,0.0,0.0,0.0,0.0,0.0,0.0,0.0,0.0,3.9391,3.9391,3.9391,3.9391,3.9391,3.9391,3.9391,3.9391,0.0,0.0,0.0,0.0,0.0,0.0,0.0,0.0,0.0,0.0,0.0,0.0,0.0,0.0,0.0,0.0,0.0,0.0,0.0,4.5233,4.7317,5.2348,5.8451,6.4937,7.1112,7.5439,7.8454,7.9545,7.5856,6.9842,6.194,5.6017,5.072,4.5403,4.4825,4.5514,4.6181,4.6839,4.8177,5.0787,5.1206,5.3773,6.1104,6.4366,6.7478,7.1517,7.436,7.7532,8.1482,8.5432,8.7736,8.7706,8.6449,8.5132,8.3777,8.2499,8.1482,8.0823,7.9507,7.816,7.6808,7.6779,7.6185,7.4903,7.4903,7.4903,7.4903,7.4903,7.4903,7.4903,7.4903,7.4903,7.4903,7.4903,7.448,7.3881,7.3881,7.3073,7.1966,7.2654,7.2475,7.2199,0.0,0.0,0.0,0.0,0.0,0.0,0.0,3.6927,3.8823,4.0119,4.1467,4.2551,4.3229,4.1583,4.0666,4.1343,0.0,0.0,0.0,0.0,0.0,0.0,0.0,0.0,0.0,0.0,0.0,4.0079,4.0079,4.0079,4.0079,4.0079,3.984,3.9391,3.9391,3.9391,0.0,0.0,0.0,0.0,0.0,0.0,3.9391,0.0,0.0,0.0,0.0,0.0,0.0,0.0,0.0,0.0,0.0,0.0,0.0,4.8459,5.4954,6.2071,6.6326,7.026,7.2847,7.1413,6.8435,6.4305,5.8141,5.3683,4.986,4.639,4.5484,4.5633,4.68,4.716,4.8297,5.1379,5.1887,5.3653,5.8653,6.2421,6.6789,7.2565,8.0405,8.583,8.7087,8.7915,8.7975,8.7077,8.5761,8.4654,8.3748,8.208,8.0823,8.0165,7.8819,7.7711,7.6808,7.639,7.5766,7.4903,7.4903,7.4903,7.4903,7.4903,7.4903,7.4903,7.4903,7.4903,7.4903,7.4903,7.4783,7.4544,7.4061,7.3911,7.3945,7.3672,7.4172,7.5007,0.0,0.0,0.0,0.0,0.0,0.0,0.0,3.479,3.6136,3.7098,3.8128,3.9569,4.1773,4.0367,3.9828,4.1283,0.0,0.0,0.0,0.0,0.0,0.0,0.0,0.0,0.0,0.0,3.972,4.0397,4.0636,4.0756,4.0786,4.1044,4.0666,3.978,3.978,3.9631,0.0,0.0,0.0,0.0,0.0,0.0,3.9391,0.0,0.0,0.0,0.0,0.0,0.0,0.0,0.0,0.0,0.0,0.0,0.0,0.0,5.069,5.6316,6.1106,6.5144,6.7627,6.6221,6.3528,6.0027,5.5478,5.1678,4.8424,4.6031,4.5194,4.5334,4.6681,4.6711,4.7459,5.0272,5.0953,5.2396,5.6111,6.0266,6.5353,7.1966,8.0794,8.6329,8.6329,8.7287,8.7626,8.6788,8.5013,8.3696,8.3038,8.1362,8.0016,7.9088,7.825,7.7502,7.6808,7.6215,7.5557,7.4903,7.4903,7.4903,7.4903,7.4903,7.4903,7.4903,7.4903,7.4903,0.0,7.4903,7.4903,7.4873,7.442,7.477,7.5435,7.5253,7.6063,7.7371,0.0,0.0,0.0,0.0,0.0,0.0,0.0,0.0,0.0,0.0,3.5876,3.7265,4.0592,3.8841,3.8392,0.0,0.0,0.0,0.0,0.0,0.0,0.0,0.0,0.0,0.0,3.9391,3.972,4.0397,4.1134,4.1493,4.1553,0.0,4.1792,4.0457,4.0457,4.0068,0.0,0.0,0.0,0.0,0.0,0.0,0.0,0.0,0.0,0.0,0.0,0.0,0.0,0.0,0.0,0.0,0.0,0.0,0.0,0.0,0.0,0.0,0.0,5.9608,6.224,6.263,6.0027,5.65,5.3354,4.9793,0.0,4.4685,4.4296,4.4745,4.6181,4.5873,4.6082,4.8289,4.9127,5.0654,5.3952,5.871,6.4276,7.0709,7.7203,8.1093,8.0943,8.4384,8.6608,8.6519,8.4154,8.2477,8.1811,8.0494,7.9178,7.7921,7.7801,7.7442,7.6719,7.6155,7.5497,7.4903,7.4903,7.4903,7.4903,7.4903,7.4903,7.4903,7.4903,7.4903,7.4903,7.4903,7.4903,7.4903,7.498,7.5574,7.6454,7.7172,7.8124,7.9324,0.0,0.0,0.0,0.0,0.0,0.0,0.0,0.0,0.0,0.0,3.4691,3.5945,3.6789,3.7195,3.7627,0.0,0.0,0.0,0.0,0.0,0.0,0.0,0.0,0.0,0.0,3.914,3.972,4.0397,4.1583,4.2421,4.296,4.3569,0.0,4.1164,4.1164,0.0,0.0,0.0,0.0,0.0,0.0,0.0,0.0,0.0,0.0,0.0,3.9391,4.0277,0.0,0.0,0.0,0.0,0.0,0.0,0.0,0.0,4.4715,4.6142,4.7848,0.0,5.2211,5.081,5.0129,4.9374,0.0,4.6441,4.5484,4.4506,4.4296,4.5014,4.7399,4.686,4.7399,5.1402,5.1738,5.2665,5.5957,6.3887,7.1248,7.6335,8.1422,8.3936,8.2477,8.4543,8.5521,8.4465,8.2918,8.1968,8.1781,8.0045,7.8878,7.8579,7.7592,7.6719,7.6125,7.5467,7.5083,7.4903,7.4903,7.4903,7.4903,7.4903,7.4903,7.4903,7.4903,7.4903,7.4903,7.4903,7.4903,7.498,7.5719,7.6408,7.7172,7.8121,7.9706,8.1479,0.0,0.0,0.0,0.0,0.0,0.0,0.0,0.0,0.0,0.0,0.0,0.0,0.0,0.0,0.0,0.0,0.0,0.0,0.0,0.0,0.0,0.0,0.0,0.0,0.0,3.9212,3.9888,4.0846,4.1882,4.287,0.0,0.0,0.0,0.0,4.0876,0.0,0.0,0.0,0.0,0.0,3.9391,0.0,0.0,0.0,0.0,0.0,3.9391,4.0277,0.0,4.1782,4.291,4.4147,0.0,0.0,0.0,0.0,4.3818,4.4386,4.4386,4.677,4.9037,4.7938,4.7489,4.713,4.6381,4.5274,4.4267,4.3908,4.3848,4.4476,4.6531,4.6082,4.6711,5.0744,5.1828,5.4192,5.9937,6.667,7.2954,7.816,8.2118,8.4453,8.4573,8.4983,8.4833,8.3777,8.223,8.1212,8.0883,7.9267,7.819,7.7891,7.6933,7.6245,7.5916,7.5228,7.4903,7.4903,7.4903,7.4903,7.4903,7.4903,7.4903,7.4903,7.4903,7.4903,7.4903,7.4903,7.535,7.6039,7.6562,7.7873,7.9616,8.0165,8.1611,8.331,0.0,0.0,0.0,0.0,0.0,0.0,0.0,0.0,0.0,0.0,0.0,0.0,0.0,0.0,0.0,0.0,0.0,0.0,0.0,0.0,0.0,0.0,0.0,0.0,3.9391,3.9391,4.0008,4.1254,4.2321,4.3409,0.0,0.0,4.4187,0.0,0.0,0.0,0.0,0.0,0.0,0.0,3.9391,0.0,0.0,0.0,0.0,0.0,0.0,0.0,0.0,4.2201,4.3559,4.4915,4.4326,0.0,0.0,0.0,0.0,0.0,4.3648,4.6471,4.9157,4.8528,4.7668,4.695,4.6741,4.4925,4.329,4.329,4.3379,4.3967,4.5603,4.5514,4.6352,4.9786,5.224,5.6585,6.4755,6.8704,7.2688,7.7861,8.104,8.3585,8.5581,8.4953,8.4175,8.3598,8.1871,8.0464,7.9716,7.8489,7.7472,7.6689,7.6185,7.5856,7.5736,7.5168,7.4903,7.4903,7.4903,7.4903,7.4903,7.4903,7.4903,7.4903,7.4903,7.4843,7.4753,7.5116,7.6005,7.7199,7.7806,7.9739,8.223,8.2487,8.3421,8.4614,0.0,0.0,0.0,0.0,0.0,0.0,0.0,0.0,0.0,0.0,0.0,0.0,0.0,0.0,0.0,0.0,0.0,0.0,0.0,0.0,0.0,0.0,0.0,3.9391,3.9391,3.9391,3.978,4.0546,4.3449,0.0,4.5185,4.748,4.6642,4.3199,0.0,0.0,0.0,0.0,0.0,0.0,3.9391,0.0,0.0,0.0,0.0,0.0,0.0,0.0,0.0,4.2381,4.296,4.3609,4.3489,0.0,0.0,0.0,0.0,0.0,4.5373,4.7519,4.8468,4.5074,4.4915,4.5304,4.4177,4.3609,4.329,4.329,4.3758,4.5095,4.8109,4.9015,5.0578,5.4516,5.8201,6.278,6.9123,7.2385,7.4869,7.6868,8.0464,8.2507,8.1781,8.2567,8.3046,8.2956,8.1601,8.0255,7.8998,7.822,7.7263,7.6096,7.5946,7.5617,7.5083,7.4963,7.4903,7.4903,7.4903,7.4903,7.4903,7.4903,7.4903,7.4903,7.4903,7.4604,7.4196,7.6123,7.6754,7.6803,8.015,8.1766,8.2373,8.3729,8.4392,8.4614,0.0,0.0,0.0,0.0,0.0,0.0,0.0,0.0,0.0,0.0,0.0,0.0,0.0,0.0,0.0,0.0,0.0,0.0,0.0,0.0,0.0,0.0,4.0127,3.9948,3.9948,4.0636,4.1863,4.3579,4.5813,4.7459,4.8476,4.7549,4.5415,4.2271,0.0,3.9978,3.9391,3.9391,0.0,0.0,0.0,0.0,0.0,0.0,0.0,0.0,0.0,0.0,0.0,0.0,4.3569,4.4296,4.3938,0.0,0.0,0.0,0.0,0.0,4.4446,4.5873,4.6882,4.5732,4.701,4.8057,4.6381,4.5433,4.5134,4.5852,4.5963,4.695,5.0265,5.1708,5.4256,6.0027,6.3378,6.6849,7.1368,7.3343,7.5377,7.8095,8.0375,8.202,8.2828,8.2866,8.2657,8.2297,8.1003,7.9686,7.834,7.7622,7.6844,7.5946,7.5557,7.5198,7.4903,7.4903,7.4903,7.4903,7.4903,7.4903,7.4903,7.4903,7.4903,7.4903,7.4903,7.5207,7.5808,7.6873,7.8156,7.9685,8.1487,8.2713,8.3619,8.4339,8.4614,8.4614,0.0,0.0,0.0,0.0,0.0,0.0,0.0,0.0,0.0,0.0,0.0,0.0,0.0,0.0,0.0,0.0,0.0,0.0,0.0,0.0,3.984,4.0894,4.0726,4.0905,4.1534,4.2391,4.4107,4.6749,4.8416,4.9972,5.1355,4.7549,4.4347,4.1773,0.0,3.969,3.9421,3.9571,3.9631,0.0,0.0,0.0,0.0,0.0,0.0,0.0,0.0,0.0,0.0,0.0,0.0,0.0,0.0,0.0,0.0,4.3848,4.3529,4.3638,4.4117,4.5005,4.6022,4.704,4.8805,5.0152,4.9583,4.8416,4.7916,4.9553,4.9494,5.0002,5.2845,5.5089,5.859,6.4904,6.7747,7.035,7.3821,7.4719,7.6335,7.9866,8.0734,8.1871,8.4055,8.3217,8.2238,8.1392,8.0225,7.8938,7.7442,7.6868,7.6335,7.5677,7.5172,7.4903,7.4903,7.4903,7.4903,7.4903,7.4903,7.4903,7.4903,7.4903,7.4903,7.4903,7.5102,7.5922,7.7106,7.7684,7.9537,8.2024,8.2363,8.337,8.4614,8.4614,8.4614,8.4614,0.0,0.0,0.0,0.0,0.0,0.0,0.0,0.0,0.0,0.0,0.0,0.0,0.0,0.0,0.0,0.0,0.0,0.0,0.0,0.0,3.9451,3.9541,4.0696,4.2451,4.4885,4.4436,4.5484,4.8169,5.069,5.1977,5.2067,4.8716,4.5732,4.313,4.1833,4.0546,3.9451,4.0068,4.0337,4.0397,0.0,0.0,0.0,0.0,0.0,0.0,0.0,0.0,0.0,0.0,0.0,0.0,0.0,0.0,4.4356,4.4267,4.4237,4.4625,4.6531,4.71,4.7189,4.7279,4.7459,4.8506,5.2061,5.1828,5.1565,5.4162,5.467,5.5059,5.6466,6.0326,6.4485,6.8136,7.0889,7.3911,7.7831,7.84,7.9238,8.1392,8.1691,8.2058,8.2866,8.2297,8.1332,8.0045,7.9267,7.8041,7.6155,7.6006,7.5647,7.4993,7.4933,7.4903,7.4903,7.4903,7.4903,7.4903,7.4903,7.4903,7.4903,7.4903,7.4903,7.4941,7.5758,7.6231,7.6553,7.8875,8.0387,8.1401,8.2852,8.3892,8.4614,8.4614,8.4614,8.4614,0.0,0.0,0.0,0.0,0.0,0.0,0.0,0.0,0.0,0.0,0.0,0.0,0.0,0.0,0.0,0.0,0.0,0.0,0.0,0.0,3.978,4.0606,4.1134,4.2451,4.4646,4.6471,4.8895,5.1977,5.3384,5.2995,5.0877,4.7608,0.0,4.2073,4.1175,4.0726,4.0636,4.0457,4.0876,4.1613,4.1463,0.0,0.0,0.0,0.0,0.0,0.0,0.0,0.0,0.0,4.3788,4.3878,4.3728,4.4237,4.4855,4.4416,4.4296,4.4476,4.5244,4.6352,4.7489,4.8349,4.9434,5.084,5.2779,5.4072,5.5508,5.7782,5.9246,6.0625,6.2331,6.5084,6.8046,7.0949,7.3608,7.627,7.9058,7.9417,7.9866,8.1033,8.1183,8.1272,8.1512,8.0943,8.0165,7.9238,7.8549,7.7502,7.5976,7.5916,7.5587,7.4933,7.4903,7.4903,7.4903,7.4903,7.4903,7.4903,7.4903,7.4903,7.4903,7.4903,7.521,7.5726,7.6067,7.7119,7.8696,8.0108,8.147,8.2738,8.3785,8.4343,8.4614,8.4614,8.4614,8.4614,0.0,0.0,0.0,0.0,0.0,0.0,0.0,0.0,0.0,0.0,0.0,0.0,0.0,0.0,0.0,0.0,0.0,0.0,0.0,3.9272,3.981,4.0726,4.1164,4.2331,4.4237,4.757,5.0594,5.324,5.4341,5.3294,5.0136,0.0,0.0,0.0,4.1803,4.1803,4.2571,4.1683,4.1833,4.2631,4.2162,4.2252,0.0,0.0,0.0,0.0,0.0,0.0,0.0,0.0,4.3788,4.3967,4.3938,4.4556,4.5214,4.4766,4.4616,4.4566,4.4356,4.5284,4.6681,4.8019,5.0272,5.2815,5.5149,5.7064,5.9279,6.254,6.3947,6.5054,6.637,6.7926,6.9782,7.2206,7.4988,7.7496,7.9537,7.9627,7.9806,8.0704,8.0614,8.0494,8.0494,7.9896,7.9118,7.822,7.7562,7.6724,7.5647,7.5587,7.5377,7.4933,7.4659,7.4693,7.4903,7.4484,7.4484,7.4903,7.4693,7.4723,7.4903,7.5422,7.5991,7.6608,7.7402,7.8886,8.0748,8.1288,8.2308,8.3558,8.4309,8.4614,8.4614,8.4614,8.4614,8.4614,0.0,0.0,0.0,0.0,0.0,0.0,0.0,0.0,0.0,0.0,0.0,0.0,0.0,0.0,0.0,0.0,0.0,0.0,0.0,3.9032,3.9391,3.9391,4.0666,4.2282,4.4207,4.754,4.9905,5.1206,5.318,5.2791,5.0106,4.8185,0.0,0.0,4.4237,4.4057,4.5185,4.3878,4.329,4.3339,4.3309,4.329,0.0,0.0,0.0,0.0,0.0,0.0,0.0,0.0,4.3848,4.3549,4.4885,4.5304,4.5304,4.5304,4.5304,4.5185,4.4496,4.4326,4.4655,4.6001,4.9344,5.3803,5.9787,6.1134,6.2781,6.8703,6.8914,6.8017,6.8047,6.8555,6.9662,7.1577,7.4659,7.7496,7.95,7.9238,7.9297,8.0614,8.0195,7.9806,7.977,7.9178,7.822,7.6868,7.6245,7.5617,7.4963,7.4903,7.4903,7.4903,7.424,7.421,7.4873,7.3552,7.3582,7.4873,7.421,7.4274,7.4971,7.6568,7.7322,7.7486,7.9986,8.1506,8.218,8.2342,8.2847,8.3592,8.4309,8.458,8.4614,8.4614,8.4614,8.4614,0.0,0.0,0.0,0.0,0.0,0.0,0.0,0.0,0.0,0.0,0.0,0.0,0.0,0.0,0.0,0.0,0.0,0.0,0.0,3.9302,3.9391,3.9391,4.0247,4.0965,4.1534,4.4816,4.8289,5.1917,5.2516,5.0936,4.7437,0.0,0.0,4.4267,0.0,0.0,4.4566,4.4177,4.4267,4.4616,4.3698,4.3559,4.3997,0.0,0.0,0.0,0.0,0.0,0.0,0.0,0.0,0.0,4.4476,4.5903,4.713,4.5723,4.6292,4.704,4.5454,4.6381,4.8139,4.9411,5.306,5.7517,6.2091,6.3139,6.4695,7.0171,7.029,6.9694,7.0592,7.0889,7.1517,7.3043,7.5288,7.7317,7.8878,7.8908,7.8759,7.8699,7.8519,7.822,7.7736,7.7496,7.7048,7.6245,7.6006,7.5617,7.4963,7.4903,7.4659,7.421,7.4001,7.3762,7.3492,7.3103,7.3103,7.3492,7.3283,7.4402,7.657,7.6535,7.7526,7.9212,7.9444,8.0309,8.1603,8.2158,8.3152,8.4242,8.3964,8.414,8.4614,8.4614,8.4614,8.4614,0.0,0.0,0.0,0.0,0.0,0.0,0.0,0.0,0.0,0.0,0.0,0.0,0.0,0.0,0.0,0.0,0.0,0.0,0.0,0.0,3.9391,3.9391,4.0038,4.0876,4.1923,4.4676,4.707,4.9075,5.0122,4.9164,0.0,0.0,4.7326,4.654,0.0,4.8686,4.6988,4.6501,4.6202,4.6052,4.5514,4.5394,4.5514,0.0,0.0,0.0,0.0,0.0,0.0,0.0,0.0,0.0,4.4207,4.5424,4.6531,4.5574,4.6142,4.689,4.5963,4.748,4.9845,5.2217,5.6077,6.0448,6.4964,6.7208,6.9303,7.2774,7.2654,7.2235,7.3283,7.3043,7.3133,7.448,7.5886,7.7167,7.825,7.816,7.7861,7.7472,7.7412,7.7227,7.6838,7.6569,7.6305,7.5946,7.5647,7.5318,7.4933,7.4663,7.43,7.3911,7.3373,7.3043,7.2924,7.2385,7.2685,7.3794,7.3553,7.5144,7.833,7.7274,7.7956,7.9995,8.0204,8.0821,8.1765,8.2238,8.3118,8.4072,8.3355,8.3667,8.4512,8.3937,8.4106,8.4546,0.0,0.0,0.0,0.0,0.0,0.0,0.0,0.0,0.0,0.0,0.0,0.0,0.0,0.0,0.0,0.0,0.0,0.0,0.0,0.0,3.9421,3.9481,4.0229,4.1803,4.4237,4.6052,4.6061,4.4296,4.692,4.7489,0.0,0.0,5.0548,5.1176,0.0,5.2396,5.087,4.9636,4.8349,4.7189,4.7908,4.7818,4.7219,4.7279,0.0,0.0,0.0,0.0,0.0,0.0,0.0,0.0,4.4117,4.4386,4.4566,4.5065,4.5334,4.5633,4.636,4.7997,5.0474,5.467,5.889,6.3318,6.8315,7.2295,7.5078,7.5467,7.5228,7.5172,7.5707,7.4809,7.442,7.5707,7.633,7.6928,7.7622,7.7167,7.6779,7.6719,7.6719,7.6689,7.6629,7.6125,7.5796,7.5736,7.5198,7.4873,7.4813,7.421,7.3881,7.3821,7.2565,7.2245,7.2947,7.1716,7.2527,7.5215,7.4625,7.6236,7.9747,7.8413,7.8615,8.0113,8.1629,8.2306,8.2306,8.2306,8.2746,8.3321,8.2611,8.3159,8.4242,8.2889,8.3227,8.4309,0.0,0.0,0.0,0.0,0.0,0.0,0.0,0.0,0.0,0.0,0.0,0.0,0.0,0.0,0.0,0.0,0.0,0.0,0.0,0.0,3.9631,4.0157,4.1784,4.319,4.4267,4.4207,4.4207,4.4296,4.6471,0.0,0.0,0.0,0.0,5.0518,0.0,5.2097,4.8865,4.8057,4.695,4.5813,4.704,4.713,4.657,4.71,4.6052,0.0,0.0,0.0,0.0,0.0,0.0,0.0,4.4237,4.5014,4.5702,4.4775,4.5633,4.713,4.8349,4.9703,5.2247,5.8321,6.4366,6.9512,7.2235,7.433,7.5138,7.3163,7.43,7.5557,7.5168,7.4903,7.4929,7.5766,7.6006,7.6335,7.6928,7.6868,7.6599,7.6155,7.6096,7.5886,7.5347,7.5168,7.4899,7.436,7.4659,7.4693,7.4121,7.3971,7.3672,7.3133,7.2325,7.2319,7.3198,7.2891,7.3629,7.5501,7.5372,7.6357,7.8376,7.8545,7.9203,8.0213,8.1129,8.1528,8.1528,8.1528,8.1968,8.2577,8.1832,8.2069,8.2821,8.2543,8.2584,8.2923,0.0,0.0,0.0,0.0,0.0,0.0,0.0,0.0,0.0,0.0,0.0,0.0,0.0,0.0,0.0,0.0,0.0,0.0,0.0,0.0,0.0,0.0,4.1863,4.2831,4.3818,4.321,4.303,0.0,0.0,0.0,0.0,0.0,0.0,5.2671,0.0,5.3114,4.9673,4.9314,4.8574,4.7766,4.9105,4.9434,4.9082,4.8813,4.7048,4.4706,4.4057,0.0,0.0,0.0,0.0,0.0,0.0,0.0,4.4865,4.4796,4.5753,4.7228,4.9194,5.1618,5.5418,6.2989,6.8645,7.2684,7.4061,7.4899,7.5018,7.3646,7.4929,7.6155,7.5497,7.5617,7.5826,7.5886,7.5916,7.6006,7.63,7.6096,7.5766,7.5437,7.5407,7.5258,7.4933,7.4903,7.4783,7.4424,7.4424,7.424,7.3911,7.3283,7.2774,7.2445,7.2143,7.2208,7.2735,7.3459,7.4447,7.5686,7.6335,7.7528,7.902,7.9334,7.9786,8.0209,8.0615,8.075,8.075,8.075,8.119,8.1799,8.1054,8.1426,8.2306,8.1629,8.1799,8.2475,0.0,0.0,0.0,0.0,0.0,0.0,0.0,0.0,0.0,0.0,0.0,0.0,0.0,0.0,0.0,0.0,0.0,0.0,0.0,0.0,0.0,0.0,4.1523,4.2102,4.326,4.2601,0.0,0.0,0.0,0.0,0.0,0.0,0.0,5.5414,0.0,5.4221,5.1176,5.0697,5.0069,4.9471,5.0787,5.1289,5.1079,0.0,0.0,4.4975,4.3878,4.3908,4.4496,4.4596,0.0,0.0,0.0,0.0,4.3997,4.4885,4.5523,4.654,4.9172,5.3563,5.9306,6.7178,7.1547,7.4061,7.4753,7.4903,7.4903,7.4903,7.5736,7.6335,7.5826,7.6155,7.6335,7.5826,7.5736,7.5736,7.5736,7.5228,7.4903,7.4903,7.4903,7.4903,7.4903,7.4813,7.4693,7.454,7.4031,7.3672,7.3552,7.2385,7.1828,7.2091,7.1997,7.2203,7.2709,7.405,7.5162,7.6114,7.7464,7.8767,8.0006,8.0006,8.0073,8.0209,8.0209,8.0209,8.0209,8.0209,8.0547,8.1046,8.0445,8.0953,8.1866,8.0648,8.0987,8.2035,0.0,0.0,0.0,0.0,0.0,0.0,0.0,0.0,0.0,0.0,3.192,0.0,0.0,0.0,0.0,0.0,0.0,0.0,3.8452,0.0,0.0,4.1373,4.1961,4.2601,4.329,4.2132,0.0,0.0,0.0,0.0,0.0,0.0,0.0,5.6042,0.0,0.0,5.1056,4.8775,4.71,4.6082,4.7429,4.7608,4.7138,0.0,0.0,0.0,4.4237,4.4616,4.5244,4.5822,4.642,0.0,0.0,0.0,4.5702,4.4715,4.4496,4.5134,4.7818,5.5209,6.3437,6.8586,7.1876,7.4061,7.4753,7.4903,7.4903,7.4903,7.5053,7.5108,7.5053,7.5113,7.5142,7.5053,7.5053,7.5053,7.5053,7.4963,7.4903,7.4903,7.4903,7.4903,7.4903,7.436,7.3791,7.3223,7.3103,7.2774,7.2176,7.1457,7.1624,7.2922,7.1902,7.2572,7.52,7.5415,7.6265,7.7696,7.8547,7.9052,7.9261,7.9261,7.96,8.0209,8.0209,8.0209,8.0209,8.0209,8.0242,8.0344,8.0242,8.031,8.0479,8.0276,8.031,8.0581,0.0,0.0,0.0,0.0,0.0,0.0,0.0,0.0,0.0,0.0,0.0,0.0,0.0,0.0,0.0,3.5377,3.5421,3.6111,3.7945,3.919,4.0157,4.0816,4.1134,4.1583,4.2222,4.1324,0.0,0.0,0.0,0.0,0.0,5.1445,5.3743,0.0,0.0,0.0,0.0,4.9374,4.787,4.698,4.7219,4.7766,0.0,0.0,0.0,0.0,0.0,0.0,4.5454,4.6531,4.6809,4.6809,4.7279,0.0,0.0,0.0,4.5134,4.639,5.093,5.6974,6.3169,6.8196,7.1098,7.3133,7.4604,7.4903,7.4903,7.4903,7.4903,7.4903,7.4903,7.4604,7.445,7.4843,7.4569,7.445,7.4873,7.4903,7.4783,7.436,7.4693,7.4604,7.3851,7.3851,7.3612,7.2954,7.2206,7.1667,7.1368,7.1183,7.1384,7.1994,7.2696,7.369,7.5003,7.5903,7.691,7.8,7.7908,7.8077,7.8483,7.8483,7.8889,7.96,7.96,7.9837,8.0209,8.0209,8.0209,8.0209,8.0209,8.0209,8.0209,8.0209,8.0209,8.031,0.0,0.0,0.0,0.0,0.0,0.0,0.0,0.0,0.0,0.0,0.0,0.0,0.0,0.0,0.0,0.0,3.5182,3.5801,3.7825,3.8873,3.9631,4.0127,4.0157,4.0457,4.1134,4.0666,0.0,0.0,0.0,0.0,5.1738,5.2576,5.5329,0.0,5.7214,5.5269,0.0,0.0,0.0,0.0,0.0,0.0,0.0,0.0,0.0,0.0,0.0,0.0,4.5963,4.695,4.71,4.6958,4.7967,4.7271,0.0,0.0,0.0,4.7198,5.2486,5.6825,6.1044,6.6011,6.9333,7.1876,7.3735,7.4424,7.4659,7.4873,7.4903,7.4903,7.4903,7.433,7.4061,7.454,7.421,7.4001,7.433,7.4544,7.439,7.3732,7.4091,7.4001,7.3013,7.3193,7.3103,7.2445,7.1308,7.059,7.044,7.0771,7.1116,7.1468,7.3113,7.4137,7.4502,7.5708,7.6792,7.7705,7.7164,7.7198,7.7705,7.7705,7.8111,7.8822,7.9025,7.9532,8.0209,8.0209,8.0209,8.0209,8.0209,8.0209,8.0209,8.0209,8.0209,8.0276,0.0,0.0,0.0,0.0,0.0,0.0,0.0,0.0,0.0,0.0,0.0,0.0,0.0,3.3475,3.4722,3.4483,3.5642,3.6956,3.8292,3.9014,3.9421,3.9451,3.9451,0.0,4.0427,4.0427,0.0,0.0,0.0,0.0,5.3139,5.4431,5.8141,6.3558,6.0326,5.8501,5.7457,0.0,0.0,0.0,0.0,0.0,0.0,0.0,0.0,0.0,0.0,0.0,4.7219,4.7279,4.7698,4.8229,4.8289,4.8229,4.7878,0.0,0.0,0.0,4.9531,5.3384,5.742,6.1433,6.6281,7.038,7.1727,7.3043,7.4121,7.4783,7.4903,7.4903,7.4903,7.433,7.3911,7.3941,7.3911,7.3702,7.3103,7.3552,7.3702,7.3043,7.2984,7.2984,7.2924,7.2355,7.1727,7.1068,7.041,6.9752,6.9123,6.9823,7.0897,7.2285,7.2444,7.3185,7.4553,7.4681,7.5473,7.6961,7.6927,7.6927,7.6961,7.6961,7.7367,7.8102,7.8822,7.9532,8.0209,8.0209,8.0209,8.0209,8.0209,8.0209,8.0209,8.0209,8.0209,8.0209,0.0,0.0,0.0,0.0,0.0,0.0,0.0,0.0,0.0,0.0,0.0,0.0,0.0,3.4966,3.5755,3.6039,3.7456,3.8258,3.8025,3.8868,3.9391,3.9391,3.981,4.0157,4.0397,4.0816,0.0,0.0,0.0,4.648,5.1977,5.3743,5.7274,6.2061,6.0027,5.8979,5.8411,5.309,0.0,0.0,0.0,0.0,0.0,0.0,0.0,0.0,4.7728,4.7997,4.8768,5.0032,4.9786,4.9007,4.9404,4.8656,4.7489,4.657,4.6121,4.6501,4.8955,5.1259,5.4162,5.8979,6.257,6.5473,6.7627,7.0111,7.1936,7.1789,7.3073,7.4121,7.3702,7.3432,7.3402,7.3821,7.3163,7.2684,7.2894,7.3133,7.3013,7.2325,7.2265,7.1936,7.1098,7.0799,7.038,6.9722,6.9064,6.8437,6.7747,6.9352,7.0303,7.0401,7.2175,7.3369,7.3883,7.4356,7.4874,7.5439,7.5912,7.6115,7.6115,7.6115,7.6792,7.8034,7.828,7.9092,8.0209,8.0209,8.0209,8.0209,8.0209,8.0209,8.0209,8.0209,8.0209,8.0209,0.0,0.0,0.0,0.0,0.0,0.0,0.0,0.0,0.0,0.0,0.0,0.0,0.0,0.0,3.6991,3.743,3.8631,3.9208,3.8708,3.9117,3.9601,4.0068,4.0277,4.0606,4.1074,0.0,0.0,0.0,0.0,0.0,0.0,5.3503,5.7004,6.1373,5.9578,5.9638,0.0,0.0,0.0,5.2851,0.0,0.0,5.0175,0.0,4.9935,5.1312,5.1498,5.1462,5.1372,5.1977,5.1169,4.9935,4.9912,0.0,0.0,0.0,4.6629,4.695,4.8289,4.9733,5.2013,5.6915,5.9129,6.1134,6.5114,6.7358,6.8854,6.9782,7.1368,7.2654,7.2864,7.2535,7.2445,7.3103,7.2295,7.1637,7.1906,7.2116,7.1906,7.1009,7.0919,7.059,6.9722,6.9662,6.9273,6.8405,6.8361,6.8001,6.7093,6.9312,7.0526,7.0355,7.2171,7.3105,7.3105,7.3612,7.3984,7.4255,7.4999,7.5337,7.5337,7.5574,7.642,7.7638,7.7638,7.8619,8.0209,8.0209,8.0209,8.0209,8.0209,8.0209,8.0209,8.0209,8.0209,8.0209,0.0,0.0,0.0,0.0,0.0,0.0,0.0,0.0,0.0,0.0,0.0,0.0,0.0,0.0,0.0,3.8529,3.911,3.975,4.0397,3.981,4.0038,4.1343,4.0786,4.1074,4.2381,0.0,0.0,0.0,0.0,0.0,0.0,0.0,5.7483,6.1792,5.9279,6.0597,6.4545,6.0595,5.8979,5.862,5.2671,5.1146,5.2665,5.5204,5.5803,5.5538,5.7453,5.6944,5.5029,5.3114,5.1977,5.1116,4.9756,0.0,0.0,0.0,0.0,0.0,0.0,0.0,0.0,5.5055,5.6042,5.7749,6.4186,6.4695,6.4904,6.8852,6.9782,7.044,7.2385,7.1697,7.1038,7.1667,7.1278,7.0649,7.0083,7.047,7.038,6.9153,6.8974,6.8974,6.8944,6.8944,6.8375,6.7029,6.8265,6.8497,6.7131,6.971,7.16,7.2349,7.236,7.236,7.236,7.2428,7.2766,7.35,7.4255,7.4603,7.4627,7.5371,7.6149,7.6893,7.6893,7.8145,8.0141,8.0175,8.0175,8.0209,8.0209,8.0209,8.0209,8.0209,8.0209,8.0209,0.0,0.0,0.0,0.0,0.0,0.0,0.0,0.0,0.0,0.0,0.0,0.0,0.0,0.0,0.0,4.1283,4.1463,4.1433,4.1134,4.0954,4.1014,4.1373,4.1673,4.2021,4.2381,0.0,0.0,0.0,0.0,0.0,0.0,0.0,0.0,0.0,5.8321,5.9251,5.973,5.5807,5.6316,5.9368,5.4371,5.4311,5.7064,5.5897,5.6226,5.7427,5.8471,5.88,5.871,5.865,5.7244,5.482,5.1116,0.0,0.0,0.0,0.0,0.0,4.8027,0.0,0.0,0.0,0.0,0.0,5.6735,5.8261,5.9997,6.3528,6.5413,6.6849,6.8345,6.9123,6.9423,6.9125,6.9754,7.0021,6.9363,6.9423,6.9393,6.9034,6.8555,6.8107,6.7597,6.7537,6.6999,6.5622,6.7316,6.7783,6.6449,6.8543,7.0353,7.1571,7.1594,7.1594,7.1594,7.2665,7.3003,7.2732,7.4525,7.5134,7.4627,7.5371,7.6149,7.6893,7.6893,7.7536,7.8653,7.9194,7.9735,8.0209,8.0209,8.0209,8.0209,8.0209,8.0209,8.0209,0.0,0.0,0.0,0.0,0.0,0.0,0.0,0.0,0.0,0.0,0.0,0.0,0.0,0.0,0.0,0.0,4.241,4.2231,4.1822,4.1553,4.1643,4.2162,4.2551,4.293,4.3199,0.0,0.0,0.0,0.0,0.0,0.0,0.0,0.0,0.0,0.0,0.0,0.0,5.2127,5.4102,5.9428,5.6735,5.7693,6.0685,5.9967,6.0595,6.1972,6.3169,6.3528,6.3258,6.257,6.0176,5.6705,5.2073,0.0,0.0,0.0,0.0,0.0,0.0,0.0,0.0,5.1325,0.0,0.0,5.3922,5.464,5.5748,5.9638,6.1315,6.2781,6.4964,6.6011,6.649,6.6371,6.7208,6.7986,6.8136,6.8166,6.7956,6.7418,6.7238,6.6879,6.6221,6.6161,6.5982,6.5483,6.7153,6.8188,6.828,6.94,7.0459,7.1267,7.1289,7.1289,7.1289,7.2157,7.2529,7.2428,7.3713,7.4424,7.4603,7.5067,7.5676,7.6386,7.6386,7.6826,7.7604,7.8348,7.9092,7.9769,8.0073,8.0209,8.0209,8.0209,8.0209,8.0209,0.0,0.0,0.0,0.0,0.0,0.0,0.0,0.0,0.0,0.0,0.0,0.0,0.0,0.0,0.0,0.0,4.28,4.268,4.253,4.1942,0.0,0.0,0.0,0.0,0.0,0.0,0.0,0.0,0.0,0.0,0.0,0.0,0.0,0.0,0.0,0.0,0.0,5.0115,5.2785,5.868,5.8919,6.0864,6.3826,6.5562,6.667,6.7567,6.9393,6.9243,6.7808,6.4934,6.1523,5.7636,5.315,5.2366,5.251,4.9606,4.9553,0.0,0.0,0.0,0.0,0.0,5.1379,0.0,5.3743,5.2815,5.2312,5.6649,5.7487,5.8471,6.1731,6.2509,6.278,6.3169,6.4066,6.5144,6.658,6.6759,6.634,6.5144,6.5503,6.5652,6.4934,6.5083,6.5426,6.5964,6.7414,6.9196,7.1176,7.1289,7.1289,7.1289,7.1289,7.1289,7.1289,7.1357,7.1718,7.2293,7.2428,7.3172,7.4333,7.4458,7.483,7.5473,7.554,7.598,7.6724,7.7536,7.8348,7.9169,7.9904,8.0209,8.0209,8.0209,8.0209,8.0209,0.0,0.0,0.0,0.0,0.0,0.0,0.0,0.0,0.0,0.0,0.0,0.0,0.0,0.0,0.0,0.0,0.0,4.4287,0.0,0.0,0.0,0.0,0.0,0.0,0.0,0.0,0.0,4.3519,4.4027,4.4646,0.0,0.0,0.0,0.0,0.0,0.0,5.0235,5.2779,5.467,5.6107,5.7693,6.1822,6.7089,6.7479,6.8377,6.9544,7.038,7.0231,6.9065,6.5263,6.245,5.9907,5.6316,5.3922,5.2276,5.1618,5.1618,0.0,0.0,0.0,0.0,5.2695,5.242,0.0,5.1325,5.0787,5.1116,5.3623,5.3713,5.4192,5.703,5.8827,5.9578,5.859,6.0805,6.3318,6.5114,6.5383,6.5293,6.5024,6.5114,6.4904,6.4276,6.5715,6.6296,6.5366,6.7619,6.9679,7.1222,7.1289,7.1289,7.1289,7.1289,7.1289,7.1289,7.1887,7.1954,7.1548,7.2699,7.3105,7.2834,7.3443,7.3781,7.3974,7.4559,7.4897,7.5168,7.6555,7.7908,7.9169,7.9904,8.0209,8.0209,8.0209,8.0209,8.0209,0.0,0.0,0.0,0.0,0.0,0.0,0.0,0.0,0.0,0.0,0.0,0.0,0.0,0.0,0.0,0.0,0.0,0.0,0.0,0.0,0.0,0.0,0.0,0.0,0.0,0.0,0.0,4.5284,4.5284,4.5134,4.4825,0.0,0.0,0.0,0.0,4.8498,4.8917,5.0923,5.3288,5.5983,5.9279,6.3169,6.7089,6.8106,6.9544,7.1009,7.1667,7.1278,6.9842,6.5862,6.3828,6.2332,5.8381,5.6675,5.5807,5.4162,5.3683,5.3623,5.3288,5.3468,5.3623,5.3294,5.2695,0.0,0.0,4.971,4.98,5.1798,5.1169,5.1193,5.4156,5.494,5.5388,5.6047,5.7543,5.9458,6.1762,6.3469,6.4395,6.4096,6.4336,6.4246,6.3588,6.5115,6.6398,6.7099,6.9073,7.0551,7.1267,7.1289,7.1289,7.1289,7.1289,7.1289,7.1289,7.1684,7.1853,7.1853,7.2225,7.2597,7.2935,7.2935,7.3138,7.3534,7.3883,7.4255,7.4671,7.5845,7.7198,7.8619,7.9363,7.987,8.0209,8.0209,8.0209,8.0209,3.9541,0.0,0.0,0.0,0.0,0.0,0.0,0.0,0.0,0.0,0.0,0.0,0.0,0.0,0.0,0.0,0.0,0.0,0.0,0.0,0.0,0.0,0.0,4.5633,0.0,0.0,0.0,4.692,4.651,4.5762,4.4715,4.689,4.7489,4.6689,4.713,4.7938,4.9045,4.9045,5.1971,5.6941,6.1222,6.4066,6.6071,6.8345,7.0141,7.1607,7.2415,7.2026,7.05,6.67,6.5473,6.4785,6.0268,5.9428,5.9605,5.6915,5.5957,5.5568,5.4755,5.4635,5.473,5.476,5.3628,5.2163,0.0,0.0,0.0,5.0421,4.9284,4.8955,5.1732,5.1468,5.1468,5.3354,5.4431,5.5658,5.7513,6.0595,6.263,6.2539,6.26,6.272,6.2898,6.4233,6.6205,6.8991,7.0237,7.0985,7.1289,7.1289,7.1289,7.1289,7.1289,7.1289,7.1289,7.1289,7.1616,7.2191,7.156,7.1921,7.3037,7.2462,7.2496,7.3071,7.3229,7.3612,7.4231,7.5134,7.6318,7.7638,7.872,7.9566,8.0209,8.0209,8.0209,8.0225,3.9541,3.9948,0.0,0.0,0.0,0.0,0.0,0.0,0.0,0.0,0.0,0.0,0.0,0.0,0.0,0.0,0.0,0.0,4.7728,0.0,0.0,0.0,0.0,0.0,4.5633,0.0,0.0,0.0,4.6031,4.6211,4.6091,4.639,4.71,4.8027,4.7519,4.8955,5.1768,5.1768,5.4132,5.8145,6.1044,6.3378,6.5443,6.8675,6.9991,7.0288,7.1547,7.1906,7.1248,6.7897,6.7179,6.697,6.2899,6.0924,6.0054,5.9638,5.871,5.7995,5.9009,5.9757,5.9668,5.7363,5.7064,5.6231,5.2043,0.0,5.0428,4.8925,0.0,4.7698,4.8678,0.0,0.0,4.8327,5.1648,5.4012,5.3114,5.5807,5.8501,6.0264,5.8919,5.9009,6.1912,6.3867,6.6113,6.8965,6.9299,6.9925,7.1222,7.1289,7.1289,7.1289,7.1289,7.1289,7.1289,7.1289,7.1323,7.1424,7.1323,7.1391,7.1548,7.1458,7.1458,7.1594,7.2225,7.2563,7.2766,7.4153,7.5202,7.6183,7.828,7.9566,8.0209,8.0209,8.0209,8.0351,3.9451,4.0247,0.0,0.0,0.0,0.0,0.0,0.0,0.0,0.0,0.0,0.0,5.632,5.4221,5.3318,0.0,5.1492,4.9494,4.9942,4.8498,0.0,0.0,4.7549,4.7638,0.0,0.0,0.0,0.0,4.695,4.6659,4.63,4.6689,4.7766,4.9351,4.8745,5.0504,5.3922,5.3922,5.5329,5.7782,6.0864,6.2361,6.3229,6.7717,7.0111,7.1068,7.1248,7.1308,7.0919,6.8437,6.7508,6.6969,6.4545,6.2899,6.1761,6.1373,6.0027,5.88,5.9368,5.9727,5.9578,5.8082,5.7334,5.6166,5.3054,5.1445,5.0488,5.0092,0.0,0.0,0.0,0.0,0.0,0.0,4.9763,5.084,5.0996,5.1588,5.3713,5.8381,5.7543,5.7579,6.0167,6.1714,6.34,6.5327,6.6909,6.7861,6.803,6.9722,7.0669,7.0669,7.1075,7.1289,7.1289,7.1289,7.1289,7.1289,7.1289,7.1289,7.1289,7.1289,7.1289,7.1323,7.165,7.1988,7.2496,7.3544,7.4661,7.5845,7.7266,7.8551,7.9566,7.9566,7.9837,8.0376,3.966,0.0,0.0,0.0,0.0,0.0,0.0,0.0,0.0,5.3773,5.5478,5.7124,5.8501,5.7064,5.6615,5.8198,5.5388,5.3414,5.309,5.1199,5.0331,5.0907,4.9262,4.9254,5.1079,4.9134,0.0,0.0,4.7549,4.7317,4.7377,4.7519,4.8805,5.0996,5.0564,5.257,5.6286,5.6466,5.7693,5.9757,6.2181,6.3318,6.3917,6.7388,6.9812,7.1338,7.1009,7.0799,7.044,6.9035,6.8227,6.7537,6.6041,6.4665,6.3468,6.281,6.1343,5.9967,6.0146,6.0057,5.9727,5.886,5.7393,5.5713,5.3887,5.2217,5.1116,5.1415,5.0631,0.0,0.0,0.0,4.8775,0.0,0.0,4.9015,4.9591,4.9045,5.0451,5.5602,5.6196,5.6904,5.8696,5.9902,6.1064,6.2322,6.4208,6.5256,6.5087,6.7578,6.9147,6.9553,7.0297,7.0782,7.1007,7.1007,7.1109,7.1289,7.1289,7.1289,7.1289,7.1289,7.1289,7.1289,7.1289,7.1718,7.2428,7.2969,7.4052,7.5473,7.6048,7.7198,7.8551,7.8957,7.9621,8.058,4.0367,4.0924,0.0,0.0,4.3,4.4954,4.701,4.8528,5.0324,5.2899,5.4426,5.6466,5.9668,5.883,5.955,6.3408,5.9578,5.7214,5.7846,5.4251,5.1558,5.0285,5.0787,5.0219,4.8468,4.9531,4.9202,4.7339,4.7309,4.8245,5.0046,4.8835,4.9995,5.3109,5.3079,5.5269,5.9009,5.9668,6.2181,6.5742,6.5832,6.7418,6.9604,6.8466,6.8886,7.0111,7.0709,7.053,7.0023,6.9963,6.9933,6.9574,6.7537,6.6011,6.4815,6.4156,6.3019,6.2151,6.2808,6.248,6.1672,6.0356,5.8108,5.5833,5.4491,5.3623,5.2929,5.2306,5.3144,5.3832,5.3228,5.2516,0.0,0.0,0.0,0.0,0.0,4.8887,4.9816,5.1236,5.4251,5.6672,5.793,5.9018,6.0132,6.1338,6.1448,6.211,6.3477,6.5019,6.6474,6.7929,6.8741,6.9519,7.0251,7.0251,7.0601,7.1289,7.1289,7.1289,7.1289,7.1289,7.1289,7.1289,7.1289,7.1718,7.2394,7.2428,7.3308,7.4661,7.4637,7.5608,7.713,7.8585,7.9799,8.1042,0.0,0.0,0.0,4.2122,4.294,4.4625,4.7519,5.0205,5.3288,5.727,5.853,6.0864,6.5473,6.4784,6.4904,6.7119,6.4665,6.272,6.2061,5.9548,5.7902,5.7427,5.5927,5.479,5.4132,5.2845,5.1439,4.986,4.9045,4.9374,5.0847,4.9979,5.1349,5.4521,5.4521,5.6466,5.9847,6.1403,6.26,6.3617,6.5802,6.7986,7.0021,7.0442,7.056,7.062,7.0829,7.0769,7.059,7.059,7.032,6.9782,6.8675,6.7388,6.6191,6.5533,6.4395,6.3498,6.4186,6.4216,6.3588,6.1852,6.0086,5.8108,5.5448,5.467,5.4216,5.3109,5.4306,5.5055,5.3498,0.0,0.0,0.0,0.0,0.0,0.0,4.7459,4.7818,4.9134,5.1409,5.3175,5.3843,5.4835,5.5492,5.568,5.6865,5.8032,5.9032,6.2381,6.4918,6.6393,6.8639,6.9688,6.9451,7.0432,7.0804,7.0567,7.1075,7.1289,7.1289,7.1289,7.1289,7.1289,7.1289,7.1424,7.1718,7.2191,7.2969,7.3916,7.4424,7.5236,7.638,7.8655,8.004,8.1259,4.311,4.3389,4.3459,4.2821,4.3838,4.5523,4.7908,5.2067,5.6107,5.9308,6.1553,6.4425,6.8555,6.8615,6.8914,7.026,6.8974,6.7119,6.4874,6.3348,6.1943,6.0805,5.9308,5.8082,5.7124,5.5688,5.3952,5.1917,5.1103,5.1462,5.2965,5.1565,5.2576,5.5593,5.6017,5.7423,5.9608,6.3019,6.4245,6.4126,6.7418,6.9363,7.044,7.152,7.1338,7.062,7.0829,7.0769,7.062,7.0829,7.0649,7.0201,6.9542,6.8585,6.7567,6.6909,6.5772,6.4874,6.5533,6.5203,6.4396,6.3408,6.1792,5.9847,5.7483,5.7124,5.6915,5.5568,5.6705,5.7393,5.5598,5.4725,0.0,0.0,0.0,0.0,0.0,4.695,4.7048,4.8147,4.9823,5.1258,5.2307,5.2933,5.3113,5.2669,5.3764,5.4921,5.5953,5.9505,6.255,6.485,6.7286,6.8741,6.9113,6.9755,7.0263,7.0601,7.0804,7.1075,7.1289,7.1289,7.1289,7.1289,7.1289,7.1424,7.1718,7.1921,7.2597,7.3567,7.4018,7.4661,7.5638,7.8293,8.0425,8.2418,4.4476,4.4416,4.4296,4.3668,4.5613,4.7578,4.8379,5.3892,5.8294,5.9279,6.3348,6.6969,6.9123,7.044,7.1727,7.2984,7.2505,7.05,6.664,6.5742,6.3977,6.0743,6.1134,6.0236,5.7603,5.8022,5.6735,5.3588,5.3408,5.4336,5.6252,5.3623,5.3743,5.6252,5.7603,5.8145,5.8474,6.4395,6.6969,6.7358,7.059,7.1487,7.0979,7.1637,7.1131,7.0143,7.0649,7.047,7.0081,7.0649,7.0829,7.0709,7.0141,6.9512,6.8824,6.8227,6.7089,6.6191,6.6849,6.5622,6.4306,6.4904,6.311,6.1074,6.0296,6.0685,6.0775,5.9398,6.0176,6.0685,5.9279,5.745,0.0,0.0,0.0,0.0,0.0,4.7309,4.7549,4.8207,4.9366,5.095,5.3118,5.3177,5.2825,5.2252,5.2164,5.2807,5.4397,5.6596,5.9539,6.3274,6.4918,6.6812,6.9011,6.8335,6.9079,7.1222,7.0534,7.0601,7.1289,7.1289,7.1289,7.1289,7.1289,7.1718,7.2293,7.1594,7.2157,7.3466,7.35,7.402,7.5124,7.7694,8.0977,8.4457,4.5185,4.6232,4.7219,4.704,4.7189,4.8177,5.081,5.3892,5.7752,6.2811,6.6281,6.9752,7.3702,7.4839,7.5403,7.5762,7.5612,7.451,7.2026,7.1248,6.9871,6.7537,6.667,6.5443,6.3767,6.1493,5.9937,5.9069,5.6107,5.5688,5.7573,5.5927,5.5534,5.6282,5.856,5.9039,5.8414,6.3379,6.667,6.8675,7.0979,7.1487,7.0979,7.1637,7.1368,7.062,7.032,7.0111,7.0023,7.0171,6.9901,6.9542,6.9871,6.9215,6.8347,6.8645,6.7777,6.6879,6.7568,6.6999,6.6161,6.5832,6.4485,6.2839,6.1224,6.1373,6.1313,5.9488,6.0176,6.0386,5.8052,5.6406,5.4581,0.0,0.0,0.0,4.7459,4.7309,4.7549,4.8207,4.8762,4.9595,5.0922,5.051,5.0316,5.0649,5.0168,5.0744,5.2773,5.5547,5.8558,6.1772,6.4884,6.7049,6.8199,6.8605,6.935,7.0466,7.0297,7.0601,7.1289,7.1289,7.1289,7.1289,7.1289,7.1391,7.156,7.1357,7.1853,7.2732,7.3297,7.5293,7.8098,7.9958,8.2646,8.5528,4.6741,4.8446,5.0182,5.078,5.105,5.1887,5.4012,5.6795,6.0176,6.4426,6.8314,7.1487,7.3492,7.5552,7.6779,7.6779,7.6779,7.5851,7.3612,7.3672,7.2744,7.047,6.9662,6.8375,6.649,6.4066,6.2093,6.0655,5.7543,5.6735,5.8055,5.6196,5.5354,5.5418,5.8052,5.8501,5.7603,6.2781,6.6729,6.9512,7.029,7.0739,0.0,7.1009,7.0979,7.0829,7.0201,7.0023,7.0023,7.0023,6.9722,6.9542,7.0171,6.9871,6.9333,6.9722,6.8884,6.8016,6.8706,6.7717,6.655,6.646,6.5443,6.4096,6.269,6.266,6.254,6.1134,6.1224,6.0805,5.8411,5.6675,5.4461,5.093,0.0,0.0,4.7399,4.7309,4.7429,4.7818,4.8729,4.9289,4.9286,4.929,4.9416,4.9585,4.9526,5.0304,5.2198,5.4532,5.734,6.0655,6.3768,6.5865,6.6914,6.8368,6.9113,6.918,6.9857,7.0398,7.0838,7.1154,7.1289,7.1289,7.1289,7.1289,7.1289,7.1289,7.1526,7.2067,7.3616,7.6454,7.9905,8.1516,8.3463,8.5453,4.8775,5.078,5.2995,5.4251,5.5713,5.712,5.8321,6.1403,6.4126,6.5562,7.0228,7.3013,7.1936,7.4958,7.7048,7.7048,7.7048,7.6031,7.3702,7.454,7.4061,7.1667,7.1398,7.0141,6.7687,6.6011,6.3647,6.0595,5.8231,5.7363,5.7786,5.5448,5.4281,5.4286,5.6918,5.7693,5.733,6.263,6.67,6.9574,6.9153,6.9722,7.0709,7.0081,7.0231,7.0709,7.0081,6.9933,6.9993,6.9903,6.9814,6.9844,7.035,7.047,7.041,7.05,6.9662,6.8884,6.9574,6.7956,6.6251,6.6759,6.6011,6.4934,6.4186,6.4006,6.3827,6.3227,6.2569,6.1493,5.9488,5.7214,5.4356,5.0313,4.8879,4.8197,4.789,4.7723,4.7637,4.7615,4.9397,0.0,4.84,4.9141,4.9541,4.9042,4.9593,5.0541,5.1928,5.3551,5.6055,5.9573,6.2076,6.4174,6.5852,6.7895,6.8741,6.8368,6.9586,7.0251,7.0364,7.1007,7.1289,7.1289,7.1289,7.1289,7.1289,7.1289,7.1503,7.2064,7.4543,7.7673,8.0966,8.2612,8.388,8.4976,5.0631,5.2845,5.491,5.5713,5.7839,6.0922,6.5413,6.6221,6.7178,6.9572,7.3522,7.621,7.6574,7.7711,7.846,7.846,7.846,7.8011,7.7023,7.6664,7.6066,7.5078,7.3971,7.2624,7.1101,6.7627,6.5024,6.3318,5.9129,5.6885,5.6521,5.5478,5.473,5.4286,5.6918,5.9219,6.1194,6.3288,6.5473,6.7597,6.8585,6.9453,7.0081,6.9423,6.9572,7.0051,6.9393,6.9512,6.9933,6.9363,6.8794,6.8377,6.8466,6.8137,6.7777,6.8347,6.7987,6.7478,6.8167,6.7628,6.6729,6.6281,6.6011,6.5503,6.4276,6.4006,6.3827,6.3227,6.2569,6.1493,5.9488,5.5688,5.258,5.1603,4.9681,4.8875,5.0526,5.0018,4.9396,4.9364,5.1738,5.2208,4.9215,4.9964,5.0207,4.9092,4.912,4.956,5.0455,5.2503,5.4837,5.7306,6.0757,6.3903,6.6576,6.7624,6.8977,7.068,7.0364,7.05,7.1109,7.1222,7.1289,7.1289,7.1289,7.1289,7.1289,7.1289,7.2558,7.4639,7.6813,7.9268,8.1834,8.3637,8.4857,8.571,5.4012,5.5299,5.6705,5.8441,6.1194,6.4485,6.8375,7.0739,7.2176,7.2415,7.4719,7.6485,7.6784,7.8609,7.9686,7.9357,7.9327,7.8908,7.7891,7.7502,7.7018,7.639,7.5467,7.4151,7.2445,6.8884,6.6041,6.4006,5.9368,5.6585,0.0,5.4665,5.3623,5.2761,5.5418,5.883,6.266,6.3258,6.5084,6.7568,6.7837,6.8764,6.9903,6.8854,6.8884,6.9423,6.9123,6.9213,6.9482,6.9512,6.9273,6.9095,6.9393,6.9064,6.8615,6.8945,6.8317,6.7598,6.7928,6.6999,6.5892,6.5562,6.4994,6.4306,6.3677,6.3528,6.3467,6.3168,6.2838,6.1882,5.9548,5.6466,5.4122,5.3588,5.1901,5.1003,5.1953,5.1625,5.1155,5.0747,5.2695,5.302,5.0259,5.0977,5.0893,4.9123,4.9357,4.9729,5.0083,5.186,5.4093,5.6731,6.008,6.2685,6.4512,6.7557,6.8842,6.8402,7.0026,7.077,7.0737,7.1142,7.1289,7.1289,7.1289,7.1289,7.1356,7.1873,7.3663,7.6218,7.7667,7.9768,8.222,8.398,8.5123,8.593,5.7752,5.8381,5.9368,6.1912,6.4964,6.7897,7.038,7.4176,7.633,7.5108,7.5976,7.6784,7.6933,7.9238,8.0584,8.0075,7.9859,7.9321,7.831,7.7831,7.7382,7.6808,7.6096,7.4899,7.3163,6.9871,6.685,6.4006,5.9638,5.6585,5.473,5.3857,5.2935,5.2133,5.4551,5.8168,6.2509,6.3078,6.5054,6.7778,6.7508,6.8435,6.9842,6.8526,6.8495,6.9183,6.8884,6.8974,6.9273,6.9662,6.9694,6.9634,6.9961,6.9752,6.9333,6.9333,6.8616,6.7808,6.7808,6.664,6.5353,6.5084,6.4246,6.3408,6.3168,6.3108,6.3108,6.3108,6.2988,6.218,5.9757,5.7812,5.6269,5.5348,5.4016,5.304,5.2921,5.3082,5.2893,5.192,5.3542,5.3714,5.1047,5.1698,5.1386,4.9187,4.9526,4.9932,5.0083,5.1352,5.3315,5.6021,5.9167,6.1332,6.24,6.7252,6.8673,6.6698,6.9823,7.1007,7.0432,7.1041,7.1289,7.1289,7.1289,7.1412,7.171,7.2707,7.4746,7.7355,7.8196,8.0252,8.2847,8.4132,8.5233,8.6151,6.1104,6.257,6.4006,6.6071,6.8645,7.1128,7.3223,7.5407,7.7167,7.819,7.8998,7.9686,8.0285,8.0614,8.0764,8.0704,8.0165,7.9776,7.959,7.7885,7.6868,7.6779,7.5647,7.4599,7.3821,7.059,6.7298,6.4006,6.0595,5.7004,5.3408,5.3892,5.4371,5.488,5.6286,5.8201,6.0563,6.2899,6.5144,6.7178,6.8345,6.9273,6.9842,6.8526,6.8796,6.9754,6.8526,6.8886,6.9812,6.9273,6.8675,6.8107,6.7537,6.7328,6.7268,6.7268,6.7178,6.7089,6.7089,6.6939,6.652,6.5293,6.4904,6.4516,6.3348,6.3108,6.3108,6.3108,6.2629,6.1732,6.0294,5.886,5.7454,5.6032,5.4683,5.3811,5.3868,5.4734,5.4715,5.3049,5.5193,5.5212,5.1212,5.1698,5.1386,4.9187,4.9052,4.939,5.0083,5.0879,5.208,5.3754,5.734,6.025,6.24,6.6203,6.8673,6.9811,7.0804,7.1255,7.1188,7.1255,7.1289,7.1289,7.1289,7.1808,7.2735,7.3733,7.5722,7.8183,7.9251,8.1571,8.4389,8.4535,8.5563,8.6904,6.4755,6.5443,6.655,6.8914,7.0889,7.2924,7.5288,7.6993,7.834,7.9297,7.9656,8.0075,8.0734,8.0794,8.0644,8.0255,7.9956,7.9656,7.9238,7.8071,7.7412,7.7412,7.6185,7.5377,7.5108,7.1846,6.8914,6.6401,6.269,5.9279,5.6137,5.5209,5.5359,5.6376,5.7304,5.9249,6.2,6.3408,6.5383,6.7658,6.8166,6.8794,6.9303,6.8377,6.8077,6.8106,6.7598,6.7717,6.8196,6.8377,6.8465,6.8525,6.8286,6.7897,6.7598,6.7598,6.7329,6.6909,6.652,6.6101,6.5592,6.4635,6.4126,6.3707,6.3227,6.3108,6.3108,6.3108,6.2898,6.2391,6.1463,6.0206,5.9164,5.8765,5.7591,5.6648,5.6387,5.7096,5.6881,5.4876,5.5193,5.4773,5.2635,5.1545,5.1183,5.1657,5.0033,4.912,4.9424,5.098,5.257,5.4093,5.7746,6.0554,6.24,6.5628,6.776,6.8842,7.006,7.0872,7.1289,7.1289,7.1289,7.1289,7.1289,7.2228,7.3714,7.412,7.6213,7.9185,7.9652,8.1175,8.3287,8.4242,8.5013,8.571,6.8435,6.8734,6.9572,7.2176,7.3582,7.4988,7.6808,7.8071,7.8968,7.9447,7.9507,7.9836,8.0704,8.0794,8.0614,8.0165,7.9889,7.9627,7.9118,7.81,7.7532,7.7532,7.6305,7.5617,7.5617,7.2894,7.062,6.8856,6.5263,6.2091,5.9221,5.7274,5.6915,5.8022,5.889,6.0805,6.3437,6.4455,6.6191,6.8347,6.8706,6.9004,6.9213,6.8525,6.7986,6.7537,6.7119,6.7119,6.7359,6.7628,6.8016,6.8435,6.8645,6.8257,6.7718,6.7718,6.7358,6.6849,6.6191,6.5802,6.5323,6.4276,6.3827,6.3558,6.3197,6.3108,6.3108,6.3108,6.3108,6.2838,6.1972,6.1345,6.0589,5.9492,5.9387,5.8798,5.6829,5.8017,5.8167,5.5664,5.4978,5.4471,5.3889,5.1758,5.1082,5.2689,5.0829,4.9932,5.0608,5.1488,5.2773,5.4532,5.7746,6.0283,6.2042,6.5222,6.7286,6.8267,6.9789,7.0804,7.1289,7.1289,7.1289,7.1289,7.1289,7.2448,7.4291,7.4291,7.6481,7.9816,7.9816,8.0954,8.2737,8.4095,8.4756,8.5159,7.2206,7.2834,7.3638,7.627,7.7287,7.7771,7.7801,7.837,7.8789,7.8789,7.8789,7.9297,8.0644,8.0794,8.0794,8.0794,8.0195,7.977,7.977,7.7915,7.6808,7.6808,7.5587,7.4933,7.4933,7.3582,7.2235,7.0859,6.8226,6.5263,6.2002,5.9997,5.9398,6.0116,6.1463,6.278,6.4126,6.6101,6.7747,6.9093,7.035,7.05,6.9901,6.9243,6.8974,6.8794,6.7478,6.7449,6.7898,6.7208,6.6999,6.7119,6.7808,6.7568,6.6999,6.6999,6.6999,6.6849,6.6191,6.649,6.649,6.4485,6.4515,6.4635,6.3407,6.3108,6.3108,6.3108,6.3108,6.2689,6.1373,6.214,6.1484,5.6959,5.9236,5.9661,5.4141,5.6774,5.8131,5.4986,5.4775,5.4812,5.4598,5.2536,5.1201,5.1235,5.1201,5.2164,5.4414,5.2435,5.2249,5.455,5.6765,5.8998,6.1298,6.4965,6.759,6.9113,7.0579,7.1289,7.1289,7.1289,7.1289,7.1289,7.1289,7.2448,7.4291,7.4291,7.6481,7.9816,7.9816,8.1269,8.3491,8.4315,8.5086,8.5894,7.4659,7.5647,7.6514,7.7352,7.8041,7.8489,7.8489,7.9058,7.9327,7.8849,7.9597,7.9986,7.9477,7.9417,7.9417,7.9417,7.9238,7.9118,7.9118,7.81,7.7293,7.6808,7.6036,7.5347,7.4933,7.4031,7.2924,7.1577,6.9871,6.7328,6.4067,6.3887,6.3677,6.3528,6.4844,6.5922,6.682,6.7897,6.8854,6.9722,7.0111,7.0141,6.9993,6.9752,6.9093,6.8287,6.7838,6.7538,6.7359,6.7598,6.7389,6.7119,6.7808,6.7239,6.6311,6.6311,6.6011,6.5503,6.4814,6.4784,6.4695,6.3647,6.3528,6.3588,6.3197,6.3108,6.3108,6.3108,6.3108,6.3095,6.3073,6.3033,6.2435,6.0786,6.1128,6.055,5.7578,5.7859,5.7797,5.629,5.5716,5.5409,5.5377,5.4228,5.3721,5.4245,5.3332,5.2638,5.23,5.3078,5.4532,5.6783,5.9032,6.1298,6.3531,6.573,6.7569,6.9113,7.0094,7.0804,7.1289,7.1289,7.1289,7.1334,7.2013,7.3084,7.4348,7.503,7.7089,7.9816,7.9816,8.0954,8.2737,8.4095,8.4756,8.5196,7.6485,7.7263,7.7981,7.846,7.8908,7.9267,7.9507,7.9686,7.9746,7.9567,8.0075,8.0195,7.9597,7.9537,7.9357,7.8819,7.8789,7.8789,7.8789,7.816,7.7622,7.7167,7.6569,7.6036,7.5617,7.4988,7.424,7.3402,7.1577,6.9393,6.6909,6.7298,6.7148,6.6549,6.7627,6.8377,6.8796,6.9183,6.9752,7.0385,7.1025,7.1095,7.0915,7.1506,7.1045,7.0032,6.9458,6.8972,6.8546,6.8144,6.7718,6.7419,6.7568,6.6879,6.6071,6.6311,6.5712,6.4904,6.4515,6.4395,6.4186,6.3317,6.3287,6.3407,6.3168,6.3108,6.3108,6.3108,6.3478,6.3822,6.3661,6.41,6.3903,6.2185,6.2134,6.1383,5.8705,5.8332,5.7814,5.6562,5.6206,5.6105,5.6105,5.5716,5.5513,5.5699,5.509,5.4194,5.296,5.4262,5.6021,5.8254,6.025,6.2347,6.458,6.6339,6.7861,6.9113,7.0128,7.0872,7.1289,7.1289,7.1501,7.1917,7.2519,7.3576,7.4903,7.5545,7.7394,7.9816,7.9816,8.0771,8.237,8.3654,8.4352,8.4792,7.7741,7.7921,7.837,7.9656,7.9836,8.0016,8.0644,8.0255,8.0105,8.0644,8.0315,8.0225,8.0734,8.0823,8.0315,7.8968,7.8849,7.8849,7.8849,7.825,7.7831,7.7741,7.7108,7.6749,7.6659,7.6125,7.5826,7.5826,7.3283,7.1427,7.0293,7.0171,6.978,6.9303,6.9901,7.0267,7.0363,7.0363,7.0727,7.1435,7.2984,7.3226,7.2755,7.4195,7.432,7.3543,7.2015,7.1485,7.1123,6.8971,6.8175,6.8053,6.7362,6.6611,6.6131,6.67,6.5951,6.4904,6.4874,6.4874,6.4575,6.3407,6.3498,6.3767,6.3227,6.3108,6.3137,6.3193,6.4237,6.4735,6.3498,6.5267,6.5652,6.1718,6.2368,6.1923,5.7813,5.8189,5.8066,5.6003,5.6477,5.6968,5.6968,5.7002,5.6713,5.5969,5.6544,5.663,5.5902,5.6105,5.7153,5.9182,6.0723,6.2584,6.4816,6.6914,6.8402,6.9282,7.0613,7.1289,7.1289,7.1289,7.1851,7.2797,7.288,7.4005,7.5823,7.5891,7.7443,7.9816,7.9816,8.0771,8.2296,8.3161,8.3968,8.4719,7.843,7.8998,7.9597,8.0434,8.0165,7.9829,8.0016,8.0345,8.0434,8.0105,8.1242,8.1751,8.0883,8.1242,8.1003,7.9686,7.9567,7.9567,7.9567,7.8938,7.81,7.7078,7.6868,7.6365,7.5347,7.5198,7.5142,7.5142,7.3971,7.3253,7.2954,7.2445,7.2116,7.1996,7.2146,7.2899,7.406,7.406,7.4532,7.5408,7.6333,7.6291,7.5687,7.6068,7.5794,7.5025,7.3511,7.2987,7.28,7.114,7.0224,6.9628,6.8923,6.7453,6.5951,6.5562,6.4904,6.4126,6.3647,6.3528,6.3468,6.3197,6.3227,6.3287,6.3138,6.3108,6.3394,6.4401,6.4895,6.5294,6.5958,6.6115,6.5466,6.3233,6.228,6.0864,5.8122,5.7481,5.7137,5.6596,5.7694,5.8472,5.8472,5.8998,5.8998,5.8269,5.8371,5.8152,5.7408,6.0114,6.1637,6.1603,6.3057,6.4884,6.7083,6.8233,6.9485,7.0804,7.112,7.1289,7.1289,7.1289,7.1851,7.2838,7.3631,7.4647,7.5874,7.6628,7.8086,7.9816,7.9816,8.0771,8.237,8.3801,8.4462,8.4792,7.8729,7.9088,7.9567,8.0225,8.0315,8.0375,8.0674,8.1003,8.1242,8.1183,8.1878,8.2208,8.1751,8.1789,8.1512,8.0764,8.0165,7.9686,7.9357,7.8998,7.846,7.7771,7.7711,7.7263,7.6245,7.5916,7.5467,7.4903,7.4544,7.474,7.5419,7.4346,7.442,7.5549,7.4806,7.5172,7.6424,7.6424,7.6751,7.7294,7.8409,7.8409,7.7816,7.8522,7.8371,7.756,7.6032,7.5552,7.5307,7.349,7.2606,7.2023,7.0612,6.9169,6.7696,6.6312,6.5233,6.4395,6.4066,6.3737,6.3582,6.3906,6.3564,6.3451,6.4706,6.4485,6.4401,6.5754,6.6543,6.7002,6.7001,6.6895,6.6109,6.385,6.1955,6.008,5.817,5.7273,5.707,5.7746,5.8829,5.9776,6.0486,6.1231,6.1231,6.0129,6.0351,6.0216,5.9471,6.2347,6.3497,6.2434,6.4816,6.6677,6.7895,6.9011,7.0161,7.1289,7.1289,7.1289,7.1312,7.1764,7.2519,7.3552,7.4554,7.5562,7.653,7.7066,7.828,7.9816,7.9816,8.0771,8.2296,8.3177,8.3985,8.4719,7.8938,7.9028,7.9297,7.9986,8.0812,8.1536,8.2108,8.2464,8.283,8.3405,8.3072,8.2981,8.3556,8.3103,8.2739,8.2618,8.1462,8.0243,7.9034,7.8849,7.8729,7.8639,7.8806,7.8588,7.7891,7.7478,7.6709,7.5658,7.5658,7.6335,7.7644,7.6299,7.6816,7.8875,7.7465,7.746,7.8453,7.8453,7.8535,7.8791,8.0208,8.0344,7.9818,8.1148,8.1156,8.0327,7.879,7.8265,7.7945,7.5802,7.5052,7.4566,7.2454,7.1337,7.034,6.8001,6.6763,6.5947,6.5083,6.4366,6.4055,6.4912,6.4265,6.4069,6.6627,6.6286,6.5808,6.7215,6.8429,6.8804,6.7549,6.7435,6.6643,6.3781,6.1332,5.9268,5.7934,5.7273,5.7476,5.8844,6.0047,6.1298,6.2603,6.3497,6.3511,6.2381,6.2651,6.2651,6.2178,6.414,6.4613,6.3091,6.6339,6.8132,6.8233,6.9654,7.0669,7.1289,7.1289,7.1379,7.1568,7.2427,7.3432,7.4572,7.544,7.6363,7.7289,7.7289,7.8222,7.9633,7.9743,8.0697,8.2039,8.2296,8.3324,8.4609,7.9537,8.0105,8.0704,8.1362,8.2851,8.3961,8.4053,8.5362,8.639,8.6517,8.6895,8.7244,8.7339,8.7276,8.6959,8.6422,8.5595,8.3579,7.9905,7.9118,7.8549,7.7981,7.8788,7.893,7.8252,7.894,7.9224,7.9034,7.9034,7.9158,7.9405,7.9158,7.9249,7.9643,7.9367,8.009,8.1525,8.1525,8.1933,8.2677,8.3537,8.3476,8.2829,8.3073,8.2712,8.1874,8.0385,7.9836,7.9609,7.8026,7.7074,7.627,7.4686,7.3668,7.2518,6.969,7.0024,7.0284,6.5458,6.3707,6.3543,6.4789,6.495,6.5192,6.6829,6.701,6.7241,6.8626,6.9073,6.9098,6.8819,6.726,6.5277,6.2956,6.0114,5.7949,5.7103,5.7408,5.8051,5.8912,6.1907,6.4005,6.4241,6.5493,6.6453,6.6846,6.5831,6.5392,6.5912,6.7523,6.7692,6.617,6.7929,6.9214,6.9845,7.0703,7.1188,7.1289,7.1289,7.172,7.2582,7.2714,7.3811,7.558,7.5718,7.6363,7.7289,7.7289,7.7876,7.8846,7.9522,8.0351,8.1342,8.2684,8.3785,8.4682,8.2019,8.261,8.3203,8.3514,8.4895,8.5948,8.5948,8.6981,8.7708,8.7708,8.7996,8.822,8.822,8.7868,8.7356,8.6684,8.5948,8.4555,8.2215,8.1771,8.1274,8.0526,8.0945,8.0677,7.9637,7.9724,7.9803,7.9803,7.9803,8.0258,8.1062,8.0197,8.0707,8.2345,8.1472,8.1997,8.3476,8.3476,8.3718,8.4099,8.4031,8.3558,8.2881,8.2475,8.1866,8.1122,8.0445,8.0209,8.0107,7.9397,7.8985,7.8411,7.6895,7.5933,7.495,7.274,7.0904,6.9294,6.7828,6.6693,6.621,6.7552,6.7376,6.728,6.9026,6.883,6.865,7.0043,7.0333,7.0092,6.924,6.7557,6.5696,6.3869,6.0723,5.8524,5.8558,5.8524,5.9235,6.1177,6.3666,6.5662,6.6914,6.7658,6.7996,6.7895,6.7252,6.7015,6.7387,6.847,6.8977,6.8639,6.9316,7.006,7.0804,7.1142,7.1289,7.1289,7.1289,7.183,7.2818,7.3372,7.4404,7.584,7.6363,7.6856,7.7289,7.7289,7.7803,7.8662,7.9486,8.0277,8.1158,8.2333,8.3544,8.4646,8.4251,8.4988,8.5597,8.5597,8.6982,8.8082,8.8082,8.8829,8.9447,8.9447,8.9447,8.9447,8.9447,8.8798,8.8182,8.7598,8.6754,8.6039,8.5488,8.5293,8.4465,8.2843,8.2869,8.2501,8.1636,8.1144,8.0914,8.0914,8.0944,8.156,8.2713,8.1505,8.2226,8.4526,8.331,8.3448,8.4614,8.4614,8.4614,8.4546,8.3795,8.3152,8.2577,8.1832,8.1088,8.0445,8.0445,8.0344,8.0209,8.0209,8.0209,7.9964,7.8603,7.7954,7.7318,7.5431,7.1903,6.8846,6.9878,6.9117,6.8418,6.9903,6.9271,6.8805,7.0844,7.0482,6.9996,7.1075,7.1289,7.0883,6.9586,6.8098,6.6542,6.4884,6.1907,5.9945,6.0317,6.0182,6.1042,6.37,6.5493,6.7252,6.918,6.9519,6.935,6.8741,6.8707,6.8707,6.8707,6.9282,6.9857,7.0432,7.0466,7.0737,7.1289,7.1289,7.1289,7.1312,7.1546,7.2185,7.3171,7.4177,7.521,7.6214,7.6972,7.7289,7.7289,7.7289,7.7803,7.8662,7.9486,8.0277,8.1122,8.1893,8.3214,8.4609,8.502,8.6108,8.7037,8.7037,8.9058,9.0638,9.0638,9.2112,9.3212,9.3212,9.3212,9.3212,9.3212,9.2474,9.2002,9.1935,9.0654,8.9812,8.9744,8.907,8.6928,8.297,8.3038,8.355,8.4298,8.4258,8.4224,8.4224,8.4251,8.4339,8.4419,8.4278,8.4392,8.458,8.4473,8.4473,8.4614,8.4614,8.4614,8.4546,8.3795,8.3456,8.3321,8.2611,8.1866,8.1215,8.1215,8.0784,8.0209,8.0209,8.0209,8.0048,7.9271,7.9449,7.9423,7.6544,7.4497,7.2585,7.0141,6.8419,6.7758,6.981,6.9253,6.8761,7.0821,7.1222,7.1165,7.1289,7.1289,7.1075,7.0263,6.8842,6.7117,6.4952,6.3226,6.1907,6.1298,6.2327,6.3768,6.5358,6.7489,6.918,7.0048,7.0737,7.1086,7.1052,7.1052,7.1052,7.1052,7.1086,7.1154,7.1222,7.1222,7.1255,7.1289,7.1289,7.1289,7.1312,7.2236,7.3212,7.4215,7.5209,7.6247,7.7196,7.7258,7.7289,7.7289,7.7289,7.7803,7.8662,7.9486,8.0277,8.1122,8.1893,8.3214,8.4609,8.8237,8.9431,9.0427,9.0427,9.1611,9.2574,9.2574,9.3152,9.3601,9.3601,9.3601,9.3601,9.3601,9.3334,9.2759,9.1812,9.1203,9.0493,8.9579,8.9269,8.7957,8.5451,8.5001,8.4753,8.4614,8.4614,8.4614,8.4614,8.4614,8.4614,8.4614,8.4614,8.4614,8.4614,8.4614,8.4614,8.4614,8.4614,8.4614,8.4512,8.3321,8.3084,8.3321,8.1663,8.1156,8.1317,8.1317,8.0818,8.0276,8.0716,8.0581,8.0141,7.987,7.9972,7.9871,7.8312,7.712,7.5982,7.4473,7.2919,7.1853,7.219,7.188,7.1461,7.1322,7.1289,7.1289,7.1289,7.1289,7.1052,7.0331,6.935,6.8368,6.7523,6.573,6.4668,6.529,6.5472,6.6136,6.7624,6.8977,7.006,7.0804,7.112,7.1289,7.1289,7.1289,7.1289,7.1289,7.1289,7.1289,7.1289,7.1289,7.1289,7.1289,7.1289,7.1289,7.1312,7.2321,7.3332,7.4329,7.5352,7.6346,7.7289,7.7289,7.7289,7.7289,7.7289,7.7803,7.8662,7.9486,8.0277,8.1122,8.1893,8.3214,8.4609,9.087,9.1913,9.2793,9.2793,9.3436,9.3943,9.3943,9.4146,9.4282,9.4282,9.4282,9.418,9.3943,9.3503,9.2692,9.1406,9.0865,9.0154,8.9168,8.91,8.8429,8.6947,8.6196,8.5418,8.4614,8.4614,8.4614,8.4614,8.4614,8.4614,8.4614,8.4614,8.4614,8.4614,8.4614,8.4614,8.4614,8.4614,8.4614,8.4478,8.3253,8.305,8.3287,8.1291,8.0851,8.1317,8.1317,8.0953,8.0615,8.1148,8.0953,8.0513,8.0276,8.0209,8.0107,7.96,7.8923,7.8179,7.7435,7.6318,7.51,7.4086,7.3477,7.2885,7.1897,7.165,7.1582,7.1357,7.1289,7.1142,7.0635,7.0128,6.9654,6.918,6.7963,6.7307,6.7827,6.7895,6.8267,6.9316,7.0094,7.0737,7.1255,7.1289,7.1289,7.1289,7.1289,7.1289,7.1289,7.1289,7.1289,7.1289,7.1289,7.1289,7.1289,7.1289,7.1289,7.1312,7.2645,7.365,7.4329,7.5649,7.6644,7.7289,7.7289,7.7289,7.7326,7.7582,7.8222,7.9082,7.9853,8.0681,8.1452,8.2003,8.3214,8.4609,9.2392,9.303,9.3601,9.3634,9.4214,9.4687,9.4721,9.533,9.577,9.577,9.577,9.5499,9.4789,9.3305,9.2116,9.1372,8.9951,8.9134,8.91,8.91,8.8429,8.6974,8.6196,8.5452,8.4647,8.4614,8.4614,8.4614,8.4614,8.4614,8.4614,8.4614,8.4614,8.4614,8.4614,8.4614,8.4614,8.4614,8.4614,8.4546,8.3795,8.349,8.3355,8.1866,8.1317,8.1317,8.1317,8.1317,8.1317,8.1317,8.1317,8.1156,8.0412,8.0209,8.0209,8.0209,7.9701,7.8957,7.8179,7.7468,7.6521,7.4999,7.3511,7.2407,7.2399,7.2394,7.2191,7.1458,7.1289,7.1289,7.1289,7.1289,7.0816,6.935,6.9722,6.9654,6.8132,6.9248,7.0217,7.0217,7.0872,7.1289,7.1289,7.1289,7.1289,7.1289,7.1289,7.1289,7.1289,7.1289,7.1289,7.1289,7.1289,7.1289,7.1289,7.1289,7.1312,7.1334,7.3332,7.4291,7.4367,7.6399,7.7289,7.7289,7.7289,7.7289,7.7362,7.8259,7.9066,7.989,8.0681,8.1489,8.2186,8.2186,8.3214,8.4609,9.1643,9.2692,9.374,9.4282,9.4112,9.4112,9.462,9.4451,9.4248,9.4248,9.4248,9.4146,9.3943,9.3503,9.2725,9.1406,9.0899,9.0188,8.9168,8.91,8.8666,8.7719,8.7448,8.6974,8.6203,8.5723,8.5452,8.5452,8.4884,8.4614,8.4614,8.4614,8.4614,8.4614,8.4614,8.4614,8.4614,8.4614,8.4614,8.4546,8.3795,8.3828,8.4106,8.2644,8.2408,8.2847,8.2847,8.2171,8.1384,8.19,8.1393,8.0479,8.0276,8.0209,8.0209,8.0209,7.9701,7.8957,7.8179,7.7468,7.6521,7.4999,7.4252,7.3816,7.3306,7.3172,7.3105,7.2868,7.2428,7.209,7.209,7.165,7.1176,7.0737,7.0838,7.0804,7.0364,7.0703,7.0973,7.0973,7.1176,7.1289,7.1289,7.1289,7.1289,7.1289,7.1289,7.1289,7.1289,7.1289,7.1289,7.1289,7.1289,7.1289,7.1289,7.1289,7.1644,7.2385,7.369,7.4665,7.5405,7.6712,7.7289,7.7289,7.7289,7.7289,7.7362,7.8259,7.9066,7.989,8.0681,8.1489,8.2186,8.2186,8.3214,8.4609,9.2184,9.2962,9.374,9.418,9.4383,9.4518,9.4687,9.4823,9.4819,9.4485,9.4451,9.4349,9.4045,9.3774,9.2962,9.144,9.0763,9.0053,8.9168,8.91,8.8897,8.8429,8.8429,8.7955,8.6941,8.6467,8.6095,8.5817,8.5317,8.4884,8.4614,8.4614,8.4614,8.4614,8.4614,8.4614,8.4614,8.4614,8.4614,8.4546,8.4133,8.4174,8.4478,8.3287,8.2949,8.305,8.305,8.2306,8.1384,8.1799,8.119,8.0209,8.0209,8.0209,8.0209,8.0209,7.987,7.9329,7.828,7.7671,7.6961,7.5439,7.5033,7.483,7.4086,7.395,7.3849,7.3567,7.3138,7.2732,7.2462,7.2056,7.1627,7.1357,7.1289,7.1289,7.1289,7.1289,7.1289,7.1289,7.1289,7.1289,7.1289,7.1289,7.1289,7.1289,7.1289,7.1289,7.1289,7.1289,7.1289,7.1289,7.1289,7.1289,7.1289,7.1688,7.2193,7.2818,7.3846,7.4812,7.5821,7.684,7.7289,7.7289,7.7289,7.7509,7.7876,7.8736,7.9543,8.0351,8.1158,8.1782,8.2186,8.2186,8.3214,8.4609,9.3601,9.3736,9.3837,9.3905,9.4958,9.5567,9.4924,9.5872,9.6413,9.5702,9.5601,9.533,9.4687,9.4011,9.2996,9.1508,9.0053,8.9168,8.91,8.91,8.91,8.91,8.91,8.8463,8.7144,8.7042,8.6636,8.5919,8.5851,8.5384,8.4614,8.4614,8.4614,8.4614,8.4614,8.4614,8.4614,8.4614,8.4614,8.4614,8.4614,8.4614,8.4512,8.3862,8.3186,8.2584,8.2584,8.2069,8.1384,8.1249,8.075,8.0209,8.0209,8.0209,8.0209,8.0209,8.0209,7.9904,7.8483,7.8068,7.7662,7.6183,7.5743,7.5506,7.4864,7.4695,7.4525,7.3838,7.3612,7.3375,7.2732,7.2496,7.2191,7.1515,7.1323,7.1289,7.1289,7.1289,7.1289,7.1289,7.1289,7.1289,7.1289,7.1289,7.1289,7.1289,7.1289,7.1289,7.1289,7.1289,7.1289,7.1289,7.1289,7.1356,7.1412,7.2342,7.2838,7.2962,7.3947,7.4958,7.5976,7.6872,7.7289,7.7289,7.7289,7.7803,7.8662,7.9486,8.0277,8.1085,8.1893,8.2186,8.2186,8.2186,8.3214,8.4609,9.3601,9.4518,9.5499,9.6105,9.5973,9.5736,9.5601,9.533,9.4924,9.4146,9.4108,9.4011,9.3842,9.3702,9.3199,9.2252,9.0831,8.9715,8.9134,8.91,8.91,8.91,8.91,8.8965,8.8632,8.8057,8.7414,8.667,8.6061,8.5384,8.4614,8.4614,8.4614,8.4614,8.4614,8.4614,8.4614,8.4614,8.4614,8.4614,8.4614,8.4614,8.458,8.4411,8.4242,8.4106,8.4106,8.3287,8.2002,8.0818,8.031,8.0209,8.0209,8.0209,8.0209,8.0209,8.0209,8.0006,7.9126,7.845,7.7773,7.686,7.6183,7.5676,7.5506,7.5473,7.5405,7.527,7.4762,7.4322,7.4153,7.3172,7.236,7.2191,7.1684,7.1289,7.1289,7.1289,7.1289,7.1289,7.1289,7.1289,7.1289,7.1289,7.1289,7.1289,7.1289,7.1289,7.1289,7.1289,7.1289,7.1289,7.1289,7.1688,7.2456,7.2673,7.3191,7.3966,7.4976,7.5993,7.6988,7.7196,7.7289,7.7289,7.7289,7.7803,7.8662,7.9486,8.0277,8.1085,8.1893,8.2186,8.2186,8.2186,8.3214,8.4792,9.4112,9.5026,9.5905,9.6311,9.6041,9.5669,9.533,9.4958,9.4451,9.3702,9.3601,9.3601,9.3601,9.3601,9.3267,9.2459,9.1372,9.0425,8.9681,8.9613,8.9444,8.9134,8.91,8.91,8.91,8.8728,8.8158,8.7414,8.7042,8.6264,8.5182,8.5182,8.4979,8.4614,8.4614,8.4614,8.4614,8.4614,8.4614,8.4614,8.4614,8.4614,8.4614,8.4614,8.4377,8.4031,8.3667,8.2584,8.1224,8.0445,8.0209,8.0209,8.0209,8.0209,8.0209,8.0209,7.9938,7.96,7.9203,7.8314,7.7367,7.6995,7.6284,7.5709,7.5709,7.5709,7.5709,7.5709,7.5405,7.4931,7.4187,7.3443,7.2699,7.1988,7.1526,7.1289,7.1289,7.1289,7.1289,7.1289,7.1289,7.1289,7.1289,7.1289,7.1289,7.1289,7.1289,7.1289,7.1289,7.1289,7.1289,7.1289,7.1289,7.1764,7.2776,7.3272,7.4024,7.5012,7.5545,7.633,7.7289,7.7289,7.7289,7.7289,7.7289,7.7986,7.9229,7.9633,8.0514,8.1599,8.2039,8.2186,8.2186,8.2186,8.2994,8.4278,9.489,9.5466,9.6041,9.6142,9.6176,9.5872,9.5026,9.489,9.4586,9.3706,9.3601,9.3601,9.3601,9.3601,9.3267,9.2459,9.1744,9.1,9.0256,9.0087,8.9748,8.9134,8.91,8.91,8.91,8.91,8.8761,8.7989,8.7989,8.7245,8.5817,8.5817,8.5384,8.4614,8.4614,8.4614,8.4614,8.4614,8.4614,8.4614,8.4614,8.4614,8.4614,8.4614,8.4208,8.3592,8.2847,8.1629,8.0378,8.0242,8.0209,8.0209,8.0209,8.0209,8.0209,8.0209,7.9701,7.9101,7.9101,7.8111,7.7063,7.6927,7.6386,7.5879,7.5743,7.5709,7.5709,7.5709,7.5709,7.527,7.3916,7.3601,7.3037,7.1718,7.1357,7.1289,7.1289,7.1289,7.1289,7.1289,7.1289,7.1289,7.1289,7.1289,7.1289,7.1289,7.1289,7.1289,7.1289,7.1289,7.1289,7.1289,7.1457,7.2034,7.3064,7.4043,7.512,7.6278,7.6278,7.6732,7.7546,7.7656,7.7656,7.7546,7.7656,7.8516,7.9816,7.9963,8.0865,8.2186,8.2186,8.2186,8.2223,8.2333,8.2847,8.3638,9.5635,9.6244,9.6954,9.7597,9.7698,9.7258,9.5872,9.5635,9.5161,9.3774,9.3601,9.3601,9.3601,9.3601,9.3267,9.2459,9.1744,9.1,9.0256,8.9579,8.9173,8.91,8.91,8.91,8.91,8.91,8.8761,8.7989,8.7989,8.7245,8.5817,8.5817,8.5384,8.4614,8.4614,8.4614,8.4614,8.4614,8.4614,8.4614,8.4614,8.4614,8.4614,8.4614,8.4546,8.4343,8.3625,8.2408,8.1054,8.0412,8.0209,8.0209,8.0209,8.0209,8.0209,8.0209,7.9701,7.9101,7.9101,7.8483,7.7705,7.7063,7.6826,7.6555,7.5845,7.5709,7.5709,7.5709,7.5709,7.5439,7.4627,7.3916,7.3229,7.2394,7.1718,7.1289,7.1289,7.1289,7.1289,7.1289,7.1289,7.1289,7.1289,7.1289,7.1289,7.1289,7.1289,7.1289,7.1289,7.1289,7.1289,7.1289,7.2163,7.3105,7.4082,7.5084,7.6456,7.8196,7.8196,7.8296,7.8442,7.914,7.9066,7.8479,7.914,7.9596,7.9853,8.0534,8.1379,8.2186,8.2186,8.2186,8.226,8.2977,8.3308,8.3638,9.5872,9.6717,9.7495,9.7394,9.7394,9.7157,9.648,9.5702,9.4958,9.4282,9.3842,9.3601,9.3601,9.3601,9.3436,9.3098,9.2353,9.1609,9.0865,9.0121,8.9512,8.9134,8.91,8.91,8.91,8.91,8.8965,8.8598,8.8598,8.7854,8.6399,8.6399,8.579,8.4614,8.4614,8.4614,8.4614,8.4614,8.4614,8.4614,8.4614,8.4614,8.4614,8.4614,8.4614,8.4444,8.3321,8.1934,8.0648,8.031,8.0209,8.0209,8.0209,8.0209,8.0209,8.0209,7.9397,7.8585,7.8991,7.7942,7.6826,7.7367,7.686,7.6251,7.6352,7.6014,7.5574,7.5168,7.51,7.4864,7.4119,7.3375,7.2766,7.2462,7.1785,7.1289,7.1289,7.1289,7.1289,7.1289,7.1289,7.1289,7.1289,7.1289,7.1289,7.1289,7.1289,7.1289,7.1289,7.1289,7.1568,7.212,7.2561,7.3536,7.5102,7.558,7.6495,7.7876,7.8369,7.8589,7.8589,7.8956,7.8919,7.8626,7.8993,7.9617,8.0498,8.0865,8.1489,8.2186,8.2186,8.2186,8.2223,8.259,8.2737,8.2957]}]]